<?xml version="1.0" encoding="UTF-8"?>
<gpx version="1.1" creator="https://www.youtrack.es" xsi:schemaLocation="http://www.topografix.com/GPX/1/1 http://www.topografix.com/GPX/1/1/gpx.xsd http://www.garmin.com/xmlschemas/GpxExtensions/v3 http://www.garmin.com/xmlschemas/GpxExtensionsv3.xsd http://www.garmin.com/xmlschemas/TrackPointExtension/v1 http://www.garmin.com/xmlschemas/TrackPointExtensionv1.xsd" xmlns:gpxtpx="http://www.garmin.com/xmlschemas/TrackPointExtension/v1" xmlns:gpxx="http://www.garmin.com/xmlschemas/GpxExtensions/v3" xmlns:xsi="http://www.w3.org/2001/XMLSchema-instance">
  <metadata>
    <link href="https://www.youtrack.es">
      <text>YouTrack.es</text>
    </link>
    <time>2026-05-09T02:42:23Z</time>
  </metadata>
  <trk>
    <src>https://www.youtrack.es</src>
    <link href="https://www.youtrack.es/ruta/19860-serra-28-02-21">
      <text>YouTrack.es</text>
    </link>
    <trkseg>
      <trkpt lat="39.6858630" lon="-0.4262670">
        <ele>321.9</ele>
        <time>2019-10-19T10:40:12Z</time>
      </trkpt>
      <trkpt lat="39.6858630" lon="-0.4262670">
        <ele>321.9</ele>
        <time>2019-10-19T10:40:12Z</time>
      </trkpt>
      <trkpt lat="39.6858630" lon="-0.4262670">
        <ele>321.9</ele>
        <time>2019-10-19T10:40:12Z</time>
      </trkpt>
      <trkpt lat="39.6858650" lon="-0.4262690">
        <ele>321.9</ele>
        <time>2019-10-19T10:40:12Z</time>
      </trkpt>
      <trkpt lat="39.6858650" lon="-0.4262690">
        <ele>321.9</ele>
        <time>2019-10-19T10:40:12Z</time>
      </trkpt>
      <trkpt lat="39.6858650" lon="-0.4262690">
        <ele>321.9</ele>
        <time>2019-10-19T10:40:12Z</time>
      </trkpt>
      <trkpt lat="39.6858650" lon="-0.4262690">
        <ele>321.9</ele>
        <time>2019-10-19T10:40:12Z</time>
      </trkpt>
      <trkpt lat="39.6858650" lon="-0.4262690">
        <ele>321.9</ele>
        <time>2019-10-19T10:40:12Z</time>
      </trkpt>
      <trkpt lat="39.6858670" lon="-0.4262800">
        <ele>321.9</ele>
        <time>2019-10-19T10:40:12Z</time>
      </trkpt>
      <trkpt lat="39.6858670" lon="-0.4262800">
        <ele>321.9</ele>
        <time>2019-10-19T10:40:12Z</time>
      </trkpt>
      <trkpt lat="39.6858670" lon="-0.4262800">
        <ele>321.9</ele>
        <time>2019-10-19T10:40:12Z</time>
      </trkpt>
      <trkpt lat="39.6858670" lon="-0.4262800">
        <ele>321.9</ele>
        <time>2019-10-19T10:40:12Z</time>
      </trkpt>
      <trkpt lat="39.6858690" lon="-0.4262880">
        <ele>321.9</ele>
        <time>2019-10-19T10:40:12Z</time>
      </trkpt>
      <trkpt lat="39.6858670" lon="-0.4263080">
        <ele>321.8</ele>
        <time>2019-10-19T10:40:12Z</time>
      </trkpt>
      <trkpt lat="39.6858670" lon="-0.4263080">
        <ele>321.8</ele>
        <time>2019-10-19T10:40:12Z</time>
      </trkpt>
      <trkpt lat="39.6858670" lon="-0.4263080">
        <ele>321.8</ele>
        <time>2019-10-19T10:40:12Z</time>
      </trkpt>
      <trkpt lat="39.6858670" lon="-0.4263080">
        <ele>321.8</ele>
        <time>2019-10-19T10:40:12Z</time>
      </trkpt>
      <trkpt lat="39.6858670" lon="-0.4263080">
        <ele>321.8</ele>
        <time>2019-10-19T10:40:12Z</time>
      </trkpt>
      <trkpt lat="39.6858670" lon="-0.4263080">
        <ele>321.8</ele>
        <time>2019-10-19T10:40:12Z</time>
      </trkpt>
      <trkpt lat="39.6858680" lon="-0.4263120">
        <ele>321.8</ele>
        <time>2019-10-19T10:40:12Z</time>
      </trkpt>
      <trkpt lat="39.6859180" lon="-0.4263160">
        <ele>321.7</ele>
        <time>2019-10-19T10:40:12Z</time>
      </trkpt>
      <trkpt lat="39.6859630" lon="-0.4263190">
        <ele>321.6</ele>
        <time>2019-10-19T10:40:12Z</time>
      </trkpt>
      <trkpt lat="39.6860320" lon="-0.4263240">
        <ele>321.4</ele>
        <time>2019-10-19T10:40:12Z</time>
      </trkpt>
      <trkpt lat="39.6860680" lon="-0.4263920">
        <ele>321.2</ele>
        <time>2019-10-19T10:40:12Z</time>
      </trkpt>
      <trkpt lat="39.6860730" lon="-0.4264070">
        <ele>321.1</ele>
        <time>2019-10-19T10:40:12Z</time>
      </trkpt>
      <trkpt lat="39.6861500" lon="-0.4264050">
        <ele>320.9</ele>
        <time>2019-10-19T10:40:12Z</time>
      </trkpt>
      <trkpt lat="39.6862760" lon="-0.4263830">
        <ele>320.6</ele>
        <time>2019-10-19T10:40:12Z</time>
      </trkpt>
      <trkpt lat="39.6863270" lon="-0.4263380">
        <ele>320.5</ele>
        <time>2019-10-19T10:40:12Z</time>
      </trkpt>
      <trkpt lat="39.6863880" lon="-0.4262820">
        <ele>320.4</ele>
        <time>2019-10-19T10:40:12Z</time>
      </trkpt>
      <trkpt lat="39.6864420" lon="-0.4262100">
        <ele>320.3</ele>
        <time>2019-10-19T10:40:12Z</time>
      </trkpt>
      <trkpt lat="39.6864840" lon="-0.4261200">
        <ele>320.3</ele>
        <time>2019-10-19T10:40:12Z</time>
      </trkpt>
      <trkpt lat="39.6865970" lon="-0.4257930">
        <ele>320.7</ele>
        <time>2019-10-19T10:40:12Z</time>
      </trkpt>
      <trkpt lat="39.6866380" lon="-0.4256770">
        <ele>320.9</ele>
        <time>2019-10-19T10:40:12Z</time>
      </trkpt>
      <trkpt lat="39.6867270" lon="-0.4254370">
        <ele>321.9</ele>
        <time>2019-10-19T10:40:12Z</time>
      </trkpt>
      <trkpt lat="39.6867700" lon="-0.4253170">
        <ele>322.5</ele>
        <time>2019-10-19T10:40:12Z</time>
      </trkpt>
      <trkpt lat="39.6868110" lon="-0.4252070">
        <ele>323.1</ele>
        <time>2019-10-19T10:40:12Z</time>
      </trkpt>
      <trkpt lat="39.6868680" lon="-0.4250950">
        <ele>323.8</ele>
        <time>2019-10-19T10:40:12Z</time>
      </trkpt>
      <trkpt lat="39.6869310" lon="-0.4249960">
        <ele>324.5</ele>
        <time>2019-10-19T10:40:12Z</time>
      </trkpt>
      <trkpt lat="39.6869970" lon="-0.4248970">
        <ele>325.2</ele>
        <time>2019-10-19T10:40:12Z</time>
      </trkpt>
      <trkpt lat="39.6870600" lon="-0.4247920">
        <ele>325.8</ele>
        <time>2019-10-19T10:40:12Z</time>
      </trkpt>
      <trkpt lat="39.6871270" lon="-0.4246960">
        <ele>326.5</ele>
        <time>2019-10-19T10:40:12Z</time>
      </trkpt>
      <trkpt lat="39.6871880" lon="-0.4245920">
        <ele>327.1</ele>
        <time>2019-10-19T10:40:12Z</time>
      </trkpt>
      <trkpt lat="39.6872290" lon="-0.4244700">
        <ele>327.8</ele>
        <time>2019-10-19T10:40:12Z</time>
      </trkpt>
      <trkpt lat="39.6872580" lon="-0.4243470">
        <ele>328.5</ele>
        <time>2019-10-19T10:40:12Z</time>
      </trkpt>
      <trkpt lat="39.6872810" lon="-0.4242280">
        <ele>329.1</ele>
        <time>2019-10-19T10:40:12Z</time>
      </trkpt>
      <trkpt lat="39.6873370" lon="-0.4240090">
        <ele>330.3</ele>
        <time>2019-10-19T10:40:12Z</time>
      </trkpt>
      <trkpt lat="39.6873760" lon="-0.4239080">
        <ele>330.9</ele>
        <time>2019-10-19T10:40:12Z</time>
      </trkpt>
      <trkpt lat="39.6874150" lon="-0.4238050">
        <ele>331.5</ele>
        <time>2019-10-19T10:40:12Z</time>
      </trkpt>
      <trkpt lat="39.6874530" lon="-0.4237030">
        <ele>332.1</ele>
        <time>2019-10-19T10:40:12Z</time>
      </trkpt>
      <trkpt lat="39.6874880" lon="-0.4236000">
        <ele>332.7</ele>
        <time>2019-10-19T10:40:12Z</time>
      </trkpt>
      <trkpt lat="39.6875300" lon="-0.4234960">
        <ele>333.2</ele>
        <time>2019-10-19T10:40:12Z</time>
      </trkpt>
      <trkpt lat="39.6875680" lon="-0.4233970">
        <ele>333.8</ele>
        <time>2019-10-19T10:40:12Z</time>
      </trkpt>
      <trkpt lat="39.6876070" lon="-0.4232950">
        <ele>334.3</ele>
        <time>2019-10-19T10:40:12Z</time>
      </trkpt>
      <trkpt lat="39.6876460" lon="-0.4232030">
        <ele>334.9</ele>
        <time>2019-10-19T10:40:12Z</time>
      </trkpt>
      <trkpt lat="39.6876890" lon="-0.4231030">
        <ele>335.6</ele>
        <time>2019-10-19T10:40:12Z</time>
      </trkpt>
      <trkpt lat="39.6877320" lon="-0.4230040">
        <ele>336.2</ele>
        <time>2019-10-19T10:40:12Z</time>
      </trkpt>
      <trkpt lat="39.6877770" lon="-0.4229070">
        <ele>336.9</ele>
        <time>2019-10-19T10:40:12Z</time>
      </trkpt>
      <trkpt lat="39.6878220" lon="-0.4228070">
        <ele>337.6</ele>
        <time>2019-10-19T10:40:12Z</time>
      </trkpt>
      <trkpt lat="39.6878610" lon="-0.4227050">
        <ele>338.3</ele>
        <time>2019-10-19T10:40:12Z</time>
      </trkpt>
      <trkpt lat="39.6879040" lon="-0.4226040">
        <ele>338.9</ele>
        <time>2019-10-19T10:40:12Z</time>
      </trkpt>
      <trkpt lat="39.6879460" lon="-0.4225020">
        <ele>339.6</ele>
        <time>2019-10-19T10:40:12Z</time>
      </trkpt>
      <trkpt lat="39.6879900" lon="-0.4224180">
        <ele>340.1</ele>
        <time>2019-10-19T10:40:12Z</time>
      </trkpt>
      <trkpt lat="39.6880410" lon="-0.4223360">
        <ele>340.8</ele>
        <time>2019-10-19T10:40:12Z</time>
      </trkpt>
      <trkpt lat="39.6881100" lon="-0.4222750">
        <ele>341.4</ele>
        <time>2019-10-19T10:40:12Z</time>
      </trkpt>
      <trkpt lat="39.6881940" lon="-0.4222490">
        <ele>342.1</ele>
        <time>2019-10-19T10:40:12Z</time>
      </trkpt>
      <trkpt lat="39.6882790" lon="-0.4222610">
        <ele>342.7</ele>
        <time>2019-10-19T10:40:12Z</time>
      </trkpt>
      <trkpt lat="39.6883930" lon="-0.4223710">
        <ele>343.8</ele>
        <time>2019-10-19T10:40:12Z</time>
      </trkpt>
      <trkpt lat="39.6884150" lon="-0.4224630">
        <ele>344.3</ele>
        <time>2019-10-19T10:40:12Z</time>
      </trkpt>
      <trkpt lat="39.6884290" lon="-0.4225760">
        <ele>344.9</ele>
        <time>2019-10-19T10:40:12Z</time>
      </trkpt>
      <trkpt lat="39.6884380" lon="-0.4227060">
        <ele>345.5</ele>
        <time>2019-10-19T10:40:12Z</time>
      </trkpt>
      <trkpt lat="39.6884580" lon="-0.4227990">
        <ele>345.9</ele>
        <time>2019-10-19T10:40:12Z</time>
      </trkpt>
      <trkpt lat="39.6884950" lon="-0.4229600">
        <ele>346.4</ele>
        <time>2019-10-19T10:40:12Z</time>
      </trkpt>
      <trkpt lat="39.6886660" lon="-0.4230070">
        <ele>347.0</ele>
        <time>2019-10-19T10:40:12Z</time>
      </trkpt>
      <trkpt lat="39.6887460" lon="-0.4229850">
        <ele>347.2</ele>
        <time>2019-10-19T10:40:12Z</time>
      </trkpt>
      <trkpt lat="39.6888270" lon="-0.4229400">
        <ele>347.4</ele>
        <time>2019-10-19T10:40:12Z</time>
      </trkpt>
      <trkpt lat="39.6889100" lon="-0.4228840">
        <ele>347.6</ele>
        <time>2019-10-19T10:40:12Z</time>
      </trkpt>
      <trkpt lat="39.6889920" lon="-0.4228290">
        <ele>347.9</ele>
        <time>2019-10-19T10:40:12Z</time>
      </trkpt>
      <trkpt lat="39.6890750" lon="-0.4227770">
        <ele>348.2</ele>
        <time>2019-10-19T10:40:12Z</time>
      </trkpt>
      <trkpt lat="39.6891610" lon="-0.4227260">
        <ele>348.5</ele>
        <time>2019-10-19T10:40:12Z</time>
      </trkpt>
      <trkpt lat="39.6892440" lon="-0.4226740">
        <ele>348.9</ele>
        <time>2019-10-19T10:40:12Z</time>
      </trkpt>
      <trkpt lat="39.6893270" lon="-0.4226220">
        <ele>349.3</ele>
        <time>2019-10-19T10:40:12Z</time>
      </trkpt>
      <trkpt lat="39.6895650" lon="-0.4224420">
        <ele>350.5</ele>
        <time>2019-10-19T10:40:12Z</time>
      </trkpt>
      <trkpt lat="39.6896330" lon="-0.4223730">
        <ele>350.9</ele>
        <time>2019-10-19T10:40:12Z</time>
      </trkpt>
      <trkpt lat="39.6896970" lon="-0.4222960">
        <ele>351.3</ele>
        <time>2019-10-19T10:40:12Z</time>
      </trkpt>
      <trkpt lat="39.6897580" lon="-0.4222230">
        <ele>351.8</ele>
        <time>2019-10-19T10:40:12Z</time>
      </trkpt>
      <trkpt lat="39.6898190" lon="-0.4221480">
        <ele>352.3</ele>
        <time>2019-10-19T10:40:12Z</time>
      </trkpt>
      <trkpt lat="39.6898780" lon="-0.4220710">
        <ele>352.7</ele>
        <time>2019-10-19T10:40:12Z</time>
      </trkpt>
      <trkpt lat="39.6899360" lon="-0.4219990">
        <ele>353.1</ele>
        <time>2019-10-19T10:40:12Z</time>
      </trkpt>
      <trkpt lat="39.6899950" lon="-0.4219240">
        <ele>353.6</ele>
        <time>2019-10-19T10:40:12Z</time>
      </trkpt>
      <trkpt lat="39.6900540" lon="-0.4218540">
        <ele>354.0</ele>
        <time>2019-10-19T10:40:12Z</time>
      </trkpt>
      <trkpt lat="39.6901150" lon="-0.4217900">
        <ele>354.4</ele>
        <time>2019-10-19T10:40:12Z</time>
      </trkpt>
      <trkpt lat="39.6902600" lon="-0.4216900">
        <ele>355.2</ele>
        <time>2019-10-19T10:40:12Z</time>
      </trkpt>
      <trkpt lat="39.6903440" lon="-0.4216610">
        <ele>355.6</ele>
        <time>2019-10-19T10:40:12Z</time>
      </trkpt>
      <trkpt lat="39.6904330" lon="-0.4216530">
        <ele>356.0</ele>
        <time>2019-10-19T10:40:12Z</time>
      </trkpt>
      <trkpt lat="39.6905240" lon="-0.4216660">
        <ele>356.4</ele>
        <time>2019-10-19T10:40:12Z</time>
      </trkpt>
      <trkpt lat="39.6906110" lon="-0.4216950">
        <ele>356.7</ele>
        <time>2019-10-19T10:40:12Z</time>
      </trkpt>
      <trkpt lat="39.6906950" lon="-0.4217300">
        <ele>357.1</ele>
        <time>2019-10-19T10:40:12Z</time>
      </trkpt>
      <trkpt lat="39.6907770" lon="-0.4217670">
        <ele>357.5</ele>
        <time>2019-10-19T10:40:12Z</time>
      </trkpt>
      <trkpt lat="39.6908610" lon="-0.4218090">
        <ele>358.0</ele>
        <time>2019-10-19T10:40:12Z</time>
      </trkpt>
      <trkpt lat="39.6909440" lon="-0.4218520">
        <ele>358.5</ele>
        <time>2019-10-19T10:40:12Z</time>
      </trkpt>
      <trkpt lat="39.6910260" lon="-0.4218930">
        <ele>359.0</ele>
        <time>2019-10-19T10:40:12Z</time>
      </trkpt>
      <trkpt lat="39.6911100" lon="-0.4219350">
        <ele>359.6</ele>
        <time>2019-10-19T10:40:12Z</time>
      </trkpt>
      <trkpt lat="39.6911910" lon="-0.4219760">
        <ele>360.1</ele>
        <time>2019-10-19T10:40:12Z</time>
      </trkpt>
      <trkpt lat="39.6912690" lon="-0.4220120">
        <ele>360.6</ele>
        <time>2019-10-19T10:40:12Z</time>
      </trkpt>
      <trkpt lat="39.6913480" lon="-0.4220590">
        <ele>361.1</ele>
        <time>2019-10-19T10:40:12Z</time>
      </trkpt>
      <trkpt lat="39.6914240" lon="-0.4220860">
        <ele>361.6</ele>
        <time>2019-10-19T10:40:12Z</time>
      </trkpt>
      <trkpt lat="39.6915030" lon="-0.4221280">
        <ele>362.1</ele>
        <time>2019-10-19T10:40:12Z</time>
      </trkpt>
      <trkpt lat="39.6915740" lon="-0.4221640">
        <ele>362.6</ele>
        <time>2019-10-19T10:40:12Z</time>
      </trkpt>
      <trkpt lat="39.6916470" lon="-0.4221830">
        <ele>363.1</ele>
        <time>2019-10-19T10:40:12Z</time>
      </trkpt>
      <trkpt lat="39.6917210" lon="-0.4222180">
        <ele>363.3</ele>
        <time>2019-10-19T10:40:12Z</time>
      </trkpt>
      <trkpt lat="39.6919210" lon="-0.4223160">
        <ele>363.9</ele>
        <time>2019-10-19T10:40:12Z</time>
      </trkpt>
      <trkpt lat="39.6919860" lon="-0.4223540">
        <ele>364.3</ele>
        <time>2019-10-19T10:40:12Z</time>
      </trkpt>
      <trkpt lat="39.6920480" lon="-0.4223680">
        <ele>364.7</ele>
        <time>2019-10-19T10:40:12Z</time>
      </trkpt>
      <trkpt lat="39.6921260" lon="-0.4223640">
        <ele>365.3</ele>
        <time>2019-10-19T10:40:12Z</time>
      </trkpt>
      <trkpt lat="39.6922240" lon="-0.4223500">
        <ele>365.9</ele>
        <time>2019-10-19T10:40:12Z</time>
      </trkpt>
      <trkpt lat="39.6923190" lon="-0.4223340">
        <ele>366.6</ele>
        <time>2019-10-19T10:40:12Z</time>
      </trkpt>
      <trkpt lat="39.6924150" lon="-0.4223230">
        <ele>367.2</ele>
        <time>2019-10-19T10:40:12Z</time>
      </trkpt>
      <trkpt lat="39.6925070" lon="-0.4223110">
        <ele>367.9</ele>
        <time>2019-10-19T10:40:12Z</time>
      </trkpt>
      <trkpt lat="39.6926000" lon="-0.4222930">
        <ele>368.6</ele>
        <time>2019-10-19T10:40:12Z</time>
      </trkpt>
      <trkpt lat="39.6926910" lon="-0.4222830">
        <ele>369.3</ele>
        <time>2019-10-19T10:40:12Z</time>
      </trkpt>
      <trkpt lat="39.6927790" lon="-0.4222660">
        <ele>369.9</ele>
        <time>2019-10-19T10:40:12Z</time>
      </trkpt>
      <trkpt lat="39.6928690" lon="-0.4222510">
        <ele>370.6</ele>
        <time>2019-10-19T10:40:12Z</time>
      </trkpt>
      <trkpt lat="39.6929630" lon="-0.4222360">
        <ele>371.2</ele>
        <time>2019-10-19T10:40:12Z</time>
      </trkpt>
      <trkpt lat="39.6930540" lon="-0.4222220">
        <ele>371.9</ele>
        <time>2019-10-19T10:40:12Z</time>
      </trkpt>
      <trkpt lat="39.6931430" lon="-0.4222050">
        <ele>372.5</ele>
        <time>2019-10-19T10:40:12Z</time>
      </trkpt>
      <trkpt lat="39.6932290" lon="-0.4221850">
        <ele>373.2</ele>
        <time>2019-10-19T10:40:12Z</time>
      </trkpt>
      <trkpt lat="39.6933100" lon="-0.4221620">
        <ele>373.8</ele>
        <time>2019-10-19T10:40:12Z</time>
      </trkpt>
      <trkpt lat="39.6933870" lon="-0.4221370">
        <ele>374.4</ele>
        <time>2019-10-19T10:40:12Z</time>
      </trkpt>
      <trkpt lat="39.6934620" lon="-0.4221110">
        <ele>375.0</ele>
        <time>2019-10-19T10:40:12Z</time>
      </trkpt>
      <trkpt lat="39.6935380" lon="-0.4220930">
        <ele>375.5</ele>
        <time>2019-10-19T10:40:12Z</time>
      </trkpt>
      <trkpt lat="39.6936150" lon="-0.4220730">
        <ele>376.1</ele>
        <time>2019-10-19T10:40:12Z</time>
      </trkpt>
      <trkpt lat="39.6936840" lon="-0.4220570">
        <ele>376.6</ele>
        <time>2019-10-19T10:40:12Z</time>
      </trkpt>
      <trkpt lat="39.6937510" lon="-0.4220420">
        <ele>377.0</ele>
        <time>2019-10-19T10:40:12Z</time>
      </trkpt>
      <trkpt lat="39.6938170" lon="-0.4220270">
        <ele>377.5</ele>
        <time>2019-10-19T10:40:12Z</time>
      </trkpt>
      <trkpt lat="39.6938790" lon="-0.4220110">
        <ele>378.0</ele>
        <time>2019-10-19T10:40:12Z</time>
      </trkpt>
      <trkpt lat="39.6939370" lon="-0.4219980">
        <ele>378.3</ele>
        <time>2019-10-19T10:40:12Z</time>
      </trkpt>
      <trkpt lat="39.6939920" lon="-0.4219820">
        <ele>378.7</ele>
        <time>2019-10-19T10:40:12Z</time>
      </trkpt>
      <trkpt lat="39.6941290" lon="-0.4219260">
        <ele>379.6</ele>
        <time>2019-10-19T10:40:12Z</time>
      </trkpt>
      <trkpt lat="39.6942290" lon="-0.4218760">
        <ele>380.3</ele>
        <time>2019-10-19T10:40:12Z</time>
      </trkpt>
      <trkpt lat="39.6942590" lon="-0.4218550">
        <ele>380.5</ele>
        <time>2019-10-19T10:40:12Z</time>
      </trkpt>
      <trkpt lat="39.6942860" lon="-0.4218360">
        <ele>380.7</ele>
        <time>2019-10-19T10:40:12Z</time>
      </trkpt>
      <trkpt lat="39.6943090" lon="-0.4218200">
        <ele>380.9</ele>
        <time>2019-10-19T10:40:12Z</time>
      </trkpt>
      <trkpt lat="39.6943360" lon="-0.4218050">
        <ele>381.1</ele>
        <time>2019-10-19T10:40:12Z</time>
      </trkpt>
      <trkpt lat="39.6944000" lon="-0.4217460">
        <ele>381.7</ele>
        <time>2019-10-19T10:40:12Z</time>
      </trkpt>
      <trkpt lat="39.6944470" lon="-0.4217050">
        <ele>382.1</ele>
        <time>2019-10-19T10:40:12Z</time>
      </trkpt>
      <trkpt lat="39.6945040" lon="-0.4216680">
        <ele>382.5</ele>
        <time>2019-10-19T10:40:12Z</time>
      </trkpt>
      <trkpt lat="39.6945620" lon="-0.4216360">
        <ele>382.9</ele>
        <time>2019-10-19T10:40:12Z</time>
      </trkpt>
      <trkpt lat="39.6946220" lon="-0.4216030">
        <ele>383.2</ele>
        <time>2019-10-19T10:40:12Z</time>
      </trkpt>
      <trkpt lat="39.6947370" lon="-0.4215580">
        <ele>383.7</ele>
        <time>2019-10-19T10:40:12Z</time>
      </trkpt>
      <trkpt lat="39.6948620" lon="-0.4215390">
        <ele>384.1</ele>
        <time>2019-10-19T10:40:12Z</time>
      </trkpt>
      <trkpt lat="39.6949260" lon="-0.4215440">
        <ele>384.4</ele>
        <time>2019-10-19T10:40:12Z</time>
      </trkpt>
      <trkpt lat="39.6949870" lon="-0.4215630">
        <ele>384.6</ele>
        <time>2019-10-19T10:40:12Z</time>
      </trkpt>
      <trkpt lat="39.6950530" lon="-0.4215940">
        <ele>384.8</ele>
        <time>2019-10-19T10:40:12Z</time>
      </trkpt>
      <trkpt lat="39.6951150" lon="-0.4216270">
        <ele>385.1</ele>
        <time>2019-10-19T10:40:12Z</time>
      </trkpt>
      <trkpt lat="39.6951730" lon="-0.4216580">
        <ele>385.3</ele>
        <time>2019-10-19T10:40:12Z</time>
      </trkpt>
      <trkpt lat="39.6953310" lon="-0.4217210">
        <ele>386.0</ele>
        <time>2019-10-19T10:40:12Z</time>
      </trkpt>
      <trkpt lat="39.6953780" lon="-0.4217340">
        <ele>386.2</ele>
        <time>2019-10-19T10:40:12Z</time>
      </trkpt>
      <trkpt lat="39.6955140" lon="-0.4217920">
        <ele>386.8</ele>
        <time>2019-10-19T10:40:12Z</time>
      </trkpt>
      <trkpt lat="39.6955930" lon="-0.4218430">
        <ele>387.2</ele>
        <time>2019-10-19T10:40:12Z</time>
      </trkpt>
      <trkpt lat="39.6956750" lon="-0.4219600">
        <ele>387.8</ele>
        <time>2019-10-19T10:40:12Z</time>
      </trkpt>
      <trkpt lat="39.6957160" lon="-0.4220330">
        <ele>388.0</ele>
        <time>2019-10-19T10:40:12Z</time>
      </trkpt>
      <trkpt lat="39.6957600" lon="-0.4221620">
        <ele>388.1</ele>
        <time>2019-10-19T10:40:12Z</time>
      </trkpt>
      <trkpt lat="39.6957780" lon="-0.4223420">
        <ele>388.2</ele>
        <time>2019-10-19T10:40:12Z</time>
      </trkpt>
      <trkpt lat="39.6958040" lon="-0.4223860">
        <ele>388.2</ele>
        <time>2019-10-19T10:40:12Z</time>
      </trkpt>
      <trkpt lat="39.6958190" lon="-0.4223950">
        <ele>388.2</ele>
        <time>2019-10-19T10:40:12Z</time>
      </trkpt>
      <trkpt lat="39.6958240" lon="-0.4223930">
        <ele>388.2</ele>
        <time>2019-10-19T10:40:12Z</time>
      </trkpt>
      <trkpt lat="39.6958090" lon="-0.4223320">
        <ele>388.3</ele>
        <time>2019-10-19T10:40:12Z</time>
      </trkpt>
      <trkpt lat="39.6957740" lon="-0.4221720">
        <ele>388.5</ele>
        <time>2019-10-19T10:40:12Z</time>
      </trkpt>
      <trkpt lat="39.6957710" lon="-0.4221130">
        <ele>388.6</ele>
        <time>2019-10-19T10:40:12Z</time>
      </trkpt>
      <trkpt lat="39.6957680" lon="-0.4221040">
        <ele>388.7</ele>
        <time>2019-10-19T10:40:12Z</time>
      </trkpt>
      <trkpt lat="39.6957590" lon="-0.4220940">
        <ele>388.7</ele>
        <time>2019-10-19T10:40:12Z</time>
      </trkpt>
      <trkpt lat="39.6957440" lon="-0.4220640">
        <ele>388.8</ele>
        <time>2019-10-19T10:40:12Z</time>
      </trkpt>
      <trkpt lat="39.6957170" lon="-0.4220120">
        <ele>388.9</ele>
        <time>2019-10-19T10:40:12Z</time>
      </trkpt>
      <trkpt lat="39.6957120" lon="-0.4219940">
        <ele>389.0</ele>
        <time>2019-10-19T10:40:12Z</time>
      </trkpt>
      <trkpt lat="39.6957100" lon="-0.4219820">
        <ele>389.0</ele>
        <time>2019-10-19T10:40:12Z</time>
      </trkpt>
      <trkpt lat="39.6957090" lon="-0.4219700">
        <ele>389.0</ele>
        <time>2019-10-19T10:40:12Z</time>
      </trkpt>
      <trkpt lat="39.6957210" lon="-0.4219720">
        <ele>389.1</ele>
        <time>2019-10-19T10:40:12Z</time>
      </trkpt>
      <trkpt lat="39.6957700" lon="-0.4220150">
        <ele>389.3</ele>
        <time>2019-10-19T10:40:12Z</time>
      </trkpt>
      <trkpt lat="39.6958200" lon="-0.4220920">
        <ele>389.6</ele>
        <time>2019-10-19T10:40:12Z</time>
      </trkpt>
      <trkpt lat="39.6958830" lon="-0.4222360">
        <ele>390.2</ele>
        <time>2019-10-19T10:40:12Z</time>
      </trkpt>
      <trkpt lat="39.6958990" lon="-0.4222850">
        <ele>390.4</ele>
        <time>2019-10-19T10:40:12Z</time>
      </trkpt>
      <trkpt lat="39.6959240" lon="-0.4223350">
        <ele>390.6</ele>
        <time>2019-10-19T10:40:12Z</time>
      </trkpt>
      <trkpt lat="39.6959630" lon="-0.4223470">
        <ele>390.8</ele>
        <time>2019-10-19T10:40:12Z</time>
      </trkpt>
      <trkpt lat="39.6960110" lon="-0.4223420">
        <ele>391.0</ele>
        <time>2019-10-19T10:40:12Z</time>
      </trkpt>
      <trkpt lat="39.6960650" lon="-0.4223230">
        <ele>391.3</ele>
        <time>2019-10-19T10:40:12Z</time>
      </trkpt>
      <trkpt lat="39.6961050" lon="-0.4222920">
        <ele>391.6</ele>
        <time>2019-10-19T10:40:12Z</time>
      </trkpt>
      <trkpt lat="39.6961820" lon="-0.4222120">
        <ele>392.3</ele>
        <time>2019-10-19T10:40:12Z</time>
      </trkpt>
      <trkpt lat="39.6961940" lon="-0.4220990">
        <ele>392.5</ele>
        <time>2019-10-19T10:40:12Z</time>
      </trkpt>
      <trkpt lat="39.6961910" lon="-0.4220480">
        <ele>392.6</ele>
        <time>2019-10-19T10:40:12Z</time>
      </trkpt>
      <trkpt lat="39.6961890" lon="-0.4219070">
        <ele>392.6</ele>
        <time>2019-10-19T10:40:12Z</time>
      </trkpt>
      <trkpt lat="39.6962200" lon="-0.4218130">
        <ele>392.5</ele>
        <time>2019-10-19T10:40:12Z</time>
      </trkpt>
      <trkpt lat="39.6962950" lon="-0.4217500">
        <ele>392.5</ele>
        <time>2019-10-19T10:40:12Z</time>
      </trkpt>
      <trkpt lat="39.6963400" lon="-0.4217260">
        <ele>392.5</ele>
        <time>2019-10-19T10:40:12Z</time>
      </trkpt>
      <trkpt lat="39.6964700" lon="-0.4216540">
        <ele>393.1</ele>
        <time>2019-10-19T10:40:12Z</time>
      </trkpt>
      <trkpt lat="39.6965020" lon="-0.4216360">
        <ele>393.3</ele>
        <time>2019-10-19T10:40:12Z</time>
      </trkpt>
      <trkpt lat="39.6965390" lon="-0.4216170">
        <ele>393.6</ele>
        <time>2019-10-19T10:40:12Z</time>
      </trkpt>
      <trkpt lat="39.6965730" lon="-0.4215920">
        <ele>394.0</ele>
        <time>2019-10-19T10:40:12Z</time>
      </trkpt>
      <trkpt lat="39.6966050" lon="-0.4215670">
        <ele>394.4</ele>
        <time>2019-10-19T10:40:12Z</time>
      </trkpt>
      <trkpt lat="39.6966150" lon="-0.4215280">
        <ele>394.7</ele>
        <time>2019-10-19T10:40:12Z</time>
      </trkpt>
      <trkpt lat="39.6966080" lon="-0.4214800">
        <ele>395.2</ele>
        <time>2019-10-19T10:40:12Z</time>
      </trkpt>
      <trkpt lat="39.6965830" lon="-0.4214390">
        <ele>395.7</ele>
        <time>2019-10-19T10:40:12Z</time>
      </trkpt>
      <trkpt lat="39.6965480" lon="-0.4214090">
        <ele>396.3</ele>
        <time>2019-10-19T10:40:12Z</time>
      </trkpt>
      <trkpt lat="39.6965050" lon="-0.4213860">
        <ele>396.9</ele>
        <time>2019-10-19T10:40:12Z</time>
      </trkpt>
      <trkpt lat="39.6964530" lon="-0.4213760">
        <ele>397.5</ele>
        <time>2019-10-19T10:40:12Z</time>
      </trkpt>
      <trkpt lat="39.6964020" lon="-0.4213670">
        <ele>398.2</ele>
        <time>2019-10-19T10:40:12Z</time>
      </trkpt>
      <trkpt lat="39.6963460" lon="-0.4213410">
        <ele>398.8</ele>
        <time>2019-10-19T10:40:12Z</time>
      </trkpt>
      <trkpt lat="39.6962890" lon="-0.4213020">
        <ele>399.6</ele>
        <time>2019-10-19T10:40:12Z</time>
      </trkpt>
      <trkpt lat="39.6962370" lon="-0.4212380">
        <ele>400.3</ele>
        <time>2019-10-19T10:40:12Z</time>
      </trkpt>
      <trkpt lat="39.6961890" lon="-0.4211580">
        <ele>401.2</ele>
        <time>2019-10-19T10:40:12Z</time>
      </trkpt>
      <trkpt lat="39.6960400" lon="-0.4208540">
        <ele>403.5</ele>
        <time>2019-10-19T10:40:12Z</time>
      </trkpt>
      <trkpt lat="39.6959910" lon="-0.4203380">
        <ele>404.6</ele>
        <time>2019-10-19T10:40:12Z</time>
      </trkpt>
      <trkpt lat="39.6960040" lon="-0.4200480">
        <ele>405.0</ele>
        <time>2019-10-19T10:40:12Z</time>
      </trkpt>
      <trkpt lat="39.6960240" lon="-0.4199100">
        <ele>404.8</ele>
        <time>2019-10-19T10:40:12Z</time>
      </trkpt>
      <trkpt lat="39.6960250" lon="-0.4198310">
        <ele>404.5</ele>
        <time>2019-10-19T10:40:12Z</time>
      </trkpt>
      <trkpt lat="39.6959980" lon="-0.4197540">
        <ele>404.1</ele>
        <time>2019-10-19T10:40:12Z</time>
      </trkpt>
      <trkpt lat="39.6959110" lon="-0.4196910">
        <ele>403.5</ele>
        <time>2019-10-19T10:40:12Z</time>
      </trkpt>
      <trkpt lat="39.6958760" lon="-0.4196730">
        <ele>403.3</ele>
        <time>2019-10-19T10:40:12Z</time>
      </trkpt>
      <trkpt lat="39.6957890" lon="-0.4196430">
        <ele>402.9</ele>
        <time>2019-10-19T10:40:12Z</time>
      </trkpt>
      <trkpt lat="39.6957280" lon="-0.4196400">
        <ele>402.8</ele>
        <time>2019-10-19T10:40:12Z</time>
      </trkpt>
      <trkpt lat="39.6956590" lon="-0.4196450">
        <ele>402.9</ele>
        <time>2019-10-19T10:40:12Z</time>
      </trkpt>
      <trkpt lat="39.6955930" lon="-0.4196910">
        <ele>403.1</ele>
        <time>2019-10-19T10:40:12Z</time>
      </trkpt>
      <trkpt lat="39.6955310" lon="-0.4197600">
        <ele>403.7</ele>
        <time>2019-10-19T10:40:12Z</time>
      </trkpt>
      <trkpt lat="39.6954710" lon="-0.4198320">
        <ele>404.6</ele>
        <time>2019-10-19T10:40:12Z</time>
      </trkpt>
      <trkpt lat="39.6954120" lon="-0.4198760">
        <ele>405.6</ele>
        <time>2019-10-19T10:40:12Z</time>
      </trkpt>
      <trkpt lat="39.6953530" lon="-0.4199080">
        <ele>406.9</ele>
        <time>2019-10-19T10:40:12Z</time>
      </trkpt>
      <trkpt lat="39.6952850" lon="-0.4199230">
        <ele>408.0</ele>
        <time>2019-10-19T10:40:12Z</time>
      </trkpt>
      <trkpt lat="39.6952180" lon="-0.4199390">
        <ele>409.0</ele>
        <time>2019-10-19T10:40:12Z</time>
      </trkpt>
      <trkpt lat="39.6951520" lon="-0.4199500">
        <ele>409.9</ele>
        <time>2019-10-19T10:40:12Z</time>
      </trkpt>
      <trkpt lat="39.6950870" lon="-0.4199550">
        <ele>410.9</ele>
        <time>2019-10-19T10:40:12Z</time>
      </trkpt>
      <trkpt lat="39.6950260" lon="-0.4199540">
        <ele>411.7</ele>
        <time>2019-10-19T10:40:12Z</time>
      </trkpt>
      <trkpt lat="39.6948000" lon="-0.4199220">
        <ele>414.1</ele>
        <time>2019-10-19T10:40:12Z</time>
      </trkpt>
      <trkpt lat="39.6946230" lon="-0.4198810">
        <ele>414.8</ele>
        <time>2019-10-19T10:40:12Z</time>
      </trkpt>
      <trkpt lat="39.6945190" lon="-0.4198880">
        <ele>414.4</ele>
        <time>2019-10-19T10:40:12Z</time>
      </trkpt>
      <trkpt lat="39.6945020" lon="-0.4198870">
        <ele>414.2</ele>
        <time>2019-10-19T10:40:12Z</time>
      </trkpt>
      <trkpt lat="39.6944860" lon="-0.4198900">
        <ele>414.0</ele>
        <time>2019-10-19T10:40:12Z</time>
      </trkpt>
      <trkpt lat="39.6944690" lon="-0.4198890">
        <ele>413.7</ele>
        <time>2019-10-19T10:40:12Z</time>
      </trkpt>
      <trkpt lat="39.6944540" lon="-0.4198870">
        <ele>413.5</ele>
        <time>2019-10-19T10:40:12Z</time>
      </trkpt>
      <trkpt lat="39.6944250" lon="-0.4198780">
        <ele>413.1</ele>
        <time>2019-10-19T10:40:12Z</time>
      </trkpt>
      <trkpt lat="39.6943710" lon="-0.4198860">
        <ele>412.2</ele>
        <time>2019-10-19T10:40:12Z</time>
      </trkpt>
      <trkpt lat="39.6943580" lon="-0.4198840">
        <ele>412.0</ele>
        <time>2019-10-19T10:40:12Z</time>
      </trkpt>
      <trkpt lat="39.6943450" lon="-0.4198730">
        <ele>411.8</ele>
        <time>2019-10-19T10:40:12Z</time>
      </trkpt>
      <trkpt lat="39.6943330" lon="-0.4198640">
        <ele>411.6</ele>
        <time>2019-10-19T10:40:12Z</time>
      </trkpt>
      <trkpt lat="39.6943220" lon="-0.4198540">
        <ele>411.3</ele>
        <time>2019-10-19T10:40:12Z</time>
      </trkpt>
      <trkpt lat="39.6942610" lon="-0.4198210">
        <ele>410.2</ele>
        <time>2019-10-19T10:40:12Z</time>
      </trkpt>
      <trkpt lat="39.6942510" lon="-0.4198120">
        <ele>410.0</ele>
        <time>2019-10-19T10:40:12Z</time>
      </trkpt>
      <trkpt lat="39.6942420" lon="-0.4198010">
        <ele>409.8</ele>
        <time>2019-10-19T10:40:12Z</time>
      </trkpt>
      <trkpt lat="39.6942310" lon="-0.4197920">
        <ele>409.6</ele>
        <time>2019-10-19T10:40:12Z</time>
      </trkpt>
      <trkpt lat="39.6942170" lon="-0.4197880">
        <ele>409.4</ele>
        <time>2019-10-19T10:40:12Z</time>
      </trkpt>
      <trkpt lat="39.6941770" lon="-0.4197620">
        <ele>408.8</ele>
        <time>2019-10-19T10:40:12Z</time>
      </trkpt>
      <trkpt lat="39.6941620" lon="-0.4197530">
        <ele>408.5</ele>
        <time>2019-10-19T10:40:12Z</time>
      </trkpt>
      <trkpt lat="39.6941510" lon="-0.4197440">
        <ele>408.3</ele>
        <time>2019-10-19T10:40:12Z</time>
      </trkpt>
      <trkpt lat="39.6941370" lon="-0.4197340">
        <ele>408.1</ele>
        <time>2019-10-19T10:40:12Z</time>
      </trkpt>
      <trkpt lat="39.6941260" lon="-0.4197250">
        <ele>407.9</ele>
        <time>2019-10-19T10:40:12Z</time>
      </trkpt>
      <trkpt lat="39.6941140" lon="-0.4197160">
        <ele>407.8</ele>
        <time>2019-10-19T10:40:12Z</time>
      </trkpt>
      <trkpt lat="39.6940890" lon="-0.4196930">
        <ele>407.4</ele>
        <time>2019-10-19T10:40:12Z</time>
      </trkpt>
      <trkpt lat="39.6940030" lon="-0.4196280">
        <ele>406.4</ele>
        <time>2019-10-19T10:40:12Z</time>
      </trkpt>
      <trkpt lat="39.6939590" lon="-0.4195990">
        <ele>406.0</ele>
        <time>2019-10-19T10:40:12Z</time>
      </trkpt>
      <trkpt lat="39.6939450" lon="-0.4195900">
        <ele>405.9</ele>
        <time>2019-10-19T10:40:12Z</time>
      </trkpt>
      <trkpt lat="39.6939310" lon="-0.4195790">
        <ele>405.8</ele>
        <time>2019-10-19T10:40:12Z</time>
      </trkpt>
      <trkpt lat="39.6939190" lon="-0.4195720">
        <ele>405.7</ele>
        <time>2019-10-19T10:40:12Z</time>
      </trkpt>
      <trkpt lat="39.6939050" lon="-0.4195630">
        <ele>405.6</ele>
        <time>2019-10-19T10:40:12Z</time>
      </trkpt>
      <trkpt lat="39.6938800" lon="-0.4195390">
        <ele>405.4</ele>
        <time>2019-10-19T10:40:12Z</time>
      </trkpt>
      <trkpt lat="39.6938290" lon="-0.4195060">
        <ele>405.1</ele>
        <time>2019-10-19T10:40:12Z</time>
      </trkpt>
      <trkpt lat="39.6938080" lon="-0.4194970">
        <ele>404.9</ele>
        <time>2019-10-19T10:40:12Z</time>
      </trkpt>
      <trkpt lat="39.6937560" lon="-0.4195040">
        <ele>404.7</ele>
        <time>2019-10-19T10:40:12Z</time>
      </trkpt>
      <trkpt lat="39.6937340" lon="-0.4195040">
        <ele>404.5</ele>
        <time>2019-10-19T10:40:12Z</time>
      </trkpt>
      <trkpt lat="39.6937150" lon="-0.4195100">
        <ele>404.4</ele>
        <time>2019-10-19T10:40:12Z</time>
      </trkpt>
      <trkpt lat="39.6936940" lon="-0.4195230">
        <ele>404.3</ele>
        <time>2019-10-19T10:40:12Z</time>
      </trkpt>
      <trkpt lat="39.6936750" lon="-0.4195430">
        <ele>404.2</ele>
        <time>2019-10-19T10:40:12Z</time>
      </trkpt>
      <trkpt lat="39.6936230" lon="-0.4196020">
        <ele>403.9</ele>
        <time>2019-10-19T10:40:12Z</time>
      </trkpt>
      <trkpt lat="39.6935440" lon="-0.4197450">
        <ele>403.2</ele>
        <time>2019-10-19T10:40:12Z</time>
      </trkpt>
      <trkpt lat="39.6934880" lon="-0.4198710">
        <ele>402.5</ele>
        <time>2019-10-19T10:40:12Z</time>
      </trkpt>
      <trkpt lat="39.6934800" lon="-0.4198920">
        <ele>402.4</ele>
        <time>2019-10-19T10:40:12Z</time>
      </trkpt>
      <trkpt lat="39.6934690" lon="-0.4199120">
        <ele>402.2</ele>
        <time>2019-10-19T10:40:12Z</time>
      </trkpt>
      <trkpt lat="39.6934640" lon="-0.4199310">
        <ele>402.1</ele>
        <time>2019-10-19T10:40:12Z</time>
      </trkpt>
      <trkpt lat="39.6934520" lon="-0.4199550">
        <ele>401.9</ele>
        <time>2019-10-19T10:40:12Z</time>
      </trkpt>
      <trkpt lat="39.6934400" lon="-0.4199780">
        <ele>401.8</ele>
        <time>2019-10-19T10:40:12Z</time>
      </trkpt>
      <trkpt lat="39.6934240" lon="-0.4200270">
        <ele>401.5</ele>
        <time>2019-10-19T10:40:12Z</time>
      </trkpt>
      <trkpt lat="39.6933820" lon="-0.4201550">
        <ele>400.7</ele>
        <time>2019-10-19T10:40:12Z</time>
      </trkpt>
      <trkpt lat="39.6933780" lon="-0.4201830">
        <ele>400.5</ele>
        <time>2019-10-19T10:40:12Z</time>
      </trkpt>
      <trkpt lat="39.6933760" lon="-0.4202180">
        <ele>400.3</ele>
        <time>2019-10-19T10:40:12Z</time>
      </trkpt>
      <trkpt lat="39.6933730" lon="-0.4202620">
        <ele>400.1</ele>
        <time>2019-10-19T10:40:12Z</time>
      </trkpt>
      <trkpt lat="39.6933680" lon="-0.4202940">
        <ele>399.8</ele>
        <time>2019-10-19T10:40:12Z</time>
      </trkpt>
      <trkpt lat="39.6933490" lon="-0.4203590">
        <ele>399.3</ele>
        <time>2019-10-19T10:40:12Z</time>
      </trkpt>
      <trkpt lat="39.6933390" lon="-0.4203870">
        <ele>399.1</ele>
        <time>2019-10-19T10:40:12Z</time>
      </trkpt>
      <trkpt lat="39.6933260" lon="-0.4204150">
        <ele>398.9</ele>
        <time>2019-10-19T10:40:12Z</time>
      </trkpt>
      <trkpt lat="39.6933090" lon="-0.4204390">
        <ele>398.6</ele>
        <time>2019-10-19T10:40:12Z</time>
      </trkpt>
      <trkpt lat="39.6932890" lon="-0.4204620">
        <ele>398.3</ele>
        <time>2019-10-19T10:40:12Z</time>
      </trkpt>
      <trkpt lat="39.6932490" lon="-0.4205100">
        <ele>397.8</ele>
        <time>2019-10-19T10:40:12Z</time>
      </trkpt>
      <trkpt lat="39.6932270" lon="-0.4205290">
        <ele>397.5</ele>
        <time>2019-10-19T10:40:12Z</time>
      </trkpt>
      <trkpt lat="39.6932040" lon="-0.4205450">
        <ele>397.2</ele>
        <time>2019-10-19T10:40:12Z</time>
      </trkpt>
      <trkpt lat="39.6931790" lon="-0.4205540">
        <ele>396.9</ele>
        <time>2019-10-19T10:40:12Z</time>
      </trkpt>
      <trkpt lat="39.6931570" lon="-0.4205600">
        <ele>396.7</ele>
        <time>2019-10-19T10:40:12Z</time>
      </trkpt>
      <trkpt lat="39.6931270" lon="-0.4205680">
        <ele>396.4</ele>
        <time>2019-10-19T10:40:12Z</time>
      </trkpt>
      <trkpt lat="39.6929160" lon="-0.4205180">
        <ele>394.7</ele>
        <time>2019-10-19T10:40:12Z</time>
      </trkpt>
      <trkpt lat="39.6928090" lon="-0.4204540">
        <ele>394.1</ele>
        <time>2019-10-19T10:40:12Z</time>
      </trkpt>
      <trkpt lat="39.6927120" lon="-0.4203420">
        <ele>393.7</ele>
        <time>2019-10-19T10:40:12Z</time>
      </trkpt>
      <trkpt lat="39.6926470" lon="-0.4202580">
        <ele>393.5</ele>
        <time>2019-10-19T10:40:12Z</time>
      </trkpt>
      <trkpt lat="39.6926160" lon="-0.4200900">
        <ele>393.3</ele>
        <time>2019-10-19T10:40:12Z</time>
      </trkpt>
      <trkpt lat="39.6925910" lon="-0.4198050">
        <ele>393.1</ele>
        <time>2019-10-19T10:40:12Z</time>
      </trkpt>
      <trkpt lat="39.6925900" lon="-0.4197500">
        <ele>393.1</ele>
        <time>2019-10-19T10:40:12Z</time>
      </trkpt>
      <trkpt lat="39.6925910" lon="-0.4196960">
        <ele>393.1</ele>
        <time>2019-10-19T10:40:12Z</time>
      </trkpt>
      <trkpt lat="39.6925940" lon="-0.4196410">
        <ele>393.1</ele>
        <time>2019-10-19T10:40:12Z</time>
      </trkpt>
      <trkpt lat="39.6925980" lon="-0.4195880">
        <ele>393.1</ele>
        <time>2019-10-19T10:40:12Z</time>
      </trkpt>
      <trkpt lat="39.6926220" lon="-0.4192890">
        <ele>393.3</ele>
        <time>2019-10-19T10:40:12Z</time>
      </trkpt>
      <trkpt lat="39.6926240" lon="-0.4192330">
        <ele>393.4</ele>
        <time>2019-10-19T10:40:12Z</time>
      </trkpt>
      <trkpt lat="39.6926320" lon="-0.4191180">
        <ele>393.5</ele>
        <time>2019-10-19T10:40:12Z</time>
      </trkpt>
      <trkpt lat="39.6926600" lon="-0.4189980">
        <ele>393.6</ele>
        <time>2019-10-19T10:40:12Z</time>
      </trkpt>
      <trkpt lat="39.6927700" lon="-0.4187440">
        <ele>393.7</ele>
        <time>2019-10-19T10:40:12Z</time>
      </trkpt>
      <trkpt lat="39.6928010" lon="-0.4184950">
        <ele>393.9</ele>
        <time>2019-10-19T10:40:12Z</time>
      </trkpt>
      <trkpt lat="39.6927550" lon="-0.4183790">
        <ele>394.1</ele>
        <time>2019-10-19T10:40:12Z</time>
      </trkpt>
      <trkpt lat="39.6927270" lon="-0.4183210">
        <ele>394.2</ele>
        <time>2019-10-19T10:40:12Z</time>
      </trkpt>
      <trkpt lat="39.6926910" lon="-0.4182750">
        <ele>394.3</ele>
        <time>2019-10-19T10:40:12Z</time>
      </trkpt>
      <trkpt lat="39.6926540" lon="-0.4182330">
        <ele>394.4</ele>
        <time>2019-10-19T10:40:12Z</time>
      </trkpt>
      <trkpt lat="39.6926200" lon="-0.4181860">
        <ele>394.4</ele>
        <time>2019-10-19T10:40:12Z</time>
      </trkpt>
      <trkpt lat="39.6925260" lon="-0.4180800">
        <ele>394.6</ele>
        <time>2019-10-19T10:40:12Z</time>
      </trkpt>
      <trkpt lat="39.6924340" lon="-0.4178990">
        <ele>394.7</ele>
        <time>2019-10-19T10:40:12Z</time>
      </trkpt>
      <trkpt lat="39.6924230" lon="-0.4178420">
        <ele>394.7</ele>
        <time>2019-10-19T10:40:12Z</time>
      </trkpt>
      <trkpt lat="39.6924590" lon="-0.4176180">
        <ele>394.6</ele>
        <time>2019-10-19T10:40:12Z</time>
      </trkpt>
      <trkpt lat="39.6924740" lon="-0.4175650">
        <ele>394.5</ele>
        <time>2019-10-19T10:40:12Z</time>
      </trkpt>
      <trkpt lat="39.6925340" lon="-0.4172810">
        <ele>394.6</ele>
        <time>2019-10-19T10:40:12Z</time>
      </trkpt>
      <trkpt lat="39.6926080" lon="-0.4168660">
        <ele>394.6</ele>
        <time>2019-10-19T10:40:12Z</time>
      </trkpt>
      <trkpt lat="39.6926320" lon="-0.4167440">
        <ele>394.6</ele>
        <time>2019-10-19T10:40:12Z</time>
      </trkpt>
      <trkpt lat="39.6926650" lon="-0.4166340">
        <ele>394.6</ele>
        <time>2019-10-19T10:40:12Z</time>
      </trkpt>
      <trkpt lat="39.6927280" lon="-0.4165460">
        <ele>394.6</ele>
        <time>2019-10-19T10:40:12Z</time>
      </trkpt>
      <trkpt lat="39.6927680" lon="-0.4164310">
        <ele>394.7</ele>
        <time>2019-10-19T10:40:12Z</time>
      </trkpt>
      <trkpt lat="39.6927800" lon="-0.4163720">
        <ele>394.7</ele>
        <time>2019-10-19T10:40:12Z</time>
      </trkpt>
      <trkpt lat="39.6928390" lon="-0.4160750">
        <ele>395.1</ele>
        <time>2019-10-19T10:40:12Z</time>
      </trkpt>
      <trkpt lat="39.6929030" lon="-0.4157590">
        <ele>395.5</ele>
        <time>2019-10-19T10:40:12Z</time>
      </trkpt>
      <trkpt lat="39.6929390" lon="-0.4155990">
        <ele>395.6</ele>
        <time>2019-10-19T10:40:12Z</time>
      </trkpt>
      <trkpt lat="39.6929520" lon="-0.4155680">
        <ele>395.6</ele>
        <time>2019-10-19T10:40:12Z</time>
      </trkpt>
      <trkpt lat="39.6929690" lon="-0.4155280">
        <ele>395.6</ele>
        <time>2019-10-19T10:40:12Z</time>
      </trkpt>
      <trkpt lat="39.6929890" lon="-0.4154910">
        <ele>395.6</ele>
        <time>2019-10-19T10:40:12Z</time>
      </trkpt>
      <trkpt lat="39.6930000" lon="-0.4154510">
        <ele>395.6</ele>
        <time>2019-10-19T10:40:12Z</time>
      </trkpt>
      <trkpt lat="39.6930590" lon="-0.4152800">
        <ele>395.5</ele>
        <time>2019-10-19T10:40:12Z</time>
      </trkpt>
      <trkpt lat="39.6931430" lon="-0.4150950">
        <ele>395.3</ele>
        <time>2019-10-19T10:40:12Z</time>
      </trkpt>
      <trkpt lat="39.6932380" lon="-0.4149030">
        <ele>394.9</ele>
        <time>2019-10-19T10:40:12Z</time>
      </trkpt>
      <trkpt lat="39.6933490" lon="-0.4147420">
        <ele>394.5</ele>
        <time>2019-10-19T10:40:12Z</time>
      </trkpt>
      <trkpt lat="39.6933680" lon="-0.4147110">
        <ele>394.5</ele>
        <time>2019-10-19T10:40:12Z</time>
      </trkpt>
      <trkpt lat="39.6933860" lon="-0.4146720">
        <ele>394.4</ele>
        <time>2019-10-19T10:40:12Z</time>
      </trkpt>
      <trkpt lat="39.6934030" lon="-0.4146330">
        <ele>394.3</ele>
        <time>2019-10-19T10:40:12Z</time>
      </trkpt>
      <trkpt lat="39.6934220" lon="-0.4145990">
        <ele>394.2</ele>
        <time>2019-10-19T10:40:12Z</time>
      </trkpt>
      <trkpt lat="39.6934410" lon="-0.4145670">
        <ele>394.2</ele>
        <time>2019-10-19T10:40:12Z</time>
      </trkpt>
      <trkpt lat="39.6934580" lon="-0.4145280">
        <ele>394.1</ele>
        <time>2019-10-19T10:40:12Z</time>
      </trkpt>
      <trkpt lat="39.6935280" lon="-0.4143010">
        <ele>393.6</ele>
        <time>2019-10-19T10:40:12Z</time>
      </trkpt>
      <trkpt lat="39.6935440" lon="-0.4142210">
        <ele>393.5</ele>
        <time>2019-10-19T10:40:12Z</time>
      </trkpt>
      <trkpt lat="39.6935980" lon="-0.4141230">
        <ele>393.1</ele>
        <time>2019-10-19T10:40:12Z</time>
      </trkpt>
      <trkpt lat="39.6936160" lon="-0.4140530">
        <ele>392.9</ele>
        <time>2019-10-19T10:40:12Z</time>
      </trkpt>
      <trkpt lat="39.6936180" lon="-0.4139890">
        <ele>392.6</ele>
        <time>2019-10-19T10:40:12Z</time>
      </trkpt>
      <trkpt lat="39.6936230" lon="-0.4139300">
        <ele>392.3</ele>
        <time>2019-10-19T10:40:12Z</time>
      </trkpt>
      <trkpt lat="39.6936280" lon="-0.4138990">
        <ele>392.2</ele>
        <time>2019-10-19T10:40:12Z</time>
      </trkpt>
      <trkpt lat="39.6936290" lon="-0.4138690">
        <ele>392.0</ele>
        <time>2019-10-19T10:40:12Z</time>
      </trkpt>
      <trkpt lat="39.6936290" lon="-0.4138370">
        <ele>391.9</ele>
        <time>2019-10-19T10:40:12Z</time>
      </trkpt>
      <trkpt lat="39.6936310" lon="-0.4138070">
        <ele>391.7</ele>
        <time>2019-10-19T10:40:12Z</time>
      </trkpt>
      <trkpt lat="39.6936310" lon="-0.4137820">
        <ele>391.6</ele>
        <time>2019-10-19T10:40:12Z</time>
      </trkpt>
      <trkpt lat="39.6936320" lon="-0.4137490">
        <ele>391.4</ele>
        <time>2019-10-19T10:40:12Z</time>
      </trkpt>
      <trkpt lat="39.6936340" lon="-0.4137200">
        <ele>391.3</ele>
        <time>2019-10-19T10:40:12Z</time>
      </trkpt>
      <trkpt lat="39.6936340" lon="-0.4136950">
        <ele>391.2</ele>
        <time>2019-10-19T10:40:12Z</time>
      </trkpt>
      <trkpt lat="39.6936360" lon="-0.4136430">
        <ele>390.9</ele>
        <time>2019-10-19T10:40:12Z</time>
      </trkpt>
      <trkpt lat="39.6936310" lon="-0.4136110">
        <ele>390.8</ele>
        <time>2019-10-19T10:40:12Z</time>
      </trkpt>
      <trkpt lat="39.6936230" lon="-0.4135780">
        <ele>390.7</ele>
        <time>2019-10-19T10:40:12Z</time>
      </trkpt>
      <trkpt lat="39.6936040" lon="-0.4135510">
        <ele>390.6</ele>
        <time>2019-10-19T10:40:12Z</time>
      </trkpt>
      <trkpt lat="39.6935700" lon="-0.4135240">
        <ele>390.5</ele>
        <time>2019-10-19T10:40:12Z</time>
      </trkpt>
      <trkpt lat="39.6935280" lon="-0.4135030">
        <ele>390.4</ele>
        <time>2019-10-19T10:40:12Z</time>
      </trkpt>
      <trkpt lat="39.6934690" lon="-0.4134970">
        <ele>390.4</ele>
        <time>2019-10-19T10:40:12Z</time>
      </trkpt>
      <trkpt lat="39.6934120" lon="-0.4135150">
        <ele>390.5</ele>
        <time>2019-10-19T10:40:12Z</time>
      </trkpt>
      <trkpt lat="39.6933600" lon="-0.4135490">
        <ele>390.8</ele>
        <time>2019-10-19T10:40:12Z</time>
      </trkpt>
      <trkpt lat="39.6933190" lon="-0.4135920">
        <ele>391.0</ele>
        <time>2019-10-19T10:40:12Z</time>
      </trkpt>
      <trkpt lat="39.6932750" lon="-0.4136280">
        <ele>391.4</ele>
        <time>2019-10-19T10:40:12Z</time>
      </trkpt>
      <trkpt lat="39.6932310" lon="-0.4136620">
        <ele>391.8</ele>
        <time>2019-10-19T10:40:12Z</time>
      </trkpt>
      <trkpt lat="39.6931800" lon="-0.4136900">
        <ele>392.3</ele>
        <time>2019-10-19T10:40:12Z</time>
      </trkpt>
      <trkpt lat="39.6931240" lon="-0.4137170">
        <ele>392.8</ele>
        <time>2019-10-19T10:40:12Z</time>
      </trkpt>
      <trkpt lat="39.6930660" lon="-0.4137300">
        <ele>393.3</ele>
        <time>2019-10-19T10:40:12Z</time>
      </trkpt>
      <trkpt lat="39.6929320" lon="-0.4137260">
        <ele>394.6</ele>
        <time>2019-10-19T10:40:12Z</time>
      </trkpt>
      <trkpt lat="39.6928760" lon="-0.4137120">
        <ele>395.2</ele>
        <time>2019-10-19T10:40:12Z</time>
      </trkpt>
      <trkpt lat="39.6928280" lon="-0.4136940">
        <ele>395.7</ele>
        <time>2019-10-19T10:40:12Z</time>
      </trkpt>
      <trkpt lat="39.6927820" lon="-0.4136740">
        <ele>396.1</ele>
        <time>2019-10-19T10:40:12Z</time>
      </trkpt>
      <trkpt lat="39.6927410" lon="-0.4136530">
        <ele>396.5</ele>
        <time>2019-10-19T10:40:12Z</time>
      </trkpt>
      <trkpt lat="39.6927020" lon="-0.4136420">
        <ele>396.9</ele>
        <time>2019-10-19T10:40:12Z</time>
      </trkpt>
      <trkpt lat="39.6926130" lon="-0.4136270">
        <ele>397.6</ele>
        <time>2019-10-19T10:40:12Z</time>
      </trkpt>
      <trkpt lat="39.6925710" lon="-0.4136450">
        <ele>398.0</ele>
        <time>2019-10-19T10:40:12Z</time>
      </trkpt>
      <trkpt lat="39.6925310" lon="-0.4136730">
        <ele>398.3</ele>
        <time>2019-10-19T10:40:12Z</time>
      </trkpt>
      <trkpt lat="39.6924990" lon="-0.4137150">
        <ele>398.5</ele>
        <time>2019-10-19T10:40:12Z</time>
      </trkpt>
      <trkpt lat="39.6924690" lon="-0.4137640">
        <ele>398.8</ele>
        <time>2019-10-19T10:40:12Z</time>
      </trkpt>
      <trkpt lat="39.6924130" lon="-0.4138950">
        <ele>399.4</ele>
        <time>2019-10-19T10:40:12Z</time>
      </trkpt>
      <trkpt lat="39.6923860" lon="-0.4139690">
        <ele>399.8</ele>
        <time>2019-10-19T10:40:12Z</time>
      </trkpt>
      <trkpt lat="39.6923580" lon="-0.4140430">
        <ele>400.2</ele>
        <time>2019-10-19T10:40:12Z</time>
      </trkpt>
      <trkpt lat="39.6923260" lon="-0.4141180">
        <ele>400.6</ele>
        <time>2019-10-19T10:40:12Z</time>
      </trkpt>
      <trkpt lat="39.6922890" lon="-0.4141920">
        <ele>401.0</ele>
        <time>2019-10-19T10:40:12Z</time>
      </trkpt>
      <trkpt lat="39.6921940" lon="-0.4143190">
        <ele>401.9</ele>
        <time>2019-10-19T10:40:12Z</time>
      </trkpt>
      <trkpt lat="39.6920970" lon="-0.4144360">
        <ele>402.7</ele>
        <time>2019-10-19T10:40:12Z</time>
      </trkpt>
      <trkpt lat="39.6920480" lon="-0.4144880">
        <ele>403.2</ele>
        <time>2019-10-19T10:40:12Z</time>
      </trkpt>
      <trkpt lat="39.6919940" lon="-0.4145350">
        <ele>403.6</ele>
        <time>2019-10-19T10:40:12Z</time>
      </trkpt>
      <trkpt lat="39.6919370" lon="-0.4145680">
        <ele>404.1</ele>
        <time>2019-10-19T10:40:12Z</time>
      </trkpt>
      <trkpt lat="39.6918780" lon="-0.4145860">
        <ele>404.5</ele>
        <time>2019-10-19T10:40:12Z</time>
      </trkpt>
      <trkpt lat="39.6918170" lon="-0.4146010">
        <ele>404.9</ele>
        <time>2019-10-19T10:40:12Z</time>
      </trkpt>
      <trkpt lat="39.6915370" lon="-0.4146470">
        <ele>406.0</ele>
        <time>2019-10-19T10:40:12Z</time>
      </trkpt>
      <trkpt lat="39.6914640" lon="-0.4146600">
        <ele>406.3</ele>
        <time>2019-10-19T10:40:12Z</time>
      </trkpt>
      <trkpt lat="39.6913870" lon="-0.4146850">
        <ele>406.7</ele>
        <time>2019-10-19T10:40:12Z</time>
      </trkpt>
      <trkpt lat="39.6913070" lon="-0.4147210">
        <ele>407.1</ele>
        <time>2019-10-19T10:40:12Z</time>
      </trkpt>
      <trkpt lat="39.6912250" lon="-0.4147560">
        <ele>407.6</ele>
        <time>2019-10-19T10:40:12Z</time>
      </trkpt>
      <trkpt lat="39.6911520" lon="-0.4147860">
        <ele>408.0</ele>
        <time>2019-10-19T10:40:12Z</time>
      </trkpt>
      <trkpt lat="39.6910790" lon="-0.4148180">
        <ele>408.4</ele>
        <time>2019-10-19T10:40:12Z</time>
      </trkpt>
      <trkpt lat="39.6910070" lon="-0.4148480">
        <ele>408.9</ele>
        <time>2019-10-19T10:40:12Z</time>
      </trkpt>
      <trkpt lat="39.6909360" lon="-0.4148720">
        <ele>409.3</ele>
        <time>2019-10-19T10:40:12Z</time>
      </trkpt>
      <trkpt lat="39.6908630" lon="-0.4148860">
        <ele>409.8</ele>
        <time>2019-10-19T10:40:12Z</time>
      </trkpt>
      <trkpt lat="39.6907920" lon="-0.4148950">
        <ele>410.3</ele>
        <time>2019-10-19T10:40:12Z</time>
      </trkpt>
      <trkpt lat="39.6907250" lon="-0.4149030">
        <ele>410.8</ele>
        <time>2019-10-19T10:40:12Z</time>
      </trkpt>
      <trkpt lat="39.6906600" lon="-0.4149040">
        <ele>411.3</ele>
        <time>2019-10-19T10:40:12Z</time>
      </trkpt>
      <trkpt lat="39.6904960" lon="-0.4148770">
        <ele>412.5</ele>
        <time>2019-10-19T10:40:12Z</time>
      </trkpt>
      <trkpt lat="39.6903640" lon="-0.4148430">
        <ele>413.3</ele>
        <time>2019-10-19T10:40:12Z</time>
      </trkpt>
      <trkpt lat="39.6903180" lon="-0.4148320">
        <ele>413.5</ele>
        <time>2019-10-19T10:40:12Z</time>
      </trkpt>
      <trkpt lat="39.6902790" lon="-0.4148230">
        <ele>413.6</ele>
        <time>2019-10-19T10:40:12Z</time>
      </trkpt>
      <trkpt lat="39.6902350" lon="-0.4148230">
        <ele>413.8</ele>
        <time>2019-10-19T10:40:12Z</time>
      </trkpt>
      <trkpt lat="39.6901910" lon="-0.4148360">
        <ele>413.9</ele>
        <time>2019-10-19T10:40:12Z</time>
      </trkpt>
      <trkpt lat="39.6901520" lon="-0.4148660">
        <ele>414.1</ele>
        <time>2019-10-19T10:40:12Z</time>
      </trkpt>
      <trkpt lat="39.6901130" lon="-0.4149740">
        <ele>414.4</ele>
        <time>2019-10-19T10:40:12Z</time>
      </trkpt>
      <trkpt lat="39.6901300" lon="-0.4151870">
        <ele>414.9</ele>
        <time>2019-10-19T10:40:12Z</time>
      </trkpt>
      <trkpt lat="39.6901380" lon="-0.4152570">
        <ele>415.1</ele>
        <time>2019-10-19T10:40:12Z</time>
      </trkpt>
      <trkpt lat="39.6901460" lon="-0.4153220">
        <ele>415.4</ele>
        <time>2019-10-19T10:40:12Z</time>
      </trkpt>
      <trkpt lat="39.6901550" lon="-0.4153900">
        <ele>415.6</ele>
        <time>2019-10-19T10:40:12Z</time>
      </trkpt>
      <trkpt lat="39.6901580" lon="-0.4154540">
        <ele>415.9</ele>
        <time>2019-10-19T10:40:12Z</time>
      </trkpt>
      <trkpt lat="39.6901610" lon="-0.4155160">
        <ele>416.2</ele>
        <time>2019-10-19T10:40:12Z</time>
      </trkpt>
      <trkpt lat="39.6901560" lon="-0.4156280">
        <ele>416.7</ele>
        <time>2019-10-19T10:40:12Z</time>
      </trkpt>
      <trkpt lat="39.6901430" lon="-0.4156850">
        <ele>416.9</ele>
        <time>2019-10-19T10:40:12Z</time>
      </trkpt>
      <trkpt lat="39.6901210" lon="-0.4157460">
        <ele>417.2</ele>
        <time>2019-10-19T10:40:12Z</time>
      </trkpt>
      <trkpt lat="39.6900950" lon="-0.4158130">
        <ele>417.6</ele>
        <time>2019-10-19T10:40:12Z</time>
      </trkpt>
      <trkpt lat="39.6900630" lon="-0.4158760">
        <ele>418.1</ele>
        <time>2019-10-19T10:40:12Z</time>
      </trkpt>
      <trkpt lat="39.6899880" lon="-0.4160030">
        <ele>419.0</ele>
        <time>2019-10-19T10:40:12Z</time>
      </trkpt>
      <trkpt lat="39.6899270" lon="-0.4160990">
        <ele>419.7</ele>
        <time>2019-10-19T10:40:12Z</time>
      </trkpt>
      <trkpt lat="39.6898980" lon="-0.4161420">
        <ele>420.1</ele>
        <time>2019-10-19T10:40:12Z</time>
      </trkpt>
      <trkpt lat="39.6898720" lon="-0.4161830">
        <ele>420.4</ele>
        <time>2019-10-19T10:40:12Z</time>
      </trkpt>
      <trkpt lat="39.6898530" lon="-0.4162200">
        <ele>420.7</ele>
        <time>2019-10-19T10:40:12Z</time>
      </trkpt>
      <trkpt lat="39.6898360" lon="-0.4162520">
        <ele>420.9</ele>
        <time>2019-10-19T10:40:12Z</time>
      </trkpt>
      <trkpt lat="39.6897860" lon="-0.4162440">
        <ele>421.3</ele>
        <time>2019-10-19T10:40:12Z</time>
      </trkpt>
      <trkpt lat="39.6897810" lon="-0.4162030">
        <ele>422.9</ele>
        <time>2019-10-19T10:40:12Z</time>
      </trkpt>
      <trkpt lat="39.6897890" lon="-0.4161730">
        <ele>423.1</ele>
        <time>2019-10-19T10:40:12Z</time>
      </trkpt>
      <trkpt lat="39.6898070" lon="-0.4161470">
        <ele>423.3</ele>
        <time>2019-10-19T10:40:12Z</time>
      </trkpt>
      <trkpt lat="39.6898270" lon="-0.4161100">
        <ele>423.7</ele>
        <time>2019-10-19T10:40:12Z</time>
      </trkpt>
      <trkpt lat="39.6898500" lon="-0.4160620">
        <ele>424.1</ele>
        <time>2019-10-19T10:40:12Z</time>
      </trkpt>
      <trkpt lat="39.6898730" lon="-0.4160080">
        <ele>424.6</ele>
        <time>2019-10-19T10:40:12Z</time>
      </trkpt>
      <trkpt lat="39.6898970" lon="-0.4159520">
        <ele>425.2</ele>
        <time>2019-10-19T10:40:12Z</time>
      </trkpt>
      <trkpt lat="39.6899230" lon="-0.4158880">
        <ele>425.8</ele>
        <time>2019-10-19T10:40:12Z</time>
      </trkpt>
      <trkpt lat="39.6899480" lon="-0.4158260">
        <ele>426.5</ele>
        <time>2019-10-19T10:40:12Z</time>
      </trkpt>
      <trkpt lat="39.6899620" lon="-0.4157680">
        <ele>427.0</ele>
        <time>2019-10-19T10:40:12Z</time>
      </trkpt>
      <trkpt lat="39.6899700" lon="-0.4157100">
        <ele>427.5</ele>
        <time>2019-10-19T10:40:12Z</time>
      </trkpt>
      <trkpt lat="39.6899710" lon="-0.4156560">
        <ele>428.0</ele>
        <time>2019-10-19T10:40:12Z</time>
      </trkpt>
      <trkpt lat="39.6899670" lon="-0.4156030">
        <ele>428.3</ele>
        <time>2019-10-19T10:40:12Z</time>
      </trkpt>
      <trkpt lat="39.6899630" lon="-0.4155510">
        <ele>428.7</ele>
        <time>2019-10-19T10:40:12Z</time>
      </trkpt>
      <trkpt lat="39.6899540" lon="-0.4154990">
        <ele>429.1</ele>
        <time>2019-10-19T10:40:12Z</time>
      </trkpt>
      <trkpt lat="39.6899450" lon="-0.4154400">
        <ele>429.4</ele>
        <time>2019-10-19T10:40:12Z</time>
      </trkpt>
      <trkpt lat="39.6899330" lon="-0.4153720">
        <ele>429.9</ele>
        <time>2019-10-19T10:40:12Z</time>
      </trkpt>
      <trkpt lat="39.6899190" lon="-0.4152960">
        <ele>430.4</ele>
        <time>2019-10-19T10:40:12Z</time>
      </trkpt>
      <trkpt lat="39.6898970" lon="-0.4152190">
        <ele>430.9</ele>
        <time>2019-10-19T10:40:12Z</time>
      </trkpt>
      <trkpt lat="39.6898740" lon="-0.4151470">
        <ele>431.3</ele>
        <time>2019-10-19T10:40:12Z</time>
      </trkpt>
      <trkpt lat="39.6898610" lon="-0.4150750">
        <ele>431.7</ele>
        <time>2019-10-19T10:40:12Z</time>
      </trkpt>
      <trkpt lat="39.6898460" lon="-0.4150040">
        <ele>432.1</ele>
        <time>2019-10-19T10:40:12Z</time>
      </trkpt>
      <trkpt lat="39.6898090" lon="-0.4147460">
        <ele>433.3</ele>
        <time>2019-10-19T10:40:12Z</time>
      </trkpt>
      <trkpt lat="39.6897910" lon="-0.4146290">
        <ele>433.7</ele>
        <time>2019-10-19T10:40:12Z</time>
      </trkpt>
      <trkpt lat="39.6897470" lon="-0.4144330">
        <ele>434.4</ele>
        <time>2019-10-19T10:40:12Z</time>
      </trkpt>
      <trkpt lat="39.6897330" lon="-0.4143870">
        <ele>434.5</ele>
        <time>2019-10-19T10:40:12Z</time>
      </trkpt>
      <trkpt lat="39.6897210" lon="-0.4143400">
        <ele>434.7</ele>
        <time>2019-10-19T10:40:12Z</time>
      </trkpt>
      <trkpt lat="39.6897110" lon="-0.4142850">
        <ele>435.0</ele>
        <time>2019-10-19T10:40:12Z</time>
      </trkpt>
      <trkpt lat="39.6897090" lon="-0.4142290">
        <ele>435.4</ele>
        <time>2019-10-19T10:40:12Z</time>
      </trkpt>
      <trkpt lat="39.6897200" lon="-0.4141830">
        <ele>435.7</ele>
        <time>2019-10-19T10:40:12Z</time>
      </trkpt>
      <trkpt lat="39.6898140" lon="-0.4141390">
        <ele>436.3</ele>
        <time>2019-10-19T10:40:12Z</time>
      </trkpt>
      <trkpt lat="39.6901720" lon="-0.4143010">
        <ele>438.4</ele>
        <time>2019-10-19T10:40:12Z</time>
      </trkpt>
      <trkpt lat="39.6902290" lon="-0.4143220">
        <ele>438.8</ele>
        <time>2019-10-19T10:40:12Z</time>
      </trkpt>
      <trkpt lat="39.6902870" lon="-0.4143420">
        <ele>439.2</ele>
        <time>2019-10-19T10:40:12Z</time>
      </trkpt>
      <trkpt lat="39.6903500" lon="-0.4143540">
        <ele>439.7</ele>
        <time>2019-10-19T10:40:12Z</time>
      </trkpt>
      <trkpt lat="39.6904090" lon="-0.4143480">
        <ele>440.1</ele>
        <time>2019-10-19T10:40:12Z</time>
      </trkpt>
      <trkpt lat="39.6904670" lon="-0.4143180">
        <ele>440.7</ele>
        <time>2019-10-19T10:40:12Z</time>
      </trkpt>
      <trkpt lat="39.6905220" lon="-0.4142760">
        <ele>441.3</ele>
        <time>2019-10-19T10:40:12Z</time>
      </trkpt>
      <trkpt lat="39.6905770" lon="-0.4142260">
        <ele>442.0</ele>
        <time>2019-10-19T10:40:12Z</time>
      </trkpt>
      <trkpt lat="39.6906360" lon="-0.4141730">
        <ele>442.6</ele>
        <time>2019-10-19T10:40:12Z</time>
      </trkpt>
      <trkpt lat="39.6906890" lon="-0.4141130">
        <ele>443.3</ele>
        <time>2019-10-19T10:40:12Z</time>
      </trkpt>
      <trkpt lat="39.6907470" lon="-0.4140470">
        <ele>444.0</ele>
        <time>2019-10-19T10:40:12Z</time>
      </trkpt>
      <trkpt lat="39.6907990" lon="-0.4139870">
        <ele>444.6</ele>
        <time>2019-10-19T10:40:12Z</time>
      </trkpt>
      <trkpt lat="39.6908480" lon="-0.4139290">
        <ele>445.2</ele>
        <time>2019-10-19T10:40:12Z</time>
      </trkpt>
      <trkpt lat="39.6908950" lon="-0.4138740">
        <ele>445.8</ele>
        <time>2019-10-19T10:40:12Z</time>
      </trkpt>
      <trkpt lat="39.6909410" lon="-0.4138130">
        <ele>446.6</ele>
        <time>2019-10-19T10:40:12Z</time>
      </trkpt>
      <trkpt lat="39.6909900" lon="-0.4137510">
        <ele>447.4</ele>
        <time>2019-10-19T10:40:12Z</time>
      </trkpt>
      <trkpt lat="39.6910390" lon="-0.4136860">
        <ele>448.3</ele>
        <time>2019-10-19T10:40:12Z</time>
      </trkpt>
      <trkpt lat="39.6910870" lon="-0.4136210">
        <ele>449.1</ele>
        <time>2019-10-19T10:40:12Z</time>
      </trkpt>
      <trkpt lat="39.6911340" lon="-0.4135580">
        <ele>449.8</ele>
        <time>2019-10-19T10:40:12Z</time>
      </trkpt>
      <trkpt lat="39.6911750" lon="-0.4134960">
        <ele>450.4</ele>
        <time>2019-10-19T10:40:12Z</time>
      </trkpt>
      <trkpt lat="39.6912190" lon="-0.4134320">
        <ele>451.1</ele>
        <time>2019-10-19T10:40:12Z</time>
      </trkpt>
      <trkpt lat="39.6912520" lon="-0.4133720">
        <ele>451.6</ele>
        <time>2019-10-19T10:40:12Z</time>
      </trkpt>
      <trkpt lat="39.6912840" lon="-0.4133190">
        <ele>452.2</ele>
        <time>2019-10-19T10:40:12Z</time>
      </trkpt>
      <trkpt lat="39.6913170" lon="-0.4132750">
        <ele>452.8</ele>
        <time>2019-10-19T10:40:12Z</time>
      </trkpt>
      <trkpt lat="39.6913450" lon="-0.4132150">
        <ele>453.4</ele>
        <time>2019-10-19T10:40:12Z</time>
      </trkpt>
      <trkpt lat="39.6913800" lon="-0.4131550">
        <ele>454.0</ele>
        <time>2019-10-19T10:40:12Z</time>
      </trkpt>
      <trkpt lat="39.6914120" lon="-0.4130980">
        <ele>454.5</ele>
        <time>2019-10-19T10:40:12Z</time>
      </trkpt>
      <trkpt lat="39.6914430" lon="-0.4130390">
        <ele>455.0</ele>
        <time>2019-10-19T10:40:12Z</time>
      </trkpt>
      <trkpt lat="39.6914690" lon="-0.4129710">
        <ele>455.6</ele>
        <time>2019-10-19T10:40:12Z</time>
      </trkpt>
      <trkpt lat="39.6914890" lon="-0.4128970">
        <ele>456.1</ele>
        <time>2019-10-19T10:40:12Z</time>
      </trkpt>
      <trkpt lat="39.6915090" lon="-0.4128280">
        <ele>456.5</ele>
        <time>2019-10-19T10:40:12Z</time>
      </trkpt>
      <trkpt lat="39.6915260" lon="-0.4127530">
        <ele>456.9</ele>
        <time>2019-10-19T10:40:12Z</time>
      </trkpt>
      <trkpt lat="39.6915450" lon="-0.4126600">
        <ele>457.2</ele>
        <time>2019-10-19T10:40:12Z</time>
      </trkpt>
      <trkpt lat="39.6915640" lon="-0.4125680">
        <ele>457.4</ele>
        <time>2019-10-19T10:40:12Z</time>
      </trkpt>
      <trkpt lat="39.6916150" lon="-0.4123820">
        <ele>458.0</ele>
        <time>2019-10-19T10:40:12Z</time>
      </trkpt>
      <trkpt lat="39.6916480" lon="-0.4122890">
        <ele>458.3</ele>
        <time>2019-10-19T10:40:12Z</time>
      </trkpt>
      <trkpt lat="39.6916750" lon="-0.4121970">
        <ele>458.6</ele>
        <time>2019-10-19T10:40:12Z</time>
      </trkpt>
      <trkpt lat="39.6916990" lon="-0.4121030">
        <ele>458.8</ele>
        <time>2019-10-19T10:40:12Z</time>
      </trkpt>
      <trkpt lat="39.6917250" lon="-0.4120040">
        <ele>459.0</ele>
        <time>2019-10-19T10:40:12Z</time>
      </trkpt>
      <trkpt lat="39.6917540" lon="-0.4119060">
        <ele>459.2</ele>
        <time>2019-10-19T10:40:12Z</time>
      </trkpt>
      <trkpt lat="39.6917870" lon="-0.4118140">
        <ele>459.4</ele>
        <time>2019-10-19T10:40:12Z</time>
      </trkpt>
      <trkpt lat="39.6918200" lon="-0.4117280">
        <ele>459.6</ele>
        <time>2019-10-19T10:40:12Z</time>
      </trkpt>
      <trkpt lat="39.6918540" lon="-0.4116460">
        <ele>459.9</ele>
        <time>2019-10-19T10:40:12Z</time>
      </trkpt>
      <trkpt lat="39.6918910" lon="-0.4115700">
        <ele>460.1</ele>
        <time>2019-10-19T10:40:12Z</time>
      </trkpt>
      <trkpt lat="39.6919810" lon="-0.4114550">
        <ele>460.4</ele>
        <time>2019-10-19T10:40:12Z</time>
      </trkpt>
      <trkpt lat="39.6920330" lon="-0.4114050">
        <ele>460.4</ele>
        <time>2019-10-19T10:40:12Z</time>
      </trkpt>
      <trkpt lat="39.6920820" lon="-0.4113600">
        <ele>460.5</ele>
        <time>2019-10-19T10:40:12Z</time>
      </trkpt>
      <trkpt lat="39.6921340" lon="-0.4113140">
        <ele>460.6</ele>
        <time>2019-10-19T10:40:12Z</time>
      </trkpt>
      <trkpt lat="39.6921880" lon="-0.4112690">
        <ele>460.7</ele>
        <time>2019-10-19T10:40:12Z</time>
      </trkpt>
      <trkpt lat="39.6922420" lon="-0.4112240">
        <ele>460.9</ele>
        <time>2019-10-19T10:40:12Z</time>
      </trkpt>
      <trkpt lat="39.6922990" lon="-0.4111790">
        <ele>461.2</ele>
        <time>2019-10-19T10:40:12Z</time>
      </trkpt>
      <trkpt lat="39.6923490" lon="-0.4111340">
        <ele>461.5</ele>
        <time>2019-10-19T10:40:12Z</time>
      </trkpt>
      <trkpt lat="39.6923960" lon="-0.4110810">
        <ele>462.2</ele>
        <time>2019-10-19T10:40:12Z</time>
      </trkpt>
      <trkpt lat="39.6924340" lon="-0.4110310">
        <ele>463.1</ele>
        <time>2019-10-19T10:40:12Z</time>
      </trkpt>
      <trkpt lat="39.6924650" lon="-0.4109800">
        <ele>464.1</ele>
        <time>2019-10-19T10:40:12Z</time>
      </trkpt>
      <trkpt lat="39.6924910" lon="-0.4109250">
        <ele>465.1</ele>
        <time>2019-10-19T10:40:12Z</time>
      </trkpt>
      <trkpt lat="39.6925180" lon="-0.4108710">
        <ele>466.0</ele>
        <time>2019-10-19T10:40:12Z</time>
      </trkpt>
      <trkpt lat="39.6925400" lon="-0.4108210">
        <ele>466.8</ele>
        <time>2019-10-19T10:40:12Z</time>
      </trkpt>
      <trkpt lat="39.6925780" lon="-0.4107160">
        <ele>468.2</ele>
        <time>2019-10-19T10:40:12Z</time>
      </trkpt>
      <trkpt lat="39.6925930" lon="-0.4106570">
        <ele>468.9</ele>
        <time>2019-10-19T10:40:12Z</time>
      </trkpt>
      <trkpt lat="39.6926060" lon="-0.4106020">
        <ele>469.5</ele>
        <time>2019-10-19T10:40:12Z</time>
      </trkpt>
      <trkpt lat="39.6926210" lon="-0.4105440">
        <ele>470.1</ele>
        <time>2019-10-19T10:40:12Z</time>
      </trkpt>
      <trkpt lat="39.6926360" lon="-0.4104860">
        <ele>470.8</ele>
        <time>2019-10-19T10:40:12Z</time>
      </trkpt>
      <trkpt lat="39.6926460" lon="-0.4104280">
        <ele>471.4</ele>
        <time>2019-10-19T10:40:12Z</time>
      </trkpt>
      <trkpt lat="39.6926530" lon="-0.4103700">
        <ele>471.9</ele>
        <time>2019-10-19T10:40:12Z</time>
      </trkpt>
      <trkpt lat="39.6926640" lon="-0.4103080">
        <ele>472.6</ele>
        <time>2019-10-19T10:40:12Z</time>
      </trkpt>
      <trkpt lat="39.6926860" lon="-0.4101730">
        <ele>473.9</ele>
        <time>2019-10-19T10:40:12Z</time>
      </trkpt>
      <trkpt lat="39.6926980" lon="-0.4101090">
        <ele>474.6</ele>
        <time>2019-10-19T10:40:12Z</time>
      </trkpt>
      <trkpt lat="39.6927020" lon="-0.4100490">
        <ele>475.3</ele>
        <time>2019-10-19T10:40:12Z</time>
      </trkpt>
      <trkpt lat="39.6927060" lon="-0.4099950">
        <ele>475.9</ele>
        <time>2019-10-19T10:40:12Z</time>
      </trkpt>
      <trkpt lat="39.6926970" lon="-0.4099380">
        <ele>476.5</ele>
        <time>2019-10-19T10:40:12Z</time>
      </trkpt>
      <trkpt lat="39.6926890" lon="-0.4098780">
        <ele>477.1</ele>
        <time>2019-10-19T10:40:12Z</time>
      </trkpt>
      <trkpt lat="39.6926810" lon="-0.4098140">
        <ele>477.7</ele>
        <time>2019-10-19T10:40:12Z</time>
      </trkpt>
      <trkpt lat="39.6926420" lon="-0.4095450">
        <ele>480.0</ele>
        <time>2019-10-19T10:40:12Z</time>
      </trkpt>
      <trkpt lat="39.6926320" lon="-0.4094440">
        <ele>480.4</ele>
        <time>2019-10-19T10:40:12Z</time>
      </trkpt>
      <trkpt lat="39.6926200" lon="-0.4093460">
        <ele>480.8</ele>
        <time>2019-10-19T10:40:12Z</time>
      </trkpt>
      <trkpt lat="39.6926070" lon="-0.4092450">
        <ele>481.1</ele>
        <time>2019-10-19T10:40:12Z</time>
      </trkpt>
      <trkpt lat="39.6925990" lon="-0.4091440">
        <ele>481.3</ele>
        <time>2019-10-19T10:40:12Z</time>
      </trkpt>
      <trkpt lat="39.6925950" lon="-0.4090420">
        <ele>481.3</ele>
        <time>2019-10-19T10:40:12Z</time>
      </trkpt>
      <trkpt lat="39.6925990" lon="-0.4089360">
        <ele>481.4</ele>
        <time>2019-10-19T10:40:12Z</time>
      </trkpt>
      <trkpt lat="39.6926090" lon="-0.4088350">
        <ele>481.4</ele>
        <time>2019-10-19T10:40:12Z</time>
      </trkpt>
      <trkpt lat="39.6926240" lon="-0.4087300">
        <ele>481.5</ele>
        <time>2019-10-19T10:40:12Z</time>
      </trkpt>
      <trkpt lat="39.6926440" lon="-0.4086260">
        <ele>481.8</ele>
        <time>2019-10-19T10:40:12Z</time>
      </trkpt>
      <trkpt lat="39.6926580" lon="-0.4085330">
        <ele>482.0</ele>
        <time>2019-10-19T10:40:12Z</time>
      </trkpt>
      <trkpt lat="39.6926620" lon="-0.4084410">
        <ele>482.3</ele>
        <time>2019-10-19T10:40:12Z</time>
      </trkpt>
      <trkpt lat="39.6926720" lon="-0.4083580">
        <ele>482.7</ele>
        <time>2019-10-19T10:40:12Z</time>
      </trkpt>
      <trkpt lat="39.6926920" lon="-0.4082140">
        <ele>483.8</ele>
        <time>2019-10-19T10:40:12Z</time>
      </trkpt>
      <trkpt lat="39.6927070" lon="-0.4081590">
        <ele>484.3</ele>
        <time>2019-10-19T10:40:12Z</time>
      </trkpt>
      <trkpt lat="39.6927390" lon="-0.4081200">
        <ele>484.8</ele>
        <time>2019-10-19T10:40:12Z</time>
      </trkpt>
      <trkpt lat="39.6927800" lon="-0.4080970">
        <ele>485.2</ele>
        <time>2019-10-19T10:40:12Z</time>
      </trkpt>
      <trkpt lat="39.6928170" lon="-0.4080970">
        <ele>485.6</ele>
        <time>2019-10-19T10:40:12Z</time>
      </trkpt>
      <trkpt lat="39.6928580" lon="-0.4081180">
        <ele>485.9</ele>
        <time>2019-10-19T10:40:12Z</time>
      </trkpt>
      <trkpt lat="39.6929060" lon="-0.4081530">
        <ele>486.4</ele>
        <time>2019-10-19T10:40:12Z</time>
      </trkpt>
      <trkpt lat="39.6929540" lon="-0.4081830">
        <ele>486.9</ele>
        <time>2019-10-19T10:40:12Z</time>
      </trkpt>
      <trkpt lat="39.6930040" lon="-0.4082130">
        <ele>487.5</ele>
        <time>2019-10-19T10:40:12Z</time>
      </trkpt>
      <trkpt lat="39.6930550" lon="-0.4082320">
        <ele>488.2</ele>
        <time>2019-10-19T10:40:12Z</time>
      </trkpt>
      <trkpt lat="39.6931040" lon="-0.4082430">
        <ele>488.8</ele>
        <time>2019-10-19T10:40:12Z</time>
      </trkpt>
      <trkpt lat="39.6931470" lon="-0.4082380">
        <ele>489.4</ele>
        <time>2019-10-19T10:40:12Z</time>
      </trkpt>
      <trkpt lat="39.6931880" lon="-0.4082230">
        <ele>489.9</ele>
        <time>2019-10-19T10:40:12Z</time>
      </trkpt>
      <trkpt lat="39.6932260" lon="-0.4082020">
        <ele>490.4</ele>
        <time>2019-10-19T10:40:12Z</time>
      </trkpt>
      <trkpt lat="39.6932580" lon="-0.4081740">
        <ele>490.9</ele>
        <time>2019-10-19T10:40:12Z</time>
      </trkpt>
      <trkpt lat="39.6932830" lon="-0.4081390">
        <ele>491.3</ele>
        <time>2019-10-19T10:40:12Z</time>
      </trkpt>
      <trkpt lat="39.6933070" lon="-0.4080940">
        <ele>491.7</ele>
        <time>2019-10-19T10:40:12Z</time>
      </trkpt>
      <trkpt lat="39.6933320" lon="-0.4080400">
        <ele>492.2</ele>
        <time>2019-10-19T10:40:12Z</time>
      </trkpt>
      <trkpt lat="39.6933600" lon="-0.4079820">
        <ele>492.6</ele>
        <time>2019-10-19T10:40:12Z</time>
      </trkpt>
      <trkpt lat="39.6933860" lon="-0.4079200">
        <ele>492.9</ele>
        <time>2019-10-19T10:40:12Z</time>
      </trkpt>
      <trkpt lat="39.6934170" lon="-0.4078580">
        <ele>493.3</ele>
        <time>2019-10-19T10:40:12Z</time>
      </trkpt>
      <trkpt lat="39.6934490" lon="-0.4077890">
        <ele>493.7</ele>
        <time>2019-10-19T10:40:12Z</time>
      </trkpt>
      <trkpt lat="39.6934790" lon="-0.4077210">
        <ele>494.2</ele>
        <time>2019-10-19T10:40:12Z</time>
      </trkpt>
      <trkpt lat="39.6935060" lon="-0.4076560">
        <ele>494.7</ele>
        <time>2019-10-19T10:40:12Z</time>
      </trkpt>
      <trkpt lat="39.6935320" lon="-0.4075930">
        <ele>495.3</ele>
        <time>2019-10-19T10:40:12Z</time>
      </trkpt>
      <trkpt lat="39.6935540" lon="-0.4075290">
        <ele>495.9</ele>
        <time>2019-10-19T10:40:12Z</time>
      </trkpt>
      <trkpt lat="39.6935720" lon="-0.4074630">
        <ele>496.4</ele>
        <time>2019-10-19T10:40:12Z</time>
      </trkpt>
      <trkpt lat="39.6935900" lon="-0.4073960">
        <ele>497.0</ele>
        <time>2019-10-19T10:40:12Z</time>
      </trkpt>
      <trkpt lat="39.6936090" lon="-0.4073240">
        <ele>497.6</ele>
        <time>2019-10-19T10:40:12Z</time>
      </trkpt>
      <trkpt lat="39.6936270" lon="-0.4072490">
        <ele>498.2</ele>
        <time>2019-10-19T10:40:12Z</time>
      </trkpt>
      <trkpt lat="39.6936440" lon="-0.4071780">
        <ele>498.7</ele>
        <time>2019-10-19T10:40:12Z</time>
      </trkpt>
      <trkpt lat="39.6936660" lon="-0.4071020">
        <ele>499.3</ele>
        <time>2019-10-19T10:40:12Z</time>
      </trkpt>
      <trkpt lat="39.6936930" lon="-0.4070290">
        <ele>499.8</ele>
        <time>2019-10-19T10:40:12Z</time>
      </trkpt>
      <trkpt lat="39.6937190" lon="-0.4069550">
        <ele>500.3</ele>
        <time>2019-10-19T10:40:12Z</time>
      </trkpt>
      <trkpt lat="39.6937410" lon="-0.4068780">
        <ele>500.8</ele>
        <time>2019-10-19T10:40:12Z</time>
      </trkpt>
      <trkpt lat="39.6937630" lon="-0.4067970">
        <ele>501.5</ele>
        <time>2019-10-19T10:40:12Z</time>
      </trkpt>
      <trkpt lat="39.6937840" lon="-0.4067240">
        <ele>502.1</ele>
        <time>2019-10-19T10:40:12Z</time>
      </trkpt>
      <trkpt lat="39.6938110" lon="-0.4066520">
        <ele>502.9</ele>
        <time>2019-10-19T10:40:12Z</time>
      </trkpt>
      <trkpt lat="39.6938440" lon="-0.4065810">
        <ele>503.7</ele>
        <time>2019-10-19T10:40:12Z</time>
      </trkpt>
      <trkpt lat="39.6938750" lon="-0.4065090">
        <ele>504.4</ele>
        <time>2019-10-19T10:40:12Z</time>
      </trkpt>
      <trkpt lat="39.6939000" lon="-0.4064420">
        <ele>505.0</ele>
        <time>2019-10-19T10:40:12Z</time>
      </trkpt>
      <trkpt lat="39.6939240" lon="-0.4063930">
        <ele>505.5</ele>
        <time>2019-10-19T10:40:12Z</time>
      </trkpt>
      <trkpt lat="39.6939490" lon="-0.4063560">
        <ele>505.8</ele>
        <time>2019-10-19T10:40:12Z</time>
      </trkpt>
      <trkpt lat="39.6939800" lon="-0.4063370">
        <ele>506.2</ele>
        <time>2019-10-19T10:40:12Z</time>
      </trkpt>
      <trkpt lat="39.6940090" lon="-0.4063260">
        <ele>506.4</ele>
        <time>2019-10-19T10:40:12Z</time>
      </trkpt>
      <trkpt lat="39.6940500" lon="-0.4063230">
        <ele>506.8</ele>
        <time>2019-10-19T10:40:12Z</time>
      </trkpt>
      <trkpt lat="39.6940920" lon="-0.4063320">
        <ele>507.2</ele>
        <time>2019-10-19T10:40:12Z</time>
      </trkpt>
      <trkpt lat="39.6941350" lon="-0.4063470">
        <ele>507.8</ele>
        <time>2019-10-19T10:40:12Z</time>
      </trkpt>
      <trkpt lat="39.6941830" lon="-0.4063630">
        <ele>508.3</ele>
        <time>2019-10-19T10:40:12Z</time>
      </trkpt>
      <trkpt lat="39.6942810" lon="-0.4063830">
        <ele>509.5</ele>
        <time>2019-10-19T10:40:12Z</time>
      </trkpt>
      <trkpt lat="39.6943220" lon="-0.4063720">
        <ele>510.0</ele>
        <time>2019-10-19T10:40:12Z</time>
      </trkpt>
      <trkpt lat="39.6943600" lon="-0.4063460">
        <ele>510.5</ele>
        <time>2019-10-19T10:40:12Z</time>
      </trkpt>
      <trkpt lat="39.6944020" lon="-0.4063040">
        <ele>511.1</ele>
        <time>2019-10-19T10:40:12Z</time>
      </trkpt>
      <trkpt lat="39.6944480" lon="-0.4062490">
        <ele>511.7</ele>
        <time>2019-10-19T10:40:12Z</time>
      </trkpt>
      <trkpt lat="39.6944890" lon="-0.4061800">
        <ele>512.3</ele>
        <time>2019-10-19T10:40:12Z</time>
      </trkpt>
      <trkpt lat="39.6945250" lon="-0.4061080">
        <ele>512.8</ele>
        <time>2019-10-19T10:40:12Z</time>
      </trkpt>
      <trkpt lat="39.6945540" lon="-0.4060390">
        <ele>513.3</ele>
        <time>2019-10-19T10:40:12Z</time>
      </trkpt>
      <trkpt lat="39.6945780" lon="-0.4059640">
        <ele>513.8</ele>
        <time>2019-10-19T10:40:12Z</time>
      </trkpt>
      <trkpt lat="39.6946020" lon="-0.4058970">
        <ele>514.2</ele>
        <time>2019-10-19T10:40:12Z</time>
      </trkpt>
      <trkpt lat="39.6946260" lon="-0.4058320">
        <ele>514.6</ele>
        <time>2019-10-19T10:40:12Z</time>
      </trkpt>
      <trkpt lat="39.6946880" lon="-0.4055920">
        <ele>515.7</ele>
        <time>2019-10-19T10:40:12Z</time>
      </trkpt>
      <trkpt lat="39.6946890" lon="-0.4055280">
        <ele>516.0</ele>
        <time>2019-10-19T10:40:12Z</time>
      </trkpt>
      <trkpt lat="39.6946200" lon="-0.4052980">
        <ele>516.6</ele>
        <time>2019-10-19T10:40:12Z</time>
      </trkpt>
      <trkpt lat="39.6945080" lon="-0.4048480">
        <ele>517.5</ele>
        <time>2019-10-19T10:40:12Z</time>
      </trkpt>
      <trkpt lat="39.6944960" lon="-0.4047830">
        <ele>517.7</ele>
        <time>2019-10-19T10:40:12Z</time>
      </trkpt>
      <trkpt lat="39.6944420" lon="-0.4046280">
        <ele>518.1</ele>
        <time>2019-10-19T10:40:12Z</time>
      </trkpt>
      <trkpt lat="39.6943940" lon="-0.4044900">
        <ele>518.3</ele>
        <time>2019-10-19T10:40:12Z</time>
      </trkpt>
      <trkpt lat="39.6944570" lon="-0.4043230">
        <ele>518.3</ele>
        <time>2019-10-19T10:40:12Z</time>
      </trkpt>
      <trkpt lat="39.6945140" lon="-0.4042900">
        <ele>518.1</ele>
        <time>2019-10-19T10:40:12Z</time>
      </trkpt>
      <trkpt lat="39.6945430" lon="-0.4042920">
        <ele>518.0</ele>
        <time>2019-10-19T10:40:12Z</time>
      </trkpt>
      <trkpt lat="39.6946860" lon="-0.4043460">
        <ele>517.3</ele>
        <time>2019-10-19T10:40:12Z</time>
      </trkpt>
      <trkpt lat="39.6948030" lon="-0.4044030">
        <ele>516.7</ele>
        <time>2019-10-19T10:40:12Z</time>
      </trkpt>
      <trkpt lat="39.6948990" lon="-0.4044410">
        <ele>516.4</ele>
        <time>2019-10-19T10:40:12Z</time>
      </trkpt>
      <trkpt lat="39.6949990" lon="-0.4044640">
        <ele>516.3</ele>
        <time>2019-10-19T10:40:12Z</time>
      </trkpt>
      <trkpt lat="39.6950440" lon="-0.4044700">
        <ele>516.3</ele>
        <time>2019-10-19T10:40:12Z</time>
      </trkpt>
      <trkpt lat="39.6951300" lon="-0.4044690">
        <ele>516.4</ele>
        <time>2019-10-19T10:40:12Z</time>
      </trkpt>
      <trkpt lat="39.6952910" lon="-0.4043560">
        <ele>516.9</ele>
        <time>2019-10-19T10:40:12Z</time>
      </trkpt>
      <trkpt lat="39.6954100" lon="-0.4040650">
        <ele>517.5</ele>
        <time>2019-10-19T10:40:12Z</time>
      </trkpt>
      <trkpt lat="39.6954730" lon="-0.4038710">
        <ele>517.8</ele>
        <time>2019-10-19T10:40:12Z</time>
      </trkpt>
      <trkpt lat="39.6954820" lon="-0.4037400">
        <ele>517.8</ele>
        <time>2019-10-19T10:40:12Z</time>
      </trkpt>
      <trkpt lat="39.6954810" lon="-0.4036040">
        <ele>517.8</ele>
        <time>2019-10-19T10:40:12Z</time>
      </trkpt>
      <trkpt lat="39.6954670" lon="-0.4034790">
        <ele>517.6</ele>
        <time>2019-10-19T10:40:12Z</time>
      </trkpt>
      <trkpt lat="39.6954640" lon="-0.4034370">
        <ele>517.6</ele>
        <time>2019-10-19T10:40:12Z</time>
      </trkpt>
      <trkpt lat="39.6954710" lon="-0.4033920">
        <ele>517.5</ele>
        <time>2019-10-19T10:40:12Z</time>
      </trkpt>
      <trkpt lat="39.6954890" lon="-0.4033500">
        <ele>517.4</ele>
        <time>2019-10-19T10:40:12Z</time>
      </trkpt>
      <trkpt lat="39.6955130" lon="-0.4033180">
        <ele>517.3</ele>
        <time>2019-10-19T10:40:12Z</time>
      </trkpt>
      <trkpt lat="39.6955380" lon="-0.4032920">
        <ele>517.2</ele>
        <time>2019-10-19T10:40:12Z</time>
      </trkpt>
      <trkpt lat="39.6956550" lon="-0.4032170">
        <ele>516.7</ele>
        <time>2019-10-19T10:40:12Z</time>
      </trkpt>
      <trkpt lat="39.6956870" lon="-0.4032030">
        <ele>516.6</ele>
        <time>2019-10-19T10:40:12Z</time>
      </trkpt>
      <trkpt lat="39.6957230" lon="-0.4031820">
        <ele>516.5</ele>
        <time>2019-10-19T10:40:12Z</time>
      </trkpt>
      <trkpt lat="39.6957580" lon="-0.4031560">
        <ele>516.3</ele>
        <time>2019-10-19T10:40:12Z</time>
      </trkpt>
      <trkpt lat="39.6957920" lon="-0.4031260">
        <ele>516.2</ele>
        <time>2019-10-19T10:40:12Z</time>
      </trkpt>
      <trkpt lat="39.6958550" lon="-0.4030540">
        <ele>516.1</ele>
        <time>2019-10-19T10:40:12Z</time>
      </trkpt>
      <trkpt lat="39.6958830" lon="-0.4030070">
        <ele>516.0</ele>
        <time>2019-10-19T10:40:12Z</time>
      </trkpt>
      <trkpt lat="39.6959330" lon="-0.4029020">
        <ele>515.9</ele>
        <time>2019-10-19T10:40:12Z</time>
      </trkpt>
      <trkpt lat="39.6959820" lon="-0.4027260">
        <ele>515.8</ele>
        <time>2019-10-19T10:40:12Z</time>
      </trkpt>
      <trkpt lat="39.6960130" lon="-0.4026050">
        <ele>515.7</ele>
        <time>2019-10-19T10:40:12Z</time>
      </trkpt>
      <trkpt lat="39.6960340" lon="-0.4024170">
        <ele>515.6</ele>
        <time>2019-10-19T10:40:12Z</time>
      </trkpt>
      <trkpt lat="39.6960580" lon="-0.4021540">
        <ele>515.5</ele>
        <time>2019-10-19T10:40:12Z</time>
      </trkpt>
      <trkpt lat="39.6960810" lon="-0.4020890">
        <ele>515.6</ele>
        <time>2019-10-19T10:40:12Z</time>
      </trkpt>
      <trkpt lat="39.6961110" lon="-0.4020240">
        <ele>515.7</ele>
        <time>2019-10-19T10:40:12Z</time>
      </trkpt>
      <trkpt lat="39.6961470" lon="-0.4019620">
        <ele>515.9</ele>
        <time>2019-10-19T10:40:12Z</time>
      </trkpt>
      <trkpt lat="39.6962160" lon="-0.4018510">
        <ele>516.4</ele>
        <time>2019-10-19T10:40:12Z</time>
      </trkpt>
      <trkpt lat="39.6962450" lon="-0.4017980">
        <ele>516.6</ele>
        <time>2019-10-19T10:40:12Z</time>
      </trkpt>
      <trkpt lat="39.6962720" lon="-0.4016690">
        <ele>517.2</ele>
        <time>2019-10-19T10:40:12Z</time>
      </trkpt>
      <trkpt lat="39.6962790" lon="-0.4016050">
        <ele>517.5</ele>
        <time>2019-10-19T10:40:12Z</time>
      </trkpt>
      <trkpt lat="39.6962800" lon="-0.4015390">
        <ele>517.7</ele>
        <time>2019-10-19T10:40:12Z</time>
      </trkpt>
      <trkpt lat="39.6962800" lon="-0.4014750">
        <ele>517.9</ele>
        <time>2019-10-19T10:40:12Z</time>
      </trkpt>
      <trkpt lat="39.6962800" lon="-0.4014100">
        <ele>518.1</ele>
        <time>2019-10-19T10:40:12Z</time>
      </trkpt>
      <trkpt lat="39.6962750" lon="-0.4013490">
        <ele>518.3</ele>
        <time>2019-10-19T10:40:12Z</time>
      </trkpt>
      <trkpt lat="39.6962610" lon="-0.4012310">
        <ele>518.6</ele>
        <time>2019-10-19T10:40:12Z</time>
      </trkpt>
      <trkpt lat="39.6962470" lon="-0.4011700">
        <ele>518.8</ele>
        <time>2019-10-19T10:40:12Z</time>
      </trkpt>
      <trkpt lat="39.6962410" lon="-0.4009890">
        <ele>519.2</ele>
        <time>2019-10-19T10:40:12Z</time>
      </trkpt>
      <trkpt lat="39.6962570" lon="-0.4009270">
        <ele>519.4</ele>
        <time>2019-10-19T10:40:12Z</time>
      </trkpt>
      <trkpt lat="39.6963250" lon="-0.4007720">
        <ele>519.9</ele>
        <time>2019-10-19T10:40:12Z</time>
      </trkpt>
      <trkpt lat="39.6964370" lon="-0.4004600">
        <ele>520.7</ele>
        <time>2019-10-19T10:40:12Z</time>
      </trkpt>
      <trkpt lat="39.6964460" lon="-0.4004190">
        <ele>520.7</ele>
        <time>2019-10-19T10:40:12Z</time>
      </trkpt>
      <trkpt lat="39.6964780" lon="-0.4002470">
        <ele>520.6</ele>
        <time>2019-10-19T10:40:12Z</time>
      </trkpt>
      <trkpt lat="39.6964910" lon="-0.4002040">
        <ele>520.6</ele>
        <time>2019-10-19T10:40:12Z</time>
      </trkpt>
      <trkpt lat="39.6965580" lon="-0.4000510">
        <ele>520.3</ele>
        <time>2019-10-19T10:40:12Z</time>
      </trkpt>
      <trkpt lat="39.6965990" lon="-0.3999860">
        <ele>520.2</ele>
        <time>2019-10-19T10:40:12Z</time>
      </trkpt>
      <trkpt lat="39.6966800" lon="-0.3998490">
        <ele>519.9</ele>
        <time>2019-10-19T10:40:12Z</time>
      </trkpt>
      <trkpt lat="39.6967010" lon="-0.3998070">
        <ele>519.8</ele>
        <time>2019-10-19T10:40:12Z</time>
      </trkpt>
      <trkpt lat="39.6967890" lon="-0.3996550">
        <ele>519.4</ele>
        <time>2019-10-19T10:40:12Z</time>
      </trkpt>
      <trkpt lat="39.6968770" lon="-0.3994670">
        <ele>519.0</ele>
        <time>2019-10-19T10:40:12Z</time>
      </trkpt>
      <trkpt lat="39.6968950" lon="-0.3994280">
        <ele>518.9</ele>
        <time>2019-10-19T10:40:12Z</time>
      </trkpt>
      <trkpt lat="39.6969140" lon="-0.3993900">
        <ele>518.9</ele>
        <time>2019-10-19T10:40:12Z</time>
      </trkpt>
      <trkpt lat="39.6969390" lon="-0.3993570">
        <ele>518.8</ele>
        <time>2019-10-19T10:40:12Z</time>
      </trkpt>
      <trkpt lat="39.6969720" lon="-0.3993360">
        <ele>518.8</ele>
        <time>2019-10-19T10:40:12Z</time>
      </trkpt>
      <trkpt lat="39.6970040" lon="-0.3993120">
        <ele>518.7</ele>
        <time>2019-10-19T10:40:12Z</time>
      </trkpt>
      <trkpt lat="39.6971750" lon="-0.3991620">
        <ele>518.6</ele>
        <time>2019-10-19T10:40:12Z</time>
      </trkpt>
      <trkpt lat="39.6972000" lon="-0.3991410">
        <ele>518.6</ele>
        <time>2019-10-19T10:40:12Z</time>
      </trkpt>
      <trkpt lat="39.6972840" lon="-0.3990630">
        <ele>518.6</ele>
        <time>2019-10-19T10:40:12Z</time>
      </trkpt>
      <trkpt lat="39.6973730" lon="-0.3988570">
        <ele>518.7</ele>
        <time>2019-10-19T10:40:12Z</time>
      </trkpt>
      <trkpt lat="39.6973820" lon="-0.3987610">
        <ele>518.8</ele>
        <time>2019-10-19T10:40:12Z</time>
      </trkpt>
      <trkpt lat="39.6973820" lon="-0.3987110">
        <ele>518.8</ele>
        <time>2019-10-19T10:40:12Z</time>
      </trkpt>
      <trkpt lat="39.6973840" lon="-0.3986590">
        <ele>518.9</ele>
        <time>2019-10-19T10:40:12Z</time>
      </trkpt>
      <trkpt lat="39.6973890" lon="-0.3986050">
        <ele>518.9</ele>
        <time>2019-10-19T10:40:12Z</time>
      </trkpt>
      <trkpt lat="39.6974000" lon="-0.3985500">
        <ele>519.0</ele>
        <time>2019-10-19T10:40:12Z</time>
      </trkpt>
      <trkpt lat="39.6974070" lon="-0.3984930">
        <ele>519.0</ele>
        <time>2019-10-19T10:40:12Z</time>
      </trkpt>
      <trkpt lat="39.6974080" lon="-0.3984370">
        <ele>519.1</ele>
        <time>2019-10-19T10:40:12Z</time>
      </trkpt>
      <trkpt lat="39.6974020" lon="-0.3983750">
        <ele>519.2</ele>
        <time>2019-10-19T10:40:12Z</time>
      </trkpt>
      <trkpt lat="39.6974180" lon="-0.3981950">
        <ele>519.5</ele>
        <time>2019-10-19T10:40:12Z</time>
      </trkpt>
      <trkpt lat="39.6974880" lon="-0.3980840">
        <ele>519.7</ele>
        <time>2019-10-19T10:40:12Z</time>
      </trkpt>
      <trkpt lat="39.6975240" lon="-0.3980800">
        <ele>519.8</ele>
        <time>2019-10-19T10:40:12Z</time>
      </trkpt>
      <trkpt lat="39.6975580" lon="-0.3981010">
        <ele>520.0</ele>
        <time>2019-10-19T10:40:12Z</time>
      </trkpt>
      <trkpt lat="39.6975870" lon="-0.3981440">
        <ele>520.1</ele>
        <time>2019-10-19T10:40:12Z</time>
      </trkpt>
      <trkpt lat="39.6976080" lon="-0.3981950">
        <ele>520.3</ele>
        <time>2019-10-19T10:40:12Z</time>
      </trkpt>
      <trkpt lat="39.6976710" lon="-0.3983120">
        <ele>520.7</ele>
        <time>2019-10-19T10:40:12Z</time>
      </trkpt>
      <trkpt lat="39.6978210" lon="-0.3983910">
        <ele>521.1</ele>
        <time>2019-10-19T10:40:12Z</time>
      </trkpt>
      <trkpt lat="39.6979800" lon="-0.3983690">
        <ele>521.3</ele>
        <time>2019-10-19T10:40:12Z</time>
      </trkpt>
      <trkpt lat="39.6980100" lon="-0.3983610">
        <ele>521.3</ele>
        <time>2019-10-19T10:40:12Z</time>
      </trkpt>
      <trkpt lat="39.6980560" lon="-0.3983520">
        <ele>521.3</ele>
        <time>2019-10-19T10:40:12Z</time>
      </trkpt>
      <trkpt lat="39.6980740" lon="-0.3983520">
        <ele>521.3</ele>
        <time>2019-10-19T10:40:12Z</time>
      </trkpt>
      <trkpt lat="39.6980930" lon="-0.3983560">
        <ele>521.3</ele>
        <time>2019-10-19T10:40:12Z</time>
      </trkpt>
      <trkpt lat="39.6980930" lon="-0.3983560">
        <ele>521.3</ele>
        <time>2019-10-19T10:40:12Z</time>
      </trkpt>
      <trkpt lat="39.6980920" lon="-0.3983570">
        <ele>521.3</ele>
        <time>2019-10-19T10:40:12Z</time>
      </trkpt>
      <trkpt lat="39.6980920" lon="-0.3983570">
        <ele>521.3</ele>
        <time>2019-10-19T10:40:12Z</time>
      </trkpt>
      <trkpt lat="39.6980920" lon="-0.3983570">
        <ele>521.3</ele>
        <time>2019-10-19T10:40:12Z</time>
      </trkpt>
      <trkpt lat="39.6981180" lon="-0.3983530">
        <ele>521.3</ele>
        <time>2019-10-19T10:40:12Z</time>
      </trkpt>
      <trkpt lat="39.6981700" lon="-0.3984110">
        <ele>521.3</ele>
        <time>2019-10-19T10:40:12Z</time>
      </trkpt>
      <trkpt lat="39.6981820" lon="-0.3984690">
        <ele>521.2</ele>
        <time>2019-10-19T10:40:12Z</time>
      </trkpt>
      <trkpt lat="39.6981860" lon="-0.3985520">
        <ele>521.0</ele>
        <time>2019-10-19T10:40:12Z</time>
      </trkpt>
      <trkpt lat="39.6981820" lon="-0.3986440">
        <ele>520.9</ele>
        <time>2019-10-19T10:40:12Z</time>
      </trkpt>
      <trkpt lat="39.6981690" lon="-0.3987360">
        <ele>520.8</ele>
        <time>2019-10-19T10:40:12Z</time>
      </trkpt>
      <trkpt lat="39.6981070" lon="-0.3994520">
        <ele>520.8</ele>
        <time>2019-10-19T10:40:12Z</time>
      </trkpt>
      <trkpt lat="39.6981260" lon="-0.4000850">
        <ele>521.6</ele>
        <time>2019-10-19T10:40:12Z</time>
      </trkpt>
      <trkpt lat="39.6982000" lon="-0.4005010">
        <ele>522.2</ele>
        <time>2019-10-19T10:40:12Z</time>
      </trkpt>
      <trkpt lat="39.6983230" lon="-0.4008040">
        <ele>522.5</ele>
        <time>2019-10-19T10:40:12Z</time>
      </trkpt>
      <trkpt lat="39.6983450" lon="-0.4009300">
        <ele>522.7</ele>
        <time>2019-10-19T10:40:12Z</time>
      </trkpt>
      <trkpt lat="39.6983450" lon="-0.4010510">
        <ele>522.8</ele>
        <time>2019-10-19T10:40:12Z</time>
      </trkpt>
      <trkpt lat="39.6983250" lon="-0.4011700">
        <ele>523.0</ele>
        <time>2019-10-19T10:40:12Z</time>
      </trkpt>
      <trkpt lat="39.6983020" lon="-0.4012920">
        <ele>523.2</ele>
        <time>2019-10-19T10:40:12Z</time>
      </trkpt>
      <trkpt lat="39.6982350" lon="-0.4017980">
        <ele>524.3</ele>
        <time>2019-10-19T10:40:12Z</time>
      </trkpt>
      <trkpt lat="39.6982250" lon="-0.4019210">
        <ele>524.7</ele>
        <time>2019-10-19T10:40:12Z</time>
      </trkpt>
      <trkpt lat="39.6982200" lon="-0.4021640">
        <ele>525.4</ele>
        <time>2019-10-19T10:40:12Z</time>
      </trkpt>
      <trkpt lat="39.6982310" lon="-0.4022840">
        <ele>525.7</ele>
        <time>2019-10-19T10:40:12Z</time>
      </trkpt>
      <trkpt lat="39.6982540" lon="-0.4024010">
        <ele>526.0</ele>
        <time>2019-10-19T10:40:12Z</time>
      </trkpt>
      <trkpt lat="39.6982840" lon="-0.4025140">
        <ele>526.4</ele>
        <time>2019-10-19T10:40:12Z</time>
      </trkpt>
      <trkpt lat="39.6983160" lon="-0.4026260">
        <ele>526.7</ele>
        <time>2019-10-19T10:40:12Z</time>
      </trkpt>
      <trkpt lat="39.6983480" lon="-0.4027420">
        <ele>527.1</ele>
        <time>2019-10-19T10:40:12Z</time>
      </trkpt>
      <trkpt lat="39.6983760" lon="-0.4028520">
        <ele>527.4</ele>
        <time>2019-10-19T10:40:12Z</time>
      </trkpt>
      <trkpt lat="39.6984010" lon="-0.4029610">
        <ele>527.8</ele>
        <time>2019-10-19T10:40:12Z</time>
      </trkpt>
      <trkpt lat="39.6984230" lon="-0.4030680">
        <ele>528.2</ele>
        <time>2019-10-19T10:40:12Z</time>
      </trkpt>
      <trkpt lat="39.6984430" lon="-0.4031700">
        <ele>528.5</ele>
        <time>2019-10-19T10:40:12Z</time>
      </trkpt>
      <trkpt lat="39.6984630" lon="-0.4032650">
        <ele>528.9</ele>
        <time>2019-10-19T10:40:12Z</time>
      </trkpt>
      <trkpt lat="39.6984830" lon="-0.4033600">
        <ele>529.3</ele>
        <time>2019-10-19T10:40:12Z</time>
      </trkpt>
      <trkpt lat="39.6985070" lon="-0.4034600">
        <ele>529.7</ele>
        <time>2019-10-19T10:40:12Z</time>
      </trkpt>
      <trkpt lat="39.6986330" lon="-0.4036890">
        <ele>530.9</ele>
        <time>2019-10-19T10:40:12Z</time>
      </trkpt>
      <trkpt lat="39.6986960" lon="-0.4037240">
        <ele>531.2</ele>
        <time>2019-10-19T10:40:12Z</time>
      </trkpt>
      <trkpt lat="39.6987690" lon="-0.4037280">
        <ele>531.5</ele>
        <time>2019-10-19T10:40:12Z</time>
      </trkpt>
      <trkpt lat="39.6988450" lon="-0.4037070">
        <ele>531.8</ele>
        <time>2019-10-19T10:40:12Z</time>
      </trkpt>
      <trkpt lat="39.6989210" lon="-0.4036750">
        <ele>532.1</ele>
        <time>2019-10-19T10:40:12Z</time>
      </trkpt>
      <trkpt lat="39.6989990" lon="-0.4036320">
        <ele>532.5</ele>
        <time>2019-10-19T10:40:12Z</time>
      </trkpt>
      <trkpt lat="39.6991470" lon="-0.4035340">
        <ele>533.2</ele>
        <time>2019-10-19T10:40:12Z</time>
      </trkpt>
      <trkpt lat="39.6992910" lon="-0.4034180">
        <ele>533.9</ele>
        <time>2019-10-19T10:40:12Z</time>
      </trkpt>
      <trkpt lat="39.6993570" lon="-0.4033520">
        <ele>534.3</ele>
        <time>2019-10-19T10:40:12Z</time>
      </trkpt>
      <trkpt lat="39.6994140" lon="-0.4032780">
        <ele>534.7</ele>
        <time>2019-10-19T10:40:12Z</time>
      </trkpt>
      <trkpt lat="39.6994670" lon="-0.4031890">
        <ele>535.1</ele>
        <time>2019-10-19T10:40:12Z</time>
      </trkpt>
      <trkpt lat="39.6995150" lon="-0.4031000">
        <ele>535.5</ele>
        <time>2019-10-19T10:40:12Z</time>
      </trkpt>
      <trkpt lat="39.6995710" lon="-0.4030160">
        <ele>535.9</ele>
        <time>2019-10-19T10:40:12Z</time>
      </trkpt>
      <trkpt lat="39.6996390" lon="-0.4029460">
        <ele>536.3</ele>
        <time>2019-10-19T10:40:12Z</time>
      </trkpt>
      <trkpt lat="39.6997160" lon="-0.4028970">
        <ele>536.8</ele>
        <time>2019-10-19T10:40:12Z</time>
      </trkpt>
      <trkpt lat="39.6998010" lon="-0.4028700">
        <ele>537.2</ele>
        <time>2019-10-19T10:40:12Z</time>
      </trkpt>
      <trkpt lat="39.6998890" lon="-0.4028700">
        <ele>537.6</ele>
        <time>2019-10-19T10:40:12Z</time>
      </trkpt>
      <trkpt lat="39.6999740" lon="-0.4029010">
        <ele>538.1</ele>
        <time>2019-10-19T10:40:12Z</time>
      </trkpt>
      <trkpt lat="39.7000480" lon="-0.4029630">
        <ele>538.5</ele>
        <time>2019-10-19T10:40:12Z</time>
      </trkpt>
      <trkpt lat="39.7001080" lon="-0.4030410">
        <ele>539.0</ele>
        <time>2019-10-19T10:40:12Z</time>
      </trkpt>
      <trkpt lat="39.7001660" lon="-0.4031260">
        <ele>539.4</ele>
        <time>2019-10-19T10:40:12Z</time>
      </trkpt>
      <trkpt lat="39.7002270" lon="-0.4032130">
        <ele>539.9</ele>
        <time>2019-10-19T10:40:12Z</time>
      </trkpt>
      <trkpt lat="39.7002910" lon="-0.4033020">
        <ele>540.4</ele>
        <time>2019-10-19T10:40:12Z</time>
      </trkpt>
      <trkpt lat="39.7003580" lon="-0.4033910">
        <ele>540.8</ele>
        <time>2019-10-19T10:40:12Z</time>
      </trkpt>
      <trkpt lat="39.7004240" lon="-0.4034880">
        <ele>541.3</ele>
        <time>2019-10-19T10:40:12Z</time>
      </trkpt>
      <trkpt lat="39.7004830" lon="-0.4036030">
        <ele>541.8</ele>
        <time>2019-10-19T10:40:12Z</time>
      </trkpt>
      <trkpt lat="39.7005520" lon="-0.4038540">
        <ele>542.8</ele>
        <time>2019-10-19T10:40:12Z</time>
      </trkpt>
      <trkpt lat="39.7005620" lon="-0.4039870">
        <ele>543.4</ele>
        <time>2019-10-19T10:40:12Z</time>
      </trkpt>
      <trkpt lat="39.7005580" lon="-0.4041210">
        <ele>543.9</ele>
        <time>2019-10-19T10:40:12Z</time>
      </trkpt>
      <trkpt lat="39.7005430" lon="-0.4042520">
        <ele>544.6</ele>
        <time>2019-10-19T10:40:12Z</time>
      </trkpt>
      <trkpt lat="39.7005240" lon="-0.4043800">
        <ele>545.2</ele>
        <time>2019-10-19T10:40:12Z</time>
      </trkpt>
      <trkpt lat="39.7005050" lon="-0.4045140">
        <ele>545.9</ele>
        <time>2019-10-19T10:40:12Z</time>
      </trkpt>
      <trkpt lat="39.7004870" lon="-0.4046380">
        <ele>546.6</ele>
        <time>2019-10-19T10:40:12Z</time>
      </trkpt>
      <trkpt lat="39.7004700" lon="-0.4047510">
        <ele>547.1</ele>
        <time>2019-10-19T10:40:12Z</time>
      </trkpt>
      <trkpt lat="39.7004540" lon="-0.4048550">
        <ele>547.7</ele>
        <time>2019-10-19T10:40:12Z</time>
      </trkpt>
      <trkpt lat="39.7004410" lon="-0.4049540">
        <ele>548.2</ele>
        <time>2019-10-19T10:40:12Z</time>
      </trkpt>
      <trkpt lat="39.7004270" lon="-0.4050530">
        <ele>548.7</ele>
        <time>2019-10-19T10:40:12Z</time>
      </trkpt>
      <trkpt lat="39.7004150" lon="-0.4051500">
        <ele>549.2</ele>
        <time>2019-10-19T10:40:12Z</time>
      </trkpt>
      <trkpt lat="39.7004040" lon="-0.4052450">
        <ele>549.6</ele>
        <time>2019-10-19T10:40:12Z</time>
      </trkpt>
      <trkpt lat="39.7003920" lon="-0.4053440">
        <ele>550.1</ele>
        <time>2019-10-19T10:40:12Z</time>
      </trkpt>
      <trkpt lat="39.7003800" lon="-0.4054350">
        <ele>550.4</ele>
        <time>2019-10-19T10:40:12Z</time>
      </trkpt>
      <trkpt lat="39.7003600" lon="-0.4056080">
        <ele>551.1</ele>
        <time>2019-10-19T10:40:12Z</time>
      </trkpt>
      <trkpt lat="39.7003370" lon="-0.4057750">
        <ele>551.7</ele>
        <time>2019-10-19T10:40:12Z</time>
      </trkpt>
      <trkpt lat="39.7002980" lon="-0.4060980">
        <ele>552.6</ele>
        <time>2019-10-19T10:40:12Z</time>
      </trkpt>
      <trkpt lat="39.7002740" lon="-0.4063250">
        <ele>553.2</ele>
        <time>2019-10-19T10:40:12Z</time>
      </trkpt>
      <trkpt lat="39.7002680" lon="-0.4064650">
        <ele>553.7</ele>
        <time>2019-10-19T10:40:12Z</time>
      </trkpt>
      <trkpt lat="39.7002770" lon="-0.4065850">
        <ele>554.0</ele>
        <time>2019-10-19T10:40:12Z</time>
      </trkpt>
      <trkpt lat="39.7003300" lon="-0.4067910">
        <ele>554.6</ele>
        <time>2019-10-19T10:40:12Z</time>
      </trkpt>
      <trkpt lat="39.7004490" lon="-0.4070880">
        <ele>554.5</ele>
        <time>2019-10-19T10:40:12Z</time>
      </trkpt>
      <trkpt lat="39.7005780" lon="-0.4073890">
        <ele>553.8</ele>
        <time>2019-10-19T10:40:12Z</time>
      </trkpt>
      <trkpt lat="39.7006840" lon="-0.4076540">
        <ele>553.2</ele>
        <time>2019-10-19T10:40:12Z</time>
      </trkpt>
      <trkpt lat="39.7007000" lon="-0.4076960">
        <ele>553.1</ele>
        <time>2019-10-19T10:40:12Z</time>
      </trkpt>
      <trkpt lat="39.7007160" lon="-0.4077350">
        <ele>553.0</ele>
        <time>2019-10-19T10:40:12Z</time>
      </trkpt>
      <trkpt lat="39.7007320" lon="-0.4077740">
        <ele>552.9</ele>
        <time>2019-10-19T10:40:12Z</time>
      </trkpt>
      <trkpt lat="39.7007480" lon="-0.4078150">
        <ele>552.8</ele>
        <time>2019-10-19T10:40:12Z</time>
      </trkpt>
      <trkpt lat="39.7008220" lon="-0.4079980">
        <ele>552.3</ele>
        <time>2019-10-19T10:40:12Z</time>
      </trkpt>
      <trkpt lat="39.7009280" lon="-0.4082640">
        <ele>551.4</ele>
        <time>2019-10-19T10:40:12Z</time>
      </trkpt>
      <trkpt lat="39.7009630" lon="-0.4083630">
        <ele>551.0</ele>
        <time>2019-10-19T10:40:12Z</time>
      </trkpt>
      <trkpt lat="39.7009760" lon="-0.4083960">
        <ele>550.8</ele>
        <time>2019-10-19T10:40:12Z</time>
      </trkpt>
      <trkpt lat="39.7009920" lon="-0.4084300">
        <ele>550.7</ele>
        <time>2019-10-19T10:40:12Z</time>
      </trkpt>
      <trkpt lat="39.7010050" lon="-0.4084650">
        <ele>550.6</ele>
        <time>2019-10-19T10:40:12Z</time>
      </trkpt>
      <trkpt lat="39.7010190" lon="-0.4084990">
        <ele>550.4</ele>
        <time>2019-10-19T10:40:12Z</time>
      </trkpt>
      <trkpt lat="39.7010990" lon="-0.4087120">
        <ele>549.5</ele>
        <time>2019-10-19T10:40:12Z</time>
      </trkpt>
      <trkpt lat="39.7011770" lon="-0.4088910">
        <ele>548.7</ele>
        <time>2019-10-19T10:40:12Z</time>
      </trkpt>
      <trkpt lat="39.7011910" lon="-0.4089250">
        <ele>548.5</ele>
        <time>2019-10-19T10:40:12Z</time>
      </trkpt>
      <trkpt lat="39.7012050" lon="-0.4089580">
        <ele>548.4</ele>
        <time>2019-10-19T10:40:12Z</time>
      </trkpt>
      <trkpt lat="39.7012200" lon="-0.4089930">
        <ele>548.2</ele>
        <time>2019-10-19T10:40:12Z</time>
      </trkpt>
      <trkpt lat="39.7012360" lon="-0.4090300">
        <ele>548.1</ele>
        <time>2019-10-19T10:40:12Z</time>
      </trkpt>
      <trkpt lat="39.7013150" lon="-0.4092260">
        <ele>547.3</ele>
        <time>2019-10-19T10:40:12Z</time>
      </trkpt>
      <trkpt lat="39.7014410" lon="-0.4095120">
        <ele>546.1</ele>
        <time>2019-10-19T10:40:12Z</time>
      </trkpt>
      <trkpt lat="39.7014610" lon="-0.4095490">
        <ele>546.0</ele>
        <time>2019-10-19T10:40:12Z</time>
      </trkpt>
      <trkpt lat="39.7014830" lon="-0.4095840">
        <ele>545.8</ele>
        <time>2019-10-19T10:40:12Z</time>
      </trkpt>
      <trkpt lat="39.7015070" lon="-0.4096200">
        <ele>545.6</ele>
        <time>2019-10-19T10:40:12Z</time>
      </trkpt>
      <trkpt lat="39.7015320" lon="-0.4096560">
        <ele>545.5</ele>
        <time>2019-10-19T10:40:12Z</time>
      </trkpt>
      <trkpt lat="39.7016050" lon="-0.4097580">
        <ele>545.0</ele>
        <time>2019-10-19T10:40:12Z</time>
      </trkpt>
      <trkpt lat="39.7016870" lon="-0.4098550">
        <ele>544.5</ele>
        <time>2019-10-19T10:40:12Z</time>
      </trkpt>
      <trkpt lat="39.7017160" lon="-0.4098910">
        <ele>544.3</ele>
        <time>2019-10-19T10:40:12Z</time>
      </trkpt>
      <trkpt lat="39.7017450" lon="-0.4099250">
        <ele>544.1</ele>
        <time>2019-10-19T10:40:12Z</time>
      </trkpt>
      <trkpt lat="39.7017740" lon="-0.4099590">
        <ele>543.9</ele>
        <time>2019-10-19T10:40:12Z</time>
      </trkpt>
      <trkpt lat="39.7018020" lon="-0.4099930">
        <ele>543.7</ele>
        <time>2019-10-19T10:40:12Z</time>
      </trkpt>
      <trkpt lat="39.7018290" lon="-0.4100250">
        <ele>543.6</ele>
        <time>2019-10-19T10:40:12Z</time>
      </trkpt>
      <trkpt lat="39.7020170" lon="-0.4102680">
        <ele>542.6</ele>
        <time>2019-10-19T10:40:12Z</time>
      </trkpt>
      <trkpt lat="39.7020470" lon="-0.4103520">
        <ele>542.4</ele>
        <time>2019-10-19T10:40:12Z</time>
      </trkpt>
      <trkpt lat="39.7020530" lon="-0.4104050">
        <ele>542.3</ele>
        <time>2019-10-19T10:40:12Z</time>
      </trkpt>
      <trkpt lat="39.7020530" lon="-0.4104640">
        <ele>542.2</ele>
        <time>2019-10-19T10:40:12Z</time>
      </trkpt>
      <trkpt lat="39.7020460" lon="-0.4105200">
        <ele>542.0</ele>
        <time>2019-10-19T10:40:12Z</time>
      </trkpt>
      <trkpt lat="39.7020310" lon="-0.4105750">
        <ele>541.9</ele>
        <time>2019-10-19T10:40:12Z</time>
      </trkpt>
      <trkpt lat="39.7020120" lon="-0.4106290">
        <ele>541.8</ele>
        <time>2019-10-19T10:40:12Z</time>
      </trkpt>
      <trkpt lat="39.7019070" lon="-0.4108180">
        <ele>541.4</ele>
        <time>2019-10-19T10:40:12Z</time>
      </trkpt>
      <trkpt lat="39.7018560" lon="-0.4109150">
        <ele>541.3</ele>
        <time>2019-10-19T10:40:12Z</time>
      </trkpt>
      <trkpt lat="39.7017810" lon="-0.4110780">
        <ele>541.1</ele>
        <time>2019-10-19T10:40:12Z</time>
      </trkpt>
      <trkpt lat="39.7017710" lon="-0.4113470">
        <ele>541.0</ele>
        <time>2019-10-19T10:40:12Z</time>
      </trkpt>
      <trkpt lat="39.7018140" lon="-0.4114550">
        <ele>540.9</ele>
        <time>2019-10-19T10:40:12Z</time>
      </trkpt>
      <trkpt lat="39.7018880" lon="-0.4115260">
        <ele>540.9</ele>
        <time>2019-10-19T10:40:12Z</time>
      </trkpt>
      <trkpt lat="39.7020130" lon="-0.4116230">
        <ele>540.7</ele>
        <time>2019-10-19T10:40:12Z</time>
      </trkpt>
      <trkpt lat="39.7021780" lon="-0.4117410">
        <ele>540.5</ele>
        <time>2019-10-19T10:40:12Z</time>
      </trkpt>
      <trkpt lat="39.7022170" lon="-0.4117710">
        <ele>540.5</ele>
        <time>2019-10-19T10:40:12Z</time>
      </trkpt>
      <trkpt lat="39.7023710" lon="-0.4119130">
        <ele>540.3</ele>
        <time>2019-10-19T10:40:12Z</time>
      </trkpt>
      <trkpt lat="39.7024560" lon="-0.4120750">
        <ele>540.1</ele>
        <time>2019-10-19T10:40:12Z</time>
      </trkpt>
      <trkpt lat="39.7024900" lon="-0.4121970">
        <ele>540.0</ele>
        <time>2019-10-19T10:40:12Z</time>
      </trkpt>
      <trkpt lat="39.7025040" lon="-0.4122560">
        <ele>539.9</ele>
        <time>2019-10-19T10:40:12Z</time>
      </trkpt>
      <trkpt lat="39.7025140" lon="-0.4123130">
        <ele>539.9</ele>
        <time>2019-10-19T10:40:12Z</time>
      </trkpt>
      <trkpt lat="39.7025210" lon="-0.4123690">
        <ele>539.8</ele>
        <time>2019-10-19T10:40:12Z</time>
      </trkpt>
      <trkpt lat="39.7025290" lon="-0.4124260">
        <ele>539.8</ele>
        <time>2019-10-19T10:40:12Z</time>
      </trkpt>
      <trkpt lat="39.7025370" lon="-0.4124840">
        <ele>539.8</ele>
        <time>2019-10-19T10:40:12Z</time>
      </trkpt>
      <trkpt lat="39.7025460" lon="-0.4125420">
        <ele>539.8</ele>
        <time>2019-10-19T10:40:12Z</time>
      </trkpt>
      <trkpt lat="39.7025550" lon="-0.4125990">
        <ele>539.7</ele>
        <time>2019-10-19T10:40:12Z</time>
      </trkpt>
      <trkpt lat="39.7026050" lon="-0.4129290">
        <ele>539.5</ele>
        <time>2019-10-19T10:40:12Z</time>
      </trkpt>
      <trkpt lat="39.7026780" lon="-0.4133740">
        <ele>539.2</ele>
        <time>2019-10-19T10:40:12Z</time>
      </trkpt>
      <trkpt lat="39.7027060" lon="-0.4135450">
        <ele>539.1</ele>
        <time>2019-10-19T10:40:12Z</time>
      </trkpt>
      <trkpt lat="39.7027460" lon="-0.4137620">
        <ele>539.0</ele>
        <time>2019-10-19T10:40:12Z</time>
      </trkpt>
      <trkpt lat="39.7027780" lon="-0.4140090">
        <ele>538.8</ele>
        <time>2019-10-19T10:40:12Z</time>
      </trkpt>
      <trkpt lat="39.7027350" lon="-0.4142730">
        <ele>538.4</ele>
        <time>2019-10-19T10:40:12Z</time>
      </trkpt>
      <trkpt lat="39.7027020" lon="-0.4143850">
        <ele>538.1</ele>
        <time>2019-10-19T10:40:12Z</time>
      </trkpt>
      <trkpt lat="39.7026870" lon="-0.4144180">
        <ele>538.1</ele>
        <time>2019-10-19T10:40:12Z</time>
      </trkpt>
      <trkpt lat="39.7026710" lon="-0.4144480">
        <ele>538.0</ele>
        <time>2019-10-19T10:40:12Z</time>
      </trkpt>
      <trkpt lat="39.7026550" lon="-0.4144830">
        <ele>537.9</ele>
        <time>2019-10-19T10:40:12Z</time>
      </trkpt>
      <trkpt lat="39.7026410" lon="-0.4145160">
        <ele>537.8</ele>
        <time>2019-10-19T10:40:12Z</time>
      </trkpt>
      <trkpt lat="39.7025740" lon="-0.4146620">
        <ele>537.3</ele>
        <time>2019-10-19T10:40:12Z</time>
      </trkpt>
      <trkpt lat="39.7025400" lon="-0.4148660">
        <ele>536.6</ele>
        <time>2019-10-19T10:40:12Z</time>
      </trkpt>
      <trkpt lat="39.7025610" lon="-0.4149710">
        <ele>536.1</ele>
        <time>2019-10-19T10:40:12Z</time>
      </trkpt>
      <trkpt lat="39.7025720" lon="-0.4150020">
        <ele>536.0</ele>
        <time>2019-10-19T10:40:12Z</time>
      </trkpt>
      <trkpt lat="39.7025860" lon="-0.4150280">
        <ele>535.8</ele>
        <time>2019-10-19T10:40:12Z</time>
      </trkpt>
      <trkpt lat="39.7026000" lon="-0.4150500">
        <ele>535.7</ele>
        <time>2019-10-19T10:40:12Z</time>
      </trkpt>
      <trkpt lat="39.7026140" lon="-0.4150680">
        <ele>535.5</ele>
        <time>2019-10-19T10:40:12Z</time>
      </trkpt>
      <trkpt lat="39.7027180" lon="-0.4151510">
        <ele>534.7</ele>
        <time>2019-10-19T10:40:12Z</time>
      </trkpt>
      <trkpt lat="39.7027360" lon="-0.4151660">
        <ele>534.5</ele>
        <time>2019-10-19T10:40:12Z</time>
      </trkpt>
      <trkpt lat="39.7027550" lon="-0.4151790">
        <ele>534.3</ele>
        <time>2019-10-19T10:40:12Z</time>
      </trkpt>
      <trkpt lat="39.7027760" lon="-0.4151920">
        <ele>534.2</ele>
        <time>2019-10-19T10:40:12Z</time>
      </trkpt>
      <trkpt lat="39.7027970" lon="-0.4152050">
        <ele>534.0</ele>
        <time>2019-10-19T10:40:12Z</time>
      </trkpt>
      <trkpt lat="39.7028660" lon="-0.4152440">
        <ele>533.5</ele>
        <time>2019-10-19T10:40:12Z</time>
      </trkpt>
      <trkpt lat="39.7030900" lon="-0.4153730">
        <ele>532.2</ele>
        <time>2019-10-19T10:40:12Z</time>
      </trkpt>
      <trkpt lat="39.7031950" lon="-0.4154550">
        <ele>531.7</ele>
        <time>2019-10-19T10:40:12Z</time>
      </trkpt>
      <trkpt lat="39.7032200" lon="-0.4154880">
        <ele>531.6</ele>
        <time>2019-10-19T10:40:12Z</time>
      </trkpt>
      <trkpt lat="39.7032350" lon="-0.4155210">
        <ele>531.5</ele>
        <time>2019-10-19T10:40:12Z</time>
      </trkpt>
      <trkpt lat="39.7032410" lon="-0.4155570">
        <ele>531.4</ele>
        <time>2019-10-19T10:40:12Z</time>
      </trkpt>
      <trkpt lat="39.7032530" lon="-0.4157170">
        <ele>530.9</ele>
        <time>2019-10-19T10:40:12Z</time>
      </trkpt>
      <trkpt lat="39.7032910" lon="-0.4159470">
        <ele>530.0</ele>
        <time>2019-10-19T10:40:12Z</time>
      </trkpt>
      <trkpt lat="39.7033010" lon="-0.4159850">
        <ele>529.9</ele>
        <time>2019-10-19T10:40:12Z</time>
      </trkpt>
      <trkpt lat="39.7033100" lon="-0.4160230">
        <ele>529.7</ele>
        <time>2019-10-19T10:40:12Z</time>
      </trkpt>
      <trkpt lat="39.7033170" lon="-0.4160570">
        <ele>529.6</ele>
        <time>2019-10-19T10:40:12Z</time>
      </trkpt>
      <trkpt lat="39.7033250" lon="-0.4160920">
        <ele>529.4</ele>
        <time>2019-10-19T10:40:12Z</time>
      </trkpt>
      <trkpt lat="39.7033340" lon="-0.4161280">
        <ele>529.3</ele>
        <time>2019-10-19T10:40:12Z</time>
      </trkpt>
      <trkpt lat="39.7033490" lon="-0.4161990">
        <ele>529.0</ele>
        <time>2019-10-19T10:40:12Z</time>
      </trkpt>
      <trkpt lat="39.7033830" lon="-0.4164210">
        <ele>528.0</ele>
        <time>2019-10-19T10:40:12Z</time>
      </trkpt>
      <trkpt lat="39.7033870" lon="-0.4164580">
        <ele>527.8</ele>
        <time>2019-10-19T10:40:12Z</time>
      </trkpt>
      <trkpt lat="39.7033900" lon="-0.4164970">
        <ele>527.6</ele>
        <time>2019-10-19T10:40:12Z</time>
      </trkpt>
      <trkpt lat="39.7033950" lon="-0.4165330">
        <ele>527.5</ele>
        <time>2019-10-19T10:40:12Z</time>
      </trkpt>
      <trkpt lat="39.7034030" lon="-0.4165690">
        <ele>527.2</ele>
        <time>2019-10-19T10:40:12Z</time>
      </trkpt>
      <trkpt lat="39.7034210" lon="-0.4166850">
        <ele>526.7</ele>
        <time>2019-10-19T10:40:12Z</time>
      </trkpt>
      <trkpt lat="39.7034100" lon="-0.4168680">
        <ele>526.0</ele>
        <time>2019-10-19T10:40:12Z</time>
      </trkpt>
      <trkpt lat="39.7034160" lon="-0.4168990">
        <ele>525.9</ele>
        <time>2019-10-19T10:40:12Z</time>
      </trkpt>
      <trkpt lat="39.7034200" lon="-0.4169310">
        <ele>525.8</ele>
        <time>2019-10-19T10:40:12Z</time>
      </trkpt>
      <trkpt lat="39.7034170" lon="-0.4169680">
        <ele>525.6</ele>
        <time>2019-10-19T10:40:12Z</time>
      </trkpt>
      <trkpt lat="39.7034110" lon="-0.4170050">
        <ele>525.4</ele>
        <time>2019-10-19T10:40:12Z</time>
      </trkpt>
      <trkpt lat="39.7034010" lon="-0.4170420">
        <ele>525.3</ele>
        <time>2019-10-19T10:40:12Z</time>
      </trkpt>
      <trkpt lat="39.7033620" lon="-0.4171880">
        <ele>524.6</ele>
        <time>2019-10-19T10:40:12Z</time>
      </trkpt>
      <trkpt lat="39.7033470" lon="-0.4172230">
        <ele>524.4</ele>
        <time>2019-10-19T10:40:12Z</time>
      </trkpt>
      <trkpt lat="39.7033310" lon="-0.4172570">
        <ele>524.2</ele>
        <time>2019-10-19T10:40:12Z</time>
      </trkpt>
      <trkpt lat="39.7033150" lon="-0.4172900">
        <ele>524.0</ele>
        <time>2019-10-19T10:40:12Z</time>
      </trkpt>
      <trkpt lat="39.7032040" lon="-0.4174390">
        <ele>523.1</ele>
        <time>2019-10-19T10:40:12Z</time>
      </trkpt>
      <trkpt lat="39.7030360" lon="-0.4175760">
        <ele>521.9</ele>
        <time>2019-10-19T10:40:12Z</time>
      </trkpt>
      <trkpt lat="39.7030050" lon="-0.4175910">
        <ele>521.7</ele>
        <time>2019-10-19T10:40:12Z</time>
      </trkpt>
      <trkpt lat="39.7029730" lon="-0.4176030">
        <ele>521.5</ele>
        <time>2019-10-19T10:40:12Z</time>
      </trkpt>
      <trkpt lat="39.7029390" lon="-0.4176130">
        <ele>521.3</ele>
        <time>2019-10-19T10:40:12Z</time>
      </trkpt>
      <trkpt lat="39.7029050" lon="-0.4176190">
        <ele>521.1</ele>
        <time>2019-10-19T10:40:12Z</time>
      </trkpt>
      <trkpt lat="39.7028050" lon="-0.4176150">
        <ele>520.5</ele>
        <time>2019-10-19T10:40:12Z</time>
      </trkpt>
      <trkpt lat="39.7027750" lon="-0.4176100">
        <ele>520.3</ele>
        <time>2019-10-19T10:40:12Z</time>
      </trkpt>
      <trkpt lat="39.7027460" lon="-0.4176050">
        <ele>520.1</ele>
        <time>2019-10-19T10:40:12Z</time>
      </trkpt>
      <trkpt lat="39.7027150" lon="-0.4175990">
        <ele>519.9</ele>
        <time>2019-10-19T10:40:12Z</time>
      </trkpt>
      <trkpt lat="39.7026850" lon="-0.4175920">
        <ele>519.7</ele>
        <time>2019-10-19T10:40:12Z</time>
      </trkpt>
      <trkpt lat="39.7026550" lon="-0.4175840">
        <ele>519.5</ele>
        <time>2019-10-19T10:40:12Z</time>
      </trkpt>
      <trkpt lat="39.7025920" lon="-0.4175590">
        <ele>519.0</ele>
        <time>2019-10-19T10:40:12Z</time>
      </trkpt>
      <trkpt lat="39.7025600" lon="-0.4175470">
        <ele>518.8</ele>
        <time>2019-10-19T10:40:12Z</time>
      </trkpt>
      <trkpt lat="39.7025300" lon="-0.4175370">
        <ele>518.6</ele>
        <time>2019-10-19T10:40:12Z</time>
      </trkpt>
      <trkpt lat="39.7025030" lon="-0.4175230">
        <ele>518.5</ele>
        <time>2019-10-19T10:40:12Z</time>
      </trkpt>
      <trkpt lat="39.7024740" lon="-0.4175070">
        <ele>518.3</ele>
        <time>2019-10-19T10:40:12Z</time>
      </trkpt>
      <trkpt lat="39.7023820" lon="-0.4174560">
        <ele>517.7</ele>
        <time>2019-10-19T10:40:12Z</time>
      </trkpt>
      <trkpt lat="39.7023520" lon="-0.4174380">
        <ele>517.5</ele>
        <time>2019-10-19T10:40:12Z</time>
      </trkpt>
      <trkpt lat="39.7023220" lon="-0.4174210">
        <ele>517.3</ele>
        <time>2019-10-19T10:40:12Z</time>
      </trkpt>
      <trkpt lat="39.7022920" lon="-0.4174030">
        <ele>517.1</ele>
        <time>2019-10-19T10:40:12Z</time>
      </trkpt>
      <trkpt lat="39.7022610" lon="-0.4173850">
        <ele>517.0</ele>
        <time>2019-10-19T10:40:12Z</time>
      </trkpt>
      <trkpt lat="39.7022310" lon="-0.4173670">
        <ele>516.8</ele>
        <time>2019-10-19T10:40:12Z</time>
      </trkpt>
      <trkpt lat="39.7021360" lon="-0.4173070">
        <ele>516.3</ele>
        <time>2019-10-19T10:40:12Z</time>
      </trkpt>
      <trkpt lat="39.7020720" lon="-0.4172660">
        <ele>515.9</ele>
        <time>2019-10-19T10:40:12Z</time>
      </trkpt>
      <trkpt lat="39.7020390" lon="-0.4172490">
        <ele>515.7</ele>
        <time>2019-10-19T10:40:12Z</time>
      </trkpt>
      <trkpt lat="39.7020080" lon="-0.4172300">
        <ele>515.5</ele>
        <time>2019-10-19T10:40:12Z</time>
      </trkpt>
      <trkpt lat="39.7019770" lon="-0.4172090">
        <ele>515.4</ele>
        <time>2019-10-19T10:40:12Z</time>
      </trkpt>
      <trkpt lat="39.7019420" lon="-0.4171920">
        <ele>515.2</ele>
        <time>2019-10-19T10:40:12Z</time>
      </trkpt>
      <trkpt lat="39.7019100" lon="-0.4171750">
        <ele>515.0</ele>
        <time>2019-10-19T10:40:12Z</time>
      </trkpt>
      <trkpt lat="39.7016840" lon="-0.4170650">
        <ele>513.7</ele>
        <time>2019-10-19T10:40:12Z</time>
      </trkpt>
      <trkpt lat="39.7016520" lon="-0.4170470">
        <ele>513.5</ele>
        <time>2019-10-19T10:40:12Z</time>
      </trkpt>
      <trkpt lat="39.7016220" lon="-0.4170250">
        <ele>513.3</ele>
        <time>2019-10-19T10:40:12Z</time>
      </trkpt>
      <trkpt lat="39.7015910" lon="-0.4170030">
        <ele>513.1</ele>
        <time>2019-10-19T10:40:12Z</time>
      </trkpt>
      <trkpt lat="39.7015600" lon="-0.4169860">
        <ele>512.9</ele>
        <time>2019-10-19T10:40:12Z</time>
      </trkpt>
      <trkpt lat="39.7015280" lon="-0.4169730">
        <ele>512.7</ele>
        <time>2019-10-19T10:40:12Z</time>
      </trkpt>
      <trkpt lat="39.7013340" lon="-0.4168980">
        <ele>511.6</ele>
        <time>2019-10-19T10:40:12Z</time>
      </trkpt>
      <trkpt lat="39.7013020" lon="-0.4168830">
        <ele>511.4</ele>
        <time>2019-10-19T10:40:12Z</time>
      </trkpt>
      <trkpt lat="39.7012690" lon="-0.4168690">
        <ele>511.2</ele>
        <time>2019-10-19T10:40:12Z</time>
      </trkpt>
      <trkpt lat="39.7012340" lon="-0.4168550">
        <ele>511.0</ele>
        <time>2019-10-19T10:40:12Z</time>
      </trkpt>
      <trkpt lat="39.7012020" lon="-0.4168440">
        <ele>510.8</ele>
        <time>2019-10-19T10:40:12Z</time>
      </trkpt>
      <trkpt lat="39.7011690" lon="-0.4168340">
        <ele>510.7</ele>
        <time>2019-10-19T10:40:12Z</time>
      </trkpt>
      <trkpt lat="39.7010700" lon="-0.4168070">
        <ele>510.1</ele>
        <time>2019-10-19T10:40:12Z</time>
      </trkpt>
      <trkpt lat="39.7008360" lon="-0.4167330">
        <ele>508.9</ele>
        <time>2019-10-19T10:40:12Z</time>
      </trkpt>
      <trkpt lat="39.7007430" lon="-0.4167080">
        <ele>508.5</ele>
        <time>2019-10-19T10:40:12Z</time>
      </trkpt>
      <trkpt lat="39.7007120" lon="-0.4167010">
        <ele>508.4</ele>
        <time>2019-10-19T10:40:12Z</time>
      </trkpt>
      <trkpt lat="39.7006800" lon="-0.4166940">
        <ele>508.2</ele>
        <time>2019-10-19T10:40:12Z</time>
      </trkpt>
      <trkpt lat="39.7006470" lon="-0.4166830">
        <ele>508.1</ele>
        <time>2019-10-19T10:40:12Z</time>
      </trkpt>
      <trkpt lat="39.7006160" lon="-0.4166710">
        <ele>507.9</ele>
        <time>2019-10-19T10:40:12Z</time>
      </trkpt>
      <trkpt lat="39.7005850" lon="-0.4166580">
        <ele>507.8</ele>
        <time>2019-10-19T10:40:12Z</time>
      </trkpt>
      <trkpt lat="39.7003620" lon="-0.4165770">
        <ele>506.7</ele>
        <time>2019-10-19T10:40:12Z</time>
      </trkpt>
      <trkpt lat="39.7003310" lon="-0.4165580">
        <ele>506.6</ele>
        <time>2019-10-19T10:40:12Z</time>
      </trkpt>
      <trkpt lat="39.7002990" lon="-0.4165390">
        <ele>506.4</ele>
        <time>2019-10-19T10:40:12Z</time>
      </trkpt>
      <trkpt lat="39.7002660" lon="-0.4165240">
        <ele>506.3</ele>
        <time>2019-10-19T10:40:12Z</time>
      </trkpt>
      <trkpt lat="39.7002340" lon="-0.4165090">
        <ele>506.2</ele>
        <time>2019-10-19T10:40:12Z</time>
      </trkpt>
      <trkpt lat="39.7000780" lon="-0.4164410">
        <ele>505.8</ele>
        <time>2019-10-19T10:40:12Z</time>
      </trkpt>
      <trkpt lat="39.6999040" lon="-0.4163480">
        <ele>505.6</ele>
        <time>2019-10-19T10:40:12Z</time>
      </trkpt>
      <trkpt lat="39.6998530" lon="-0.4163290">
        <ele>505.6</ele>
        <time>2019-10-19T10:40:12Z</time>
      </trkpt>
      <trkpt lat="39.6998280" lon="-0.4163190">
        <ele>505.6</ele>
        <time>2019-10-19T10:40:12Z</time>
      </trkpt>
      <trkpt lat="39.6998030" lon="-0.4163200">
        <ele>505.5</ele>
        <time>2019-10-19T10:40:12Z</time>
      </trkpt>
      <trkpt lat="39.6997840" lon="-0.4163290">
        <ele>505.5</ele>
        <time>2019-10-19T10:40:12Z</time>
      </trkpt>
      <trkpt lat="39.6997620" lon="-0.4163400">
        <ele>505.4</ele>
        <time>2019-10-19T10:40:12Z</time>
      </trkpt>
      <trkpt lat="39.6997310" lon="-0.4164170">
        <ele>505.1</ele>
        <time>2019-10-19T10:40:12Z</time>
      </trkpt>
      <trkpt lat="39.6997390" lon="-0.4164810">
        <ele>504.8</ele>
        <time>2019-10-19T10:40:12Z</time>
      </trkpt>
      <trkpt lat="39.6997740" lon="-0.4165330">
        <ele>504.4</ele>
        <time>2019-10-19T10:40:12Z</time>
      </trkpt>
      <trkpt lat="39.6998650" lon="-0.4166060">
        <ele>503.4</ele>
        <time>2019-10-19T10:40:12Z</time>
      </trkpt>
      <trkpt lat="39.6998930" lon="-0.4166210">
        <ele>503.2</ele>
        <time>2019-10-19T10:40:12Z</time>
      </trkpt>
      <trkpt lat="39.6999210" lon="-0.4166280">
        <ele>502.9</ele>
        <time>2019-10-19T10:40:12Z</time>
      </trkpt>
      <trkpt lat="39.6999480" lon="-0.4166410">
        <ele>502.6</ele>
        <time>2019-10-19T10:40:12Z</time>
      </trkpt>
      <trkpt lat="39.6999750" lon="-0.4166570">
        <ele>502.4</ele>
        <time>2019-10-19T10:40:12Z</time>
      </trkpt>
      <trkpt lat="39.7001580" lon="-0.4167550">
        <ele>501.1</ele>
        <time>2019-10-19T10:40:12Z</time>
      </trkpt>
      <trkpt lat="39.7003590" lon="-0.4168770">
        <ele>499.8</ele>
        <time>2019-10-19T10:40:12Z</time>
      </trkpt>
      <trkpt lat="39.7004340" lon="-0.4169250">
        <ele>499.3</ele>
        <time>2019-10-19T10:40:12Z</time>
      </trkpt>
      <trkpt lat="39.7004620" lon="-0.4169410">
        <ele>499.1</ele>
        <time>2019-10-19T10:40:12Z</time>
      </trkpt>
      <trkpt lat="39.7004870" lon="-0.4169560">
        <ele>499.0</ele>
        <time>2019-10-19T10:40:12Z</time>
      </trkpt>
      <trkpt lat="39.7005110" lon="-0.4169710">
        <ele>498.8</ele>
        <time>2019-10-19T10:40:12Z</time>
      </trkpt>
      <trkpt lat="39.7005380" lon="-0.4169840">
        <ele>498.6</ele>
        <time>2019-10-19T10:40:12Z</time>
      </trkpt>
      <trkpt lat="39.7006200" lon="-0.4170220">
        <ele>498.1</ele>
        <time>2019-10-19T10:40:12Z</time>
      </trkpt>
      <trkpt lat="39.7008240" lon="-0.4171340">
        <ele>496.9</ele>
        <time>2019-10-19T10:40:12Z</time>
      </trkpt>
      <trkpt lat="39.7010320" lon="-0.4172380">
        <ele>495.9</ele>
        <time>2019-10-19T10:40:12Z</time>
      </trkpt>
      <trkpt lat="39.7010600" lon="-0.4172480">
        <ele>495.7</ele>
        <time>2019-10-19T10:40:12Z</time>
      </trkpt>
      <trkpt lat="39.7010840" lon="-0.4172630">
        <ele>495.6</ele>
        <time>2019-10-19T10:40:12Z</time>
      </trkpt>
      <trkpt lat="39.7011110" lon="-0.4172820">
        <ele>495.4</ele>
        <time>2019-10-19T10:40:12Z</time>
      </trkpt>
      <trkpt lat="39.7012350" lon="-0.4173610">
        <ele>494.7</ele>
        <time>2019-10-19T10:40:12Z</time>
      </trkpt>
      <trkpt lat="39.7013560" lon="-0.4174370">
        <ele>493.9</ele>
        <time>2019-10-19T10:40:12Z</time>
      </trkpt>
      <trkpt lat="39.7013780" lon="-0.4174540">
        <ele>493.8</ele>
        <time>2019-10-19T10:40:12Z</time>
      </trkpt>
      <trkpt lat="39.7014000" lon="-0.4174760">
        <ele>493.6</ele>
        <time>2019-10-19T10:40:12Z</time>
      </trkpt>
      <trkpt lat="39.7014230" lon="-0.4174940">
        <ele>493.5</ele>
        <time>2019-10-19T10:40:12Z</time>
      </trkpt>
      <trkpt lat="39.7014420" lon="-0.4175180">
        <ele>493.3</ele>
        <time>2019-10-19T10:40:12Z</time>
      </trkpt>
      <trkpt lat="39.7015290" lon="-0.4176030">
        <ele>492.6</ele>
        <time>2019-10-19T10:40:12Z</time>
      </trkpt>
      <trkpt lat="39.7016100" lon="-0.4176870">
        <ele>492.0</ele>
        <time>2019-10-19T10:40:12Z</time>
      </trkpt>
      <trkpt lat="39.7016350" lon="-0.4177060">
        <ele>491.8</ele>
        <time>2019-10-19T10:40:12Z</time>
      </trkpt>
      <trkpt lat="39.7016560" lon="-0.4177260">
        <ele>491.6</ele>
        <time>2019-10-19T10:40:12Z</time>
      </trkpt>
      <trkpt lat="39.7016770" lon="-0.4177480">
        <ele>491.4</ele>
        <time>2019-10-19T10:40:12Z</time>
      </trkpt>
      <trkpt lat="39.7016980" lon="-0.4177670">
        <ele>491.3</ele>
        <time>2019-10-19T10:40:12Z</time>
      </trkpt>
      <trkpt lat="39.7018110" lon="-0.4178880">
        <ele>490.4</ele>
        <time>2019-10-19T10:40:12Z</time>
      </trkpt>
      <trkpt lat="39.7020210" lon="-0.4180930">
        <ele>489.0</ele>
        <time>2019-10-19T10:40:12Z</time>
      </trkpt>
      <trkpt lat="39.7020500" lon="-0.4181170">
        <ele>488.8</ele>
        <time>2019-10-19T10:40:12Z</time>
      </trkpt>
      <trkpt lat="39.7020740" lon="-0.4181440">
        <ele>488.7</ele>
        <time>2019-10-19T10:40:12Z</time>
      </trkpt>
      <trkpt lat="39.7021030" lon="-0.4181700">
        <ele>488.5</ele>
        <time>2019-10-19T10:40:12Z</time>
      </trkpt>
      <trkpt lat="39.7021280" lon="-0.4181920">
        <ele>488.3</ele>
        <time>2019-10-19T10:40:12Z</time>
      </trkpt>
      <trkpt lat="39.7021860" lon="-0.4182530">
        <ele>488.0</ele>
        <time>2019-10-19T10:40:12Z</time>
      </trkpt>
      <trkpt lat="39.7023140" lon="-0.4183770">
        <ele>487.1</ele>
        <time>2019-10-19T10:40:12Z</time>
      </trkpt>
      <trkpt lat="39.7023420" lon="-0.4183970">
        <ele>486.9</ele>
        <time>2019-10-19T10:40:12Z</time>
      </trkpt>
      <trkpt lat="39.7023670" lon="-0.4184150">
        <ele>486.7</ele>
        <time>2019-10-19T10:40:12Z</time>
      </trkpt>
      <trkpt lat="39.7023940" lon="-0.4184320">
        <ele>486.5</ele>
        <time>2019-10-19T10:40:12Z</time>
      </trkpt>
      <trkpt lat="39.7024170" lon="-0.4184550">
        <ele>486.3</ele>
        <time>2019-10-19T10:40:12Z</time>
      </trkpt>
      <trkpt lat="39.7024640" lon="-0.4184760">
        <ele>486.0</ele>
        <time>2019-10-19T10:40:12Z</time>
      </trkpt>
      <trkpt lat="39.7026320" lon="-0.4185280">
        <ele>485.0</ele>
        <time>2019-10-19T10:40:12Z</time>
      </trkpt>
      <trkpt lat="39.7027870" lon="-0.4185460">
        <ele>484.3</ele>
        <time>2019-10-19T10:40:12Z</time>
      </trkpt>
      <trkpt lat="39.7028250" lon="-0.4185400">
        <ele>484.1</ele>
        <time>2019-10-19T10:40:12Z</time>
      </trkpt>
      <trkpt lat="39.7028420" lon="-0.4185330">
        <ele>484.0</ele>
        <time>2019-10-19T10:40:12Z</time>
      </trkpt>
      <trkpt lat="39.7028680" lon="-0.4185270">
        <ele>483.9</ele>
        <time>2019-10-19T10:40:12Z</time>
      </trkpt>
      <trkpt lat="39.7028930" lon="-0.4185230">
        <ele>483.8</ele>
        <time>2019-10-19T10:40:12Z</time>
      </trkpt>
      <trkpt lat="39.7029200" lon="-0.4185170">
        <ele>483.7</ele>
        <time>2019-10-19T10:40:12Z</time>
      </trkpt>
      <trkpt lat="39.7029760" lon="-0.4185060">
        <ele>483.4</ele>
        <time>2019-10-19T10:40:12Z</time>
      </trkpt>
      <trkpt lat="39.7030620" lon="-0.4185090">
        <ele>483.0</ele>
        <time>2019-10-19T10:40:12Z</time>
      </trkpt>
      <trkpt lat="39.7030900" lon="-0.4185040">
        <ele>482.9</ele>
        <time>2019-10-19T10:40:12Z</time>
      </trkpt>
      <trkpt lat="39.7031190" lon="-0.4184990">
        <ele>482.8</ele>
        <time>2019-10-19T10:40:12Z</time>
      </trkpt>
      <trkpt lat="39.7031450" lon="-0.4185030">
        <ele>482.7</ele>
        <time>2019-10-19T10:40:12Z</time>
      </trkpt>
      <trkpt lat="39.7031700" lon="-0.4185060">
        <ele>482.5</ele>
        <time>2019-10-19T10:40:12Z</time>
      </trkpt>
      <trkpt lat="39.7032890" lon="-0.4185670">
        <ele>482.1</ele>
        <time>2019-10-19T10:40:12Z</time>
      </trkpt>
      <trkpt lat="39.7033860" lon="-0.4187150">
        <ele>481.6</ele>
        <time>2019-10-19T10:40:12Z</time>
      </trkpt>
      <trkpt lat="39.7033940" lon="-0.4187510">
        <ele>481.6</ele>
        <time>2019-10-19T10:40:12Z</time>
      </trkpt>
      <trkpt lat="39.7034230" lon="-0.4188680">
        <ele>481.3</ele>
        <time>2019-10-19T10:40:12Z</time>
      </trkpt>
      <trkpt lat="39.7034490" lon="-0.4189070">
        <ele>481.2</ele>
        <time>2019-10-19T10:40:12Z</time>
      </trkpt>
      <trkpt lat="39.7035560" lon="-0.4189180">
        <ele>481.6</ele>
        <time>2019-10-19T10:40:12Z</time>
      </trkpt>
      <trkpt lat="39.7036520" lon="-0.4188580">
        <ele>482.0</ele>
        <time>2019-10-19T10:40:12Z</time>
      </trkpt>
      <trkpt lat="39.7036930" lon="-0.4188360">
        <ele>482.2</ele>
        <time>2019-10-19T10:40:12Z</time>
      </trkpt>
      <trkpt lat="39.7037320" lon="-0.4188140">
        <ele>482.4</ele>
        <time>2019-10-19T10:40:12Z</time>
      </trkpt>
      <trkpt lat="39.7037670" lon="-0.4187850">
        <ele>482.6</ele>
        <time>2019-10-19T10:40:12Z</time>
      </trkpt>
      <trkpt lat="39.7038060" lon="-0.4187600">
        <ele>482.7</ele>
        <time>2019-10-19T10:40:12Z</time>
      </trkpt>
      <trkpt lat="39.7040580" lon="-0.4186020">
        <ele>483.7</ele>
        <time>2019-10-19T10:40:12Z</time>
      </trkpt>
      <trkpt lat="39.7041370" lon="-0.4185530">
        <ele>483.9</ele>
        <time>2019-10-19T10:40:12Z</time>
      </trkpt>
      <trkpt lat="39.7042700" lon="-0.4184140">
        <ele>484.4</ele>
        <time>2019-10-19T10:40:12Z</time>
      </trkpt>
      <trkpt lat="39.7044240" lon="-0.4181520">
        <ele>484.8</ele>
        <time>2019-10-19T10:40:12Z</time>
      </trkpt>
      <trkpt lat="39.7044500" lon="-0.4181190">
        <ele>484.8</ele>
        <time>2019-10-19T10:40:12Z</time>
      </trkpt>
      <trkpt lat="39.7044740" lon="-0.4180800">
        <ele>484.9</ele>
        <time>2019-10-19T10:40:12Z</time>
      </trkpt>
      <trkpt lat="39.7044990" lon="-0.4180430">
        <ele>484.9</ele>
        <time>2019-10-19T10:40:12Z</time>
      </trkpt>
      <trkpt lat="39.7045190" lon="-0.4180020">
        <ele>485.0</ele>
        <time>2019-10-19T10:40:12Z</time>
      </trkpt>
      <trkpt lat="39.7045410" lon="-0.4179610">
        <ele>485.0</ele>
        <time>2019-10-19T10:40:12Z</time>
      </trkpt>
      <trkpt lat="39.7045640" lon="-0.4179150">
        <ele>485.1</ele>
        <time>2019-10-19T10:40:12Z</time>
      </trkpt>
      <trkpt lat="39.7047030" lon="-0.4176680">
        <ele>485.4</ele>
        <time>2019-10-19T10:40:12Z</time>
      </trkpt>
      <trkpt lat="39.7047560" lon="-0.4175640">
        <ele>485.5</ele>
        <time>2019-10-19T10:40:12Z</time>
      </trkpt>
      <trkpt lat="39.7047780" lon="-0.4175410">
        <ele>485.5</ele>
        <time>2019-10-19T10:40:12Z</time>
      </trkpt>
      <trkpt lat="39.7048070" lon="-0.4175270">
        <ele>486.0</ele>
        <time>2019-10-19T10:40:12Z</time>
      </trkpt>
      <trkpt lat="39.7048350" lon="-0.4175180">
        <ele>486.2</ele>
        <time>2019-10-19T10:40:12Z</time>
      </trkpt>
      <trkpt lat="39.7049110" lon="-0.4175200">
        <ele>486.8</ele>
        <time>2019-10-19T10:40:12Z</time>
      </trkpt>
      <trkpt lat="39.7049510" lon="-0.4175180">
        <ele>487.1</ele>
        <time>2019-10-19T10:40:12Z</time>
      </trkpt>
      <trkpt lat="39.7049850" lon="-0.4175060">
        <ele>487.3</ele>
        <time>2019-10-19T10:40:12Z</time>
      </trkpt>
      <trkpt lat="39.7050100" lon="-0.4174850">
        <ele>487.5</ele>
        <time>2019-10-19T10:40:12Z</time>
      </trkpt>
      <trkpt lat="39.7050390" lon="-0.4174580">
        <ele>487.8</ele>
        <time>2019-10-19T10:40:12Z</time>
      </trkpt>
      <trkpt lat="39.7050740" lon="-0.4174310">
        <ele>488.1</ele>
        <time>2019-10-19T10:40:12Z</time>
      </trkpt>
      <trkpt lat="39.7051660" lon="-0.4173720">
        <ele>488.9</ele>
        <time>2019-10-19T10:40:12Z</time>
      </trkpt>
      <trkpt lat="39.7052210" lon="-0.4173570">
        <ele>489.3</ele>
        <time>2019-10-19T10:40:12Z</time>
      </trkpt>
      <trkpt lat="39.7052790" lon="-0.4173550">
        <ele>489.8</ele>
        <time>2019-10-19T10:40:12Z</time>
      </trkpt>
      <trkpt lat="39.7053360" lon="-0.4173470">
        <ele>490.2</ele>
        <time>2019-10-19T10:40:12Z</time>
      </trkpt>
      <trkpt lat="39.7053950" lon="-0.4173400">
        <ele>490.5</ele>
        <time>2019-10-19T10:40:12Z</time>
      </trkpt>
      <trkpt lat="39.7054520" lon="-0.4173400">
        <ele>490.8</ele>
        <time>2019-10-19T10:40:12Z</time>
      </trkpt>
      <trkpt lat="39.7054990" lon="-0.4173410">
        <ele>491.0</ele>
        <time>2019-10-19T10:40:12Z</time>
      </trkpt>
      <trkpt lat="39.7055930" lon="-0.4174030">
        <ele>491.5</ele>
        <time>2019-10-19T10:40:12Z</time>
      </trkpt>
      <trkpt lat="39.7056830" lon="-0.4175380">
        <ele>492.1</ele>
        <time>2019-10-19T10:40:12Z</time>
      </trkpt>
      <trkpt lat="39.7057990" lon="-0.4177820">
        <ele>493.2</ele>
        <time>2019-10-19T10:40:12Z</time>
      </trkpt>
      <trkpt lat="39.7058300" lon="-0.4178730">
        <ele>493.7</ele>
        <time>2019-10-19T10:40:12Z</time>
      </trkpt>
      <trkpt lat="39.7058610" lon="-0.4179630">
        <ele>494.2</ele>
        <time>2019-10-19T10:40:12Z</time>
      </trkpt>
      <trkpt lat="39.7059000" lon="-0.4180430">
        <ele>494.8</ele>
        <time>2019-10-19T10:40:12Z</time>
      </trkpt>
      <trkpt lat="39.7059350" lon="-0.4181280">
        <ele>495.4</ele>
        <time>2019-10-19T10:40:12Z</time>
      </trkpt>
      <trkpt lat="39.7059590" lon="-0.4182230">
        <ele>496.1</ele>
        <time>2019-10-19T10:40:12Z</time>
      </trkpt>
      <trkpt lat="39.7059730" lon="-0.4183180">
        <ele>496.8</ele>
        <time>2019-10-19T10:40:12Z</time>
      </trkpt>
      <trkpt lat="39.7059940" lon="-0.4184050">
        <ele>497.5</ele>
        <time>2019-10-19T10:40:12Z</time>
      </trkpt>
      <trkpt lat="39.7060200" lon="-0.4184830">
        <ele>498.2</ele>
        <time>2019-10-19T10:40:12Z</time>
      </trkpt>
      <trkpt lat="39.7060500" lon="-0.4185460">
        <ele>498.8</ele>
        <time>2019-10-19T10:40:12Z</time>
      </trkpt>
      <trkpt lat="39.7060880" lon="-0.4185860">
        <ele>499.3</ele>
        <time>2019-10-19T10:40:12Z</time>
      </trkpt>
      <trkpt lat="39.7061440" lon="-0.4186100">
        <ele>499.8</ele>
        <time>2019-10-19T10:40:12Z</time>
      </trkpt>
      <trkpt lat="39.7062130" lon="-0.4186190">
        <ele>500.4</ele>
        <time>2019-10-19T10:40:12Z</time>
      </trkpt>
      <trkpt lat="39.7064260" lon="-0.4186420">
        <ele>502.3</ele>
        <time>2019-10-19T10:40:12Z</time>
      </trkpt>
      <trkpt lat="39.7064800" lon="-0.4186520">
        <ele>502.8</ele>
        <time>2019-10-19T10:40:12Z</time>
      </trkpt>
      <trkpt lat="39.7065410" lon="-0.4186620">
        <ele>503.3</ele>
        <time>2019-10-19T10:40:12Z</time>
      </trkpt>
      <trkpt lat="39.7065980" lon="-0.4186810">
        <ele>503.8</ele>
        <time>2019-10-19T10:40:12Z</time>
      </trkpt>
      <trkpt lat="39.7066490" lon="-0.4186930">
        <ele>504.2</ele>
        <time>2019-10-19T10:40:12Z</time>
      </trkpt>
      <trkpt lat="39.7066870" lon="-0.4186940">
        <ele>504.5</ele>
        <time>2019-10-19T10:40:12Z</time>
      </trkpt>
      <trkpt lat="39.7067220" lon="-0.4186850">
        <ele>504.8</ele>
        <time>2019-10-19T10:40:12Z</time>
      </trkpt>
      <trkpt lat="39.7067610" lon="-0.4186640">
        <ele>505.1</ele>
        <time>2019-10-19T10:40:12Z</time>
      </trkpt>
      <trkpt lat="39.7068010" lon="-0.4186240">
        <ele>505.4</ele>
        <time>2019-10-19T10:40:12Z</time>
      </trkpt>
      <trkpt lat="39.7068300" lon="-0.4186000">
        <ele>505.6</ele>
        <time>2019-10-19T10:40:12Z</time>
      </trkpt>
      <trkpt lat="39.7068630" lon="-0.4185710">
        <ele>505.9</ele>
        <time>2019-10-19T10:40:12Z</time>
      </trkpt>
      <trkpt lat="39.7069020" lon="-0.4185490">
        <ele>506.1</ele>
        <time>2019-10-19T10:40:12Z</time>
      </trkpt>
      <trkpt lat="39.7070120" lon="-0.4185010">
        <ele>506.9</ele>
        <time>2019-10-19T10:40:12Z</time>
      </trkpt>
      <trkpt lat="39.7070950" lon="-0.4184950">
        <ele>507.4</ele>
        <time>2019-10-19T10:40:12Z</time>
      </trkpt>
      <trkpt lat="39.7071410" lon="-0.4184930">
        <ele>507.7</ele>
        <time>2019-10-19T10:40:12Z</time>
      </trkpt>
      <trkpt lat="39.7071820" lon="-0.4185100">
        <ele>508.0</ele>
        <time>2019-10-19T10:40:12Z</time>
      </trkpt>
      <trkpt lat="39.7072250" lon="-0.4185360">
        <ele>508.3</ele>
        <time>2019-10-19T10:40:12Z</time>
      </trkpt>
      <trkpt lat="39.7072570" lon="-0.4185630">
        <ele>508.6</ele>
        <time>2019-10-19T10:40:12Z</time>
      </trkpt>
      <trkpt lat="39.7072980" lon="-0.4185950">
        <ele>508.9</ele>
        <time>2019-10-19T10:40:12Z</time>
      </trkpt>
      <trkpt lat="39.7073800" lon="-0.4186610">
        <ele>509.5</ele>
        <time>2019-10-19T10:40:12Z</time>
      </trkpt>
      <trkpt lat="39.7074640" lon="-0.4186990">
        <ele>510.0</ele>
        <time>2019-10-19T10:40:12Z</time>
      </trkpt>
      <trkpt lat="39.7075920" lon="-0.4187120">
        <ele>510.6</ele>
        <time>2019-10-19T10:40:12Z</time>
      </trkpt>
      <trkpt lat="39.7076330" lon="-0.4187220">
        <ele>510.8</ele>
        <time>2019-10-19T10:40:12Z</time>
      </trkpt>
      <trkpt lat="39.7077770" lon="-0.4187190">
        <ele>510.9</ele>
        <time>2019-10-19T10:40:12Z</time>
      </trkpt>
      <trkpt lat="39.7079620" lon="-0.4185900">
        <ele>510.8</ele>
        <time>2019-10-19T10:40:12Z</time>
      </trkpt>
      <trkpt lat="39.7082890" lon="-0.4184280">
        <ele>511.4</ele>
        <time>2019-10-19T10:40:12Z</time>
      </trkpt>
      <trkpt lat="39.7085390" lon="-0.4182710">
        <ele>513.0</ele>
        <time>2019-10-19T10:40:12Z</time>
      </trkpt>
      <trkpt lat="39.7087090" lon="-0.4181290">
        <ele>513.8</ele>
        <time>2019-10-19T10:40:12Z</time>
      </trkpt>
      <trkpt lat="39.7088560" lon="-0.4180600">
        <ele>513.8</ele>
        <time>2019-10-19T10:40:12Z</time>
      </trkpt>
      <trkpt lat="39.7088710" lon="-0.4180480">
        <ele>513.7</ele>
        <time>2019-10-19T10:40:12Z</time>
      </trkpt>
      <trkpt lat="39.7089780" lon="-0.4180160">
        <ele>513.1</ele>
        <time>2019-10-19T10:40:12Z</time>
      </trkpt>
      <trkpt lat="39.7089980" lon="-0.4180140">
        <ele>513.0</ele>
        <time>2019-10-19T10:40:12Z</time>
      </trkpt>
      <trkpt lat="39.7090190" lon="-0.4180110">
        <ele>512.8</ele>
        <time>2019-10-19T10:40:12Z</time>
      </trkpt>
      <trkpt lat="39.7090350" lon="-0.4180110">
        <ele>512.7</ele>
        <time>2019-10-19T10:40:12Z</time>
      </trkpt>
      <trkpt lat="39.7090570" lon="-0.4180200">
        <ele>512.5</ele>
        <time>2019-10-19T10:40:12Z</time>
      </trkpt>
      <trkpt lat="39.7090770" lon="-0.4180330">
        <ele>512.3</ele>
        <time>2019-10-19T10:40:12Z</time>
      </trkpt>
      <trkpt lat="39.7090950" lon="-0.4180410">
        <ele>512.2</ele>
        <time>2019-10-19T10:40:12Z</time>
      </trkpt>
      <trkpt lat="39.7091970" lon="-0.4181050">
        <ele>511.2</ele>
        <time>2019-10-19T10:40:12Z</time>
      </trkpt>
      <trkpt lat="39.7093490" lon="-0.4182380">
        <ele>510.3</ele>
        <time>2019-10-19T10:40:12Z</time>
      </trkpt>
      <trkpt lat="39.7093980" lon="-0.4183220">
        <ele>510.0</ele>
        <time>2019-10-19T10:40:12Z</time>
      </trkpt>
      <trkpt lat="39.7094230" lon="-0.4183680">
        <ele>509.9</ele>
        <time>2019-10-19T10:40:12Z</time>
      </trkpt>
      <trkpt lat="39.7094430" lon="-0.4184120">
        <ele>509.7</ele>
        <time>2019-10-19T10:40:12Z</time>
      </trkpt>
      <trkpt lat="39.7094590" lon="-0.4184620">
        <ele>509.6</ele>
        <time>2019-10-19T10:40:12Z</time>
      </trkpt>
      <trkpt lat="39.7094690" lon="-0.4185150">
        <ele>509.5</ele>
        <time>2019-10-19T10:40:12Z</time>
      </trkpt>
      <trkpt lat="39.7095360" lon="-0.4187160">
        <ele>509.0</ele>
        <time>2019-10-19T10:40:12Z</time>
      </trkpt>
      <trkpt lat="39.7095640" lon="-0.4188960">
        <ele>508.6</ele>
        <time>2019-10-19T10:40:12Z</time>
      </trkpt>
      <trkpt lat="39.7095500" lon="-0.4190190">
        <ele>508.4</ele>
        <time>2019-10-19T10:40:12Z</time>
      </trkpt>
      <trkpt lat="39.7094960" lon="-0.4192590">
        <ele>508.2</ele>
        <time>2019-10-19T10:40:12Z</time>
      </trkpt>
      <trkpt lat="39.7094900" lon="-0.4193210">
        <ele>508.1</ele>
        <time>2019-10-19T10:40:12Z</time>
      </trkpt>
      <trkpt lat="39.7094760" lon="-0.4193800">
        <ele>508.1</ele>
        <time>2019-10-19T10:40:12Z</time>
      </trkpt>
      <trkpt lat="39.7094380" lon="-0.4195590">
        <ele>507.9</ele>
        <time>2019-10-19T10:40:12Z</time>
      </trkpt>
      <trkpt lat="39.7094890" lon="-0.4197580">
        <ele>507.7</ele>
        <time>2019-10-19T10:40:12Z</time>
      </trkpt>
      <trkpt lat="39.7095350" lon="-0.4198140">
        <ele>507.7</ele>
        <time>2019-10-19T10:40:12Z</time>
      </trkpt>
      <trkpt lat="39.7095920" lon="-0.4198490">
        <ele>507.7</ele>
        <time>2019-10-19T10:40:12Z</time>
      </trkpt>
      <trkpt lat="39.7096550" lon="-0.4198820">
        <ele>507.8</ele>
        <time>2019-10-19T10:40:12Z</time>
      </trkpt>
      <trkpt lat="39.7097180" lon="-0.4199230">
        <ele>507.9</ele>
        <time>2019-10-19T10:40:12Z</time>
      </trkpt>
      <trkpt lat="39.7097830" lon="-0.4199670">
        <ele>508.1</ele>
        <time>2019-10-19T10:40:12Z</time>
      </trkpt>
      <trkpt lat="39.7098490" lon="-0.4200180">
        <ele>508.4</ele>
        <time>2019-10-19T10:40:12Z</time>
      </trkpt>
      <trkpt lat="39.7099150" lon="-0.4200820">
        <ele>508.8</ele>
        <time>2019-10-19T10:40:12Z</time>
      </trkpt>
      <trkpt lat="39.7099710" lon="-0.4201540">
        <ele>509.2</ele>
        <time>2019-10-19T10:40:12Z</time>
      </trkpt>
      <trkpt lat="39.7100140" lon="-0.4202400">
        <ele>509.7</ele>
        <time>2019-10-19T10:40:12Z</time>
      </trkpt>
      <trkpt lat="39.7100450" lon="-0.4203300">
        <ele>510.2</ele>
        <time>2019-10-19T10:40:12Z</time>
      </trkpt>
      <trkpt lat="39.7100610" lon="-0.4204180">
        <ele>510.8</ele>
        <time>2019-10-19T10:40:12Z</time>
      </trkpt>
      <trkpt lat="39.7100680" lon="-0.4205050">
        <ele>511.4</ele>
        <time>2019-10-19T10:40:12Z</time>
      </trkpt>
      <trkpt lat="39.7100700" lon="-0.4205920">
        <ele>512.0</ele>
        <time>2019-10-19T10:40:12Z</time>
      </trkpt>
      <trkpt lat="39.7100730" lon="-0.4206940">
        <ele>512.6</ele>
        <time>2019-10-19T10:40:12Z</time>
      </trkpt>
      <trkpt lat="39.7100790" lon="-0.4207910">
        <ele>513.3</ele>
        <time>2019-10-19T10:40:12Z</time>
      </trkpt>
      <trkpt lat="39.7100820" lon="-0.4208980">
        <ele>514.0</ele>
        <time>2019-10-19T10:40:12Z</time>
      </trkpt>
      <trkpt lat="39.7100850" lon="-0.4209950">
        <ele>514.8</ele>
        <time>2019-10-19T10:40:12Z</time>
      </trkpt>
      <trkpt lat="39.7100720" lon="-0.4211680">
        <ele>516.1</ele>
        <time>2019-10-19T10:40:12Z</time>
      </trkpt>
      <trkpt lat="39.7100600" lon="-0.4212440">
        <ele>516.7</ele>
        <time>2019-10-19T10:40:12Z</time>
      </trkpt>
      <trkpt lat="39.7100220" lon="-0.4213860">
        <ele>517.7</ele>
        <time>2019-10-19T10:40:12Z</time>
      </trkpt>
      <trkpt lat="39.7099700" lon="-0.4215610">
        <ele>518.5</ele>
        <time>2019-10-19T10:40:12Z</time>
      </trkpt>
      <trkpt lat="39.7098690" lon="-0.4218320">
        <ele>519.0</ele>
        <time>2019-10-19T10:40:12Z</time>
      </trkpt>
      <trkpt lat="39.7097860" lon="-0.4219970">
        <ele>518.8</ele>
        <time>2019-10-19T10:40:12Z</time>
      </trkpt>
      <trkpt lat="39.7097660" lon="-0.4220360">
        <ele>518.6</ele>
        <time>2019-10-19T10:40:12Z</time>
      </trkpt>
      <trkpt lat="39.7097520" lon="-0.4220490">
        <ele>518.5</ele>
        <time>2019-10-19T10:40:12Z</time>
      </trkpt>
      <trkpt lat="39.7097440" lon="-0.4220660">
        <ele>518.4</ele>
        <time>2019-10-19T10:40:12Z</time>
      </trkpt>
      <trkpt lat="39.7097380" lon="-0.4220820">
        <ele>518.3</ele>
        <time>2019-10-19T10:40:12Z</time>
      </trkpt>
      <trkpt lat="39.7097290" lon="-0.4221010">
        <ele>518.2</ele>
        <time>2019-10-19T10:40:12Z</time>
      </trkpt>
      <trkpt lat="39.7097210" lon="-0.4221180">
        <ele>518.1</ele>
        <time>2019-10-19T10:40:12Z</time>
      </trkpt>
      <trkpt lat="39.7096540" lon="-0.4222530">
        <ele>517.1</ele>
        <time>2019-10-19T10:40:12Z</time>
      </trkpt>
      <trkpt lat="39.7096460" lon="-0.4222680">
        <ele>516.9</ele>
        <time>2019-10-19T10:40:12Z</time>
      </trkpt>
      <trkpt lat="39.7096390" lon="-0.4222840">
        <ele>516.8</ele>
        <time>2019-10-19T10:40:12Z</time>
      </trkpt>
      <trkpt lat="39.7096320" lon="-0.4222990">
        <ele>516.7</ele>
        <time>2019-10-19T10:40:12Z</time>
      </trkpt>
      <trkpt lat="39.7096230" lon="-0.4223110">
        <ele>516.6</ele>
        <time>2019-10-19T10:40:12Z</time>
      </trkpt>
      <trkpt lat="39.7096080" lon="-0.4223320">
        <ele>516.4</ele>
        <time>2019-10-19T10:40:12Z</time>
      </trkpt>
      <trkpt lat="39.7095510" lon="-0.4224440">
        <ele>515.3</ele>
        <time>2019-10-19T10:40:12Z</time>
      </trkpt>
      <trkpt lat="39.7095320" lon="-0.4224670">
        <ele>515.1</ele>
        <time>2019-10-19T10:40:12Z</time>
      </trkpt>
      <trkpt lat="39.7095230" lon="-0.4224820">
        <ele>514.9</ele>
        <time>2019-10-19T10:40:12Z</time>
      </trkpt>
      <trkpt lat="39.7095200" lon="-0.4225030">
        <ele>514.7</ele>
        <time>2019-10-19T10:40:12Z</time>
      </trkpt>
      <trkpt lat="39.7095140" lon="-0.4225190">
        <ele>514.6</ele>
        <time>2019-10-19T10:40:12Z</time>
      </trkpt>
      <trkpt lat="39.7095100" lon="-0.4225380">
        <ele>514.4</ele>
        <time>2019-10-19T10:40:12Z</time>
      </trkpt>
      <trkpt lat="39.7094750" lon="-0.4226130">
        <ele>513.6</ele>
        <time>2019-10-19T10:40:12Z</time>
      </trkpt>
      <trkpt lat="39.7094460" lon="-0.4226840">
        <ele>512.9</ele>
        <time>2019-10-19T10:40:12Z</time>
      </trkpt>
      <trkpt lat="39.7094370" lon="-0.4227000">
        <ele>512.7</ele>
        <time>2019-10-19T10:40:12Z</time>
      </trkpt>
      <trkpt lat="39.7094290" lon="-0.4227140">
        <ele>512.5</ele>
        <time>2019-10-19T10:40:12Z</time>
      </trkpt>
      <trkpt lat="39.7094220" lon="-0.4227310">
        <ele>512.3</ele>
        <time>2019-10-19T10:40:12Z</time>
      </trkpt>
      <trkpt lat="39.7094140" lon="-0.4227520">
        <ele>512.1</ele>
        <time>2019-10-19T10:40:12Z</time>
      </trkpt>
      <trkpt lat="39.7093990" lon="-0.4228310">
        <ele>511.3</ele>
        <time>2019-10-19T10:40:12Z</time>
      </trkpt>
      <trkpt lat="39.7093950" lon="-0.4228550">
        <ele>511.1</ele>
        <time>2019-10-19T10:40:12Z</time>
      </trkpt>
      <trkpt lat="39.7094100" lon="-0.4229310">
        <ele>510.4</ele>
        <time>2019-10-19T10:40:12Z</time>
      </trkpt>
      <trkpt lat="39.7094200" lon="-0.4229610">
        <ele>510.1</ele>
        <time>2019-10-19T10:40:12Z</time>
      </trkpt>
      <trkpt lat="39.7094320" lon="-0.4229900">
        <ele>509.8</ele>
        <time>2019-10-19T10:40:12Z</time>
      </trkpt>
      <trkpt lat="39.7094420" lon="-0.4230150">
        <ele>509.6</ele>
        <time>2019-10-19T10:40:12Z</time>
      </trkpt>
      <trkpt lat="39.7094460" lon="-0.4230350">
        <ele>509.4</ele>
        <time>2019-10-19T10:40:12Z</time>
      </trkpt>
      <trkpt lat="39.7094620" lon="-0.4231170">
        <ele>508.7</ele>
        <time>2019-10-19T10:40:12Z</time>
      </trkpt>
      <trkpt lat="39.7094610" lon="-0.4231460">
        <ele>508.4</ele>
        <time>2019-10-19T10:40:12Z</time>
      </trkpt>
      <trkpt lat="39.7094690" lon="-0.4231720">
        <ele>508.2</ele>
        <time>2019-10-19T10:40:12Z</time>
      </trkpt>
      <trkpt lat="39.7094940" lon="-0.4232270">
        <ele>507.7</ele>
        <time>2019-10-19T10:40:12Z</time>
      </trkpt>
      <trkpt lat="39.7095000" lon="-0.4232440">
        <ele>507.5</ele>
        <time>2019-10-19T10:40:12Z</time>
      </trkpt>
      <trkpt lat="39.7095070" lon="-0.4232580">
        <ele>507.4</ele>
        <time>2019-10-19T10:40:12Z</time>
      </trkpt>
      <trkpt lat="39.7095150" lon="-0.4232810">
        <ele>507.2</ele>
        <time>2019-10-19T10:40:12Z</time>
      </trkpt>
      <trkpt lat="39.7095180" lon="-0.4233070">
        <ele>507.0</ele>
        <time>2019-10-19T10:40:12Z</time>
      </trkpt>
      <trkpt lat="39.7095250" lon="-0.4233310">
        <ele>506.7</ele>
        <time>2019-10-19T10:40:12Z</time>
      </trkpt>
      <trkpt lat="39.7095400" lon="-0.4234050">
        <ele>506.1</ele>
        <time>2019-10-19T10:40:12Z</time>
      </trkpt>
      <trkpt lat="39.7095470" lon="-0.4234250">
        <ele>505.9</ele>
        <time>2019-10-19T10:40:12Z</time>
      </trkpt>
      <trkpt lat="39.7095500" lon="-0.4234460">
        <ele>505.8</ele>
        <time>2019-10-19T10:40:12Z</time>
      </trkpt>
      <trkpt lat="39.7095590" lon="-0.4234670">
        <ele>505.6</ele>
        <time>2019-10-19T10:40:12Z</time>
      </trkpt>
      <trkpt lat="39.7095720" lon="-0.4234950">
        <ele>505.3</ele>
        <time>2019-10-19T10:40:12Z</time>
      </trkpt>
      <trkpt lat="39.7095910" lon="-0.4235260">
        <ele>505.1</ele>
        <time>2019-10-19T10:40:12Z</time>
      </trkpt>
      <trkpt lat="39.7096220" lon="-0.4235880">
        <ele>504.6</ele>
        <time>2019-10-19T10:40:12Z</time>
      </trkpt>
      <trkpt lat="39.7096740" lon="-0.4236800">
        <ele>504.0</ele>
        <time>2019-10-19T10:40:12Z</time>
      </trkpt>
      <trkpt lat="39.7097110" lon="-0.4237600">
        <ele>503.7</ele>
        <time>2019-10-19T10:40:12Z</time>
      </trkpt>
      <trkpt lat="39.7097440" lon="-0.4238970">
        <ele>503.5</ele>
        <time>2019-10-19T10:40:12Z</time>
      </trkpt>
      <trkpt lat="39.7097470" lon="-0.4239400">
        <ele>503.4</ele>
        <time>2019-10-19T10:40:12Z</time>
      </trkpt>
      <trkpt lat="39.7097580" lon="-0.4240010">
        <ele>503.4</ele>
        <time>2019-10-19T10:40:12Z</time>
      </trkpt>
      <trkpt lat="39.7097700" lon="-0.4240680">
        <ele>503.4</ele>
        <time>2019-10-19T10:40:12Z</time>
      </trkpt>
      <trkpt lat="39.7097850" lon="-0.4241330">
        <ele>503.5</ele>
        <time>2019-10-19T10:40:12Z</time>
      </trkpt>
      <trkpt lat="39.7098010" lon="-0.4241860">
        <ele>503.6</ele>
        <time>2019-10-19T10:40:12Z</time>
      </trkpt>
      <trkpt lat="39.7098830" lon="-0.4242670">
        <ele>504.0</ele>
        <time>2019-10-19T10:40:12Z</time>
      </trkpt>
      <trkpt lat="39.7099380" lon="-0.4242850">
        <ele>504.2</ele>
        <time>2019-10-19T10:40:12Z</time>
      </trkpt>
      <trkpt lat="39.7099940" lon="-0.4242760">
        <ele>504.4</ele>
        <time>2019-10-19T10:40:12Z</time>
      </trkpt>
      <trkpt lat="39.7100520" lon="-0.4242580">
        <ele>504.6</ele>
        <time>2019-10-19T10:40:12Z</time>
      </trkpt>
      <trkpt lat="39.7101090" lon="-0.4242390">
        <ele>504.9</ele>
        <time>2019-10-19T10:40:12Z</time>
      </trkpt>
      <trkpt lat="39.7101690" lon="-0.4242190">
        <ele>505.1</ele>
        <time>2019-10-19T10:40:12Z</time>
      </trkpt>
      <trkpt lat="39.7102270" lon="-0.4241980">
        <ele>505.3</ele>
        <time>2019-10-19T10:40:12Z</time>
      </trkpt>
      <trkpt lat="39.7103430" lon="-0.4241550">
        <ele>505.9</ele>
        <time>2019-10-19T10:40:12Z</time>
      </trkpt>
      <trkpt lat="39.7105540" lon="-0.4240930">
        <ele>506.9</ele>
        <time>2019-10-19T10:40:12Z</time>
      </trkpt>
      <trkpt lat="39.7108040" lon="-0.4240150">
        <ele>507.9</ele>
        <time>2019-10-19T10:40:12Z</time>
      </trkpt>
      <trkpt lat="39.7108560" lon="-0.4239980">
        <ele>508.0</ele>
        <time>2019-10-19T10:40:12Z</time>
      </trkpt>
      <trkpt lat="39.7109050" lon="-0.4239770">
        <ele>508.2</ele>
        <time>2019-10-19T10:40:12Z</time>
      </trkpt>
      <trkpt lat="39.7109490" lon="-0.4239360">
        <ele>508.4</ele>
        <time>2019-10-19T10:40:12Z</time>
      </trkpt>
      <trkpt lat="39.7109960" lon="-0.4238910">
        <ele>508.6</ele>
        <time>2019-10-19T10:40:12Z</time>
      </trkpt>
      <trkpt lat="39.7110480" lon="-0.4238490">
        <ele>509.1</ele>
        <time>2019-10-19T10:40:12Z</time>
      </trkpt>
      <trkpt lat="39.7111070" lon="-0.4238070">
        <ele>509.6</ele>
        <time>2019-10-19T10:40:12Z</time>
      </trkpt>
      <trkpt lat="39.7111610" lon="-0.4237690">
        <ele>510.0</ele>
        <time>2019-10-19T10:40:12Z</time>
      </trkpt>
      <trkpt lat="39.7112170" lon="-0.4237410">
        <ele>510.5</ele>
        <time>2019-10-19T10:40:12Z</time>
      </trkpt>
      <trkpt lat="39.7112710" lon="-0.4237110">
        <ele>511.0</ele>
        <time>2019-10-19T10:40:12Z</time>
      </trkpt>
      <trkpt lat="39.7113250" lon="-0.4236860">
        <ele>511.4</ele>
        <time>2019-10-19T10:40:12Z</time>
      </trkpt>
      <trkpt lat="39.7113770" lon="-0.4236620">
        <ele>511.9</ele>
        <time>2019-10-19T10:40:12Z</time>
      </trkpt>
      <trkpt lat="39.7114260" lon="-0.4236330">
        <ele>512.4</ele>
        <time>2019-10-19T10:40:12Z</time>
      </trkpt>
      <trkpt lat="39.7114750" lon="-0.4236040">
        <ele>512.8</ele>
        <time>2019-10-19T10:40:12Z</time>
      </trkpt>
      <trkpt lat="39.7115280" lon="-0.4235860">
        <ele>513.3</ele>
        <time>2019-10-19T10:40:12Z</time>
      </trkpt>
      <trkpt lat="39.7115800" lon="-0.4235660">
        <ele>513.7</ele>
        <time>2019-10-19T10:40:12Z</time>
      </trkpt>
      <trkpt lat="39.7116300" lon="-0.4235420">
        <ele>514.2</ele>
        <time>2019-10-19T10:40:12Z</time>
      </trkpt>
      <trkpt lat="39.7116740" lon="-0.4235100">
        <ele>514.6</ele>
        <time>2019-10-19T10:40:12Z</time>
      </trkpt>
      <trkpt lat="39.7117190" lon="-0.4234760">
        <ele>515.0</ele>
        <time>2019-10-19T10:40:12Z</time>
      </trkpt>
      <trkpt lat="39.7117620" lon="-0.4234420">
        <ele>515.5</ele>
        <time>2019-10-19T10:40:12Z</time>
      </trkpt>
      <trkpt lat="39.7118090" lon="-0.4234160">
        <ele>515.9</ele>
        <time>2019-10-19T10:40:12Z</time>
      </trkpt>
      <trkpt lat="39.7118590" lon="-0.4233920">
        <ele>516.3</ele>
        <time>2019-10-19T10:40:12Z</time>
      </trkpt>
      <trkpt lat="39.7119040" lon="-0.4233620">
        <ele>516.7</ele>
        <time>2019-10-19T10:40:12Z</time>
      </trkpt>
      <trkpt lat="39.7121340" lon="-0.4232090">
        <ele>518.4</ele>
        <time>2019-10-19T10:40:12Z</time>
      </trkpt>
      <trkpt lat="39.7121830" lon="-0.4231820">
        <ele>518.8</ele>
        <time>2019-10-19T10:40:12Z</time>
      </trkpt>
      <trkpt lat="39.7122320" lon="-0.4231470">
        <ele>519.2</ele>
        <time>2019-10-19T10:40:12Z</time>
      </trkpt>
      <trkpt lat="39.7122820" lon="-0.4231190">
        <ele>519.6</ele>
        <time>2019-10-19T10:40:12Z</time>
      </trkpt>
      <trkpt lat="39.7123310" lon="-0.4230840">
        <ele>520.0</ele>
        <time>2019-10-19T10:40:12Z</time>
      </trkpt>
      <trkpt lat="39.7123800" lon="-0.4230560">
        <ele>520.5</ele>
        <time>2019-10-19T10:40:12Z</time>
      </trkpt>
      <trkpt lat="39.7124270" lon="-0.4230250">
        <ele>521.0</ele>
        <time>2019-10-19T10:40:12Z</time>
      </trkpt>
      <trkpt lat="39.7124690" lon="-0.4229940">
        <ele>521.5</ele>
        <time>2019-10-19T10:40:12Z</time>
      </trkpt>
      <trkpt lat="39.7125070" lon="-0.4229560">
        <ele>521.9</ele>
        <time>2019-10-19T10:40:12Z</time>
      </trkpt>
      <trkpt lat="39.7125440" lon="-0.4229290">
        <ele>522.4</ele>
        <time>2019-10-19T10:40:12Z</time>
      </trkpt>
      <trkpt lat="39.7125780" lon="-0.4228950">
        <ele>522.8</ele>
        <time>2019-10-19T10:40:12Z</time>
      </trkpt>
      <trkpt lat="39.7126120" lon="-0.4228630">
        <ele>523.3</ele>
        <time>2019-10-19T10:40:12Z</time>
      </trkpt>
      <trkpt lat="39.7126470" lon="-0.4228390">
        <ele>523.7</ele>
        <time>2019-10-19T10:40:12Z</time>
      </trkpt>
      <trkpt lat="39.7128310" lon="-0.4227530">
        <ele>525.8</ele>
        <time>2019-10-19T10:40:12Z</time>
      </trkpt>
      <trkpt lat="39.7128620" lon="-0.4227380">
        <ele>526.2</ele>
        <time>2019-10-19T10:40:12Z</time>
      </trkpt>
      <trkpt lat="39.7128880" lon="-0.4227270">
        <ele>526.6</ele>
        <time>2019-10-19T10:40:12Z</time>
      </trkpt>
      <trkpt lat="39.7129110" lon="-0.4227090">
        <ele>526.9</ele>
        <time>2019-10-19T10:40:12Z</time>
      </trkpt>
      <trkpt lat="39.7129340" lon="-0.4226920">
        <ele>527.3</ele>
        <time>2019-10-19T10:40:12Z</time>
      </trkpt>
      <trkpt lat="39.7129620" lon="-0.4226750">
        <ele>527.7</ele>
        <time>2019-10-19T10:40:12Z</time>
      </trkpt>
      <trkpt lat="39.7129960" lon="-0.4226630">
        <ele>528.2</ele>
        <time>2019-10-19T10:40:12Z</time>
      </trkpt>
      <trkpt lat="39.7130320" lon="-0.4226670">
        <ele>528.7</ele>
        <time>2019-10-19T10:40:12Z</time>
      </trkpt>
      <trkpt lat="39.7130620" lon="-0.4226900">
        <ele>529.1</ele>
        <time>2019-10-19T10:40:12Z</time>
      </trkpt>
      <trkpt lat="39.7130830" lon="-0.4227290">
        <ele>529.7</ele>
        <time>2019-10-19T10:40:12Z</time>
      </trkpt>
      <trkpt lat="39.7130900" lon="-0.4227820">
        <ele>530.2</ele>
        <time>2019-10-19T10:40:12Z</time>
      </trkpt>
      <trkpt lat="39.7130810" lon="-0.4228400">
        <ele>530.9</ele>
        <time>2019-10-19T10:40:12Z</time>
      </trkpt>
      <trkpt lat="39.7130580" lon="-0.4228860">
        <ele>531.5</ele>
        <time>2019-10-19T10:40:12Z</time>
      </trkpt>
      <trkpt lat="39.7130280" lon="-0.4229290">
        <ele>532.1</ele>
        <time>2019-10-19T10:40:12Z</time>
      </trkpt>
      <trkpt lat="39.7130000" lon="-0.4230280">
        <ele>533.3</ele>
        <time>2019-10-19T10:40:12Z</time>
      </trkpt>
      <trkpt lat="39.7130010" lon="-0.4230690">
        <ele>533.7</ele>
        <time>2019-10-19T10:40:12Z</time>
      </trkpt>
      <trkpt lat="39.7130050" lon="-0.4231040">
        <ele>534.1</ele>
        <time>2019-10-19T10:40:12Z</time>
      </trkpt>
      <trkpt lat="39.7130140" lon="-0.4231450">
        <ele>534.6</ele>
        <time>2019-10-19T10:40:12Z</time>
      </trkpt>
      <trkpt lat="39.7130340" lon="-0.4231860">
        <ele>535.1</ele>
        <time>2019-10-19T10:40:12Z</time>
      </trkpt>
      <trkpt lat="39.7130650" lon="-0.4232240">
        <ele>535.7</ele>
        <time>2019-10-19T10:40:12Z</time>
      </trkpt>
      <trkpt lat="39.7130950" lon="-0.4232590">
        <ele>536.3</ele>
        <time>2019-10-19T10:40:12Z</time>
      </trkpt>
      <trkpt lat="39.7131240" lon="-0.4233010">
        <ele>537.0</ele>
        <time>2019-10-19T10:40:12Z</time>
      </trkpt>
      <trkpt lat="39.7131450" lon="-0.4233490">
        <ele>537.6</ele>
        <time>2019-10-19T10:40:12Z</time>
      </trkpt>
      <trkpt lat="39.7131610" lon="-0.4234000">
        <ele>538.3</ele>
        <time>2019-10-19T10:40:12Z</time>
      </trkpt>
      <trkpt lat="39.7131750" lon="-0.4234510">
        <ele>539.0</ele>
        <time>2019-10-19T10:40:12Z</time>
      </trkpt>
      <trkpt lat="39.7131910" lon="-0.4235000">
        <ele>539.7</ele>
        <time>2019-10-19T10:40:12Z</time>
      </trkpt>
      <trkpt lat="39.7131930" lon="-0.4235460">
        <ele>540.3</ele>
        <time>2019-10-19T10:40:12Z</time>
      </trkpt>
      <trkpt lat="39.7131810" lon="-0.4235890">
        <ele>540.9</ele>
        <time>2019-10-19T10:40:12Z</time>
      </trkpt>
      <trkpt lat="39.7131580" lon="-0.4236250">
        <ele>541.6</ele>
        <time>2019-10-19T10:40:12Z</time>
      </trkpt>
      <trkpt lat="39.7130990" lon="-0.4236570">
        <ele>542.7</ele>
        <time>2019-10-19T10:40:12Z</time>
      </trkpt>
      <trkpt lat="39.7130690" lon="-0.4236580">
        <ele>543.2</ele>
        <time>2019-10-19T10:40:12Z</time>
      </trkpt>
      <trkpt lat="39.7130440" lon="-0.4236640">
        <ele>543.6</ele>
        <time>2019-10-19T10:40:12Z</time>
      </trkpt>
      <trkpt lat="39.7130170" lon="-0.4236620">
        <ele>544.0</ele>
        <time>2019-10-19T10:40:12Z</time>
      </trkpt>
      <trkpt lat="39.7129940" lon="-0.4236570">
        <ele>544.3</ele>
        <time>2019-10-19T10:40:12Z</time>
      </trkpt>
      <trkpt lat="39.7129620" lon="-0.4236510">
        <ele>544.8</ele>
        <time>2019-10-19T10:40:12Z</time>
      </trkpt>
      <trkpt lat="39.7129290" lon="-0.4236460">
        <ele>545.2</ele>
        <time>2019-10-19T10:40:12Z</time>
      </trkpt>
      <trkpt lat="39.7128970" lon="-0.4236320">
        <ele>545.7</ele>
        <time>2019-10-19T10:40:12Z</time>
      </trkpt>
      <trkpt lat="39.7128670" lon="-0.4236260">
        <ele>546.2</ele>
        <time>2019-10-19T10:40:12Z</time>
      </trkpt>
      <trkpt lat="39.7128330" lon="-0.4236140">
        <ele>546.7</ele>
        <time>2019-10-19T10:40:12Z</time>
      </trkpt>
      <trkpt lat="39.7128000" lon="-0.4236030">
        <ele>547.2</ele>
        <time>2019-10-19T10:40:12Z</time>
      </trkpt>
      <trkpt lat="39.7127690" lon="-0.4235920">
        <ele>547.6</ele>
        <time>2019-10-19T10:40:12Z</time>
      </trkpt>
      <trkpt lat="39.7127360" lon="-0.4235810">
        <ele>548.1</ele>
        <time>2019-10-19T10:40:12Z</time>
      </trkpt>
      <trkpt lat="39.7126990" lon="-0.4235590">
        <ele>548.7</ele>
        <time>2019-10-19T10:40:12Z</time>
      </trkpt>
      <trkpt lat="39.7126600" lon="-0.4235360">
        <ele>549.4</ele>
        <time>2019-10-19T10:40:12Z</time>
      </trkpt>
      <trkpt lat="39.7126210" lon="-0.4235130">
        <ele>550.1</ele>
        <time>2019-10-19T10:40:12Z</time>
      </trkpt>
      <trkpt lat="39.7125830" lon="-0.4234940">
        <ele>550.7</ele>
        <time>2019-10-19T10:40:12Z</time>
      </trkpt>
      <trkpt lat="39.7125500" lon="-0.4234850">
        <ele>551.3</ele>
        <time>2019-10-19T10:40:12Z</time>
      </trkpt>
      <trkpt lat="39.7125200" lon="-0.4234740">
        <ele>551.9</ele>
        <time>2019-10-19T10:40:12Z</time>
      </trkpt>
      <trkpt lat="39.7124860" lon="-0.4234770">
        <ele>552.6</ele>
        <time>2019-10-19T10:40:12Z</time>
      </trkpt>
      <trkpt lat="39.7124500" lon="-0.4234900">
        <ele>553.3</ele>
        <time>2019-10-19T10:40:12Z</time>
      </trkpt>
      <trkpt lat="39.7124160" lon="-0.4235160">
        <ele>554.0</ele>
        <time>2019-10-19T10:40:12Z</time>
      </trkpt>
      <trkpt lat="39.7123820" lon="-0.4235520">
        <ele>554.8</ele>
        <time>2019-10-19T10:40:12Z</time>
      </trkpt>
      <trkpt lat="39.7123480" lon="-0.4235920">
        <ele>555.6</ele>
        <time>2019-10-19T10:40:12Z</time>
      </trkpt>
      <trkpt lat="39.7123110" lon="-0.4236280">
        <ele>556.4</ele>
        <time>2019-10-19T10:40:12Z</time>
      </trkpt>
      <trkpt lat="39.7122790" lon="-0.4236710">
        <ele>557.2</ele>
        <time>2019-10-19T10:40:12Z</time>
      </trkpt>
      <trkpt lat="39.7122540" lon="-0.4237100">
        <ele>557.9</ele>
        <time>2019-10-19T10:40:12Z</time>
      </trkpt>
      <trkpt lat="39.7122300" lon="-0.4237560">
        <ele>558.6</ele>
        <time>2019-10-19T10:40:12Z</time>
      </trkpt>
      <trkpt lat="39.7122060" lon="-0.4237950">
        <ele>559.2</ele>
        <time>2019-10-19T10:40:12Z</time>
      </trkpt>
      <trkpt lat="39.7121800" lon="-0.4238340">
        <ele>559.7</ele>
        <time>2019-10-19T10:40:12Z</time>
      </trkpt>
      <trkpt lat="39.7121560" lon="-0.4238700">
        <ele>560.2</ele>
        <time>2019-10-19T10:40:12Z</time>
      </trkpt>
      <trkpt lat="39.7121310" lon="-0.4239060">
        <ele>560.6</ele>
        <time>2019-10-19T10:40:12Z</time>
      </trkpt>
      <trkpt lat="39.7121020" lon="-0.4239460">
        <ele>561.1</ele>
        <time>2019-10-19T10:40:12Z</time>
      </trkpt>
      <trkpt lat="39.7120750" lon="-0.4239980">
        <ele>561.6</ele>
        <time>2019-10-19T10:40:12Z</time>
      </trkpt>
      <trkpt lat="39.7120430" lon="-0.4240610">
        <ele>562.2</ele>
        <time>2019-10-19T10:40:12Z</time>
      </trkpt>
      <trkpt lat="39.7120100" lon="-0.4241280">
        <ele>562.8</ele>
        <time>2019-10-19T10:40:12Z</time>
      </trkpt>
      <trkpt lat="39.7119790" lon="-0.4242050">
        <ele>563.5</ele>
        <time>2019-10-19T10:40:12Z</time>
      </trkpt>
      <trkpt lat="39.7119520" lon="-0.4242690">
        <ele>564.0</ele>
        <time>2019-10-19T10:40:12Z</time>
      </trkpt>
      <trkpt lat="39.7119130" lon="-0.4243230">
        <ele>564.5</ele>
        <time>2019-10-19T10:40:12Z</time>
      </trkpt>
      <trkpt lat="39.7118670" lon="-0.4243770">
        <ele>565.1</ele>
        <time>2019-10-19T10:40:12Z</time>
      </trkpt>
      <trkpt lat="39.7118170" lon="-0.4244290">
        <ele>565.7</ele>
        <time>2019-10-19T10:40:12Z</time>
      </trkpt>
      <trkpt lat="39.7117700" lon="-0.4244780">
        <ele>566.3</ele>
        <time>2019-10-19T10:40:12Z</time>
      </trkpt>
      <trkpt lat="39.7117290" lon="-0.4245280">
        <ele>566.7</ele>
        <time>2019-10-19T10:40:12Z</time>
      </trkpt>
      <trkpt lat="39.7116760" lon="-0.4245790">
        <ele>567.2</ele>
        <time>2019-10-19T10:40:12Z</time>
      </trkpt>
      <trkpt lat="39.7116290" lon="-0.4246300">
        <ele>567.7</ele>
        <time>2019-10-19T10:40:12Z</time>
      </trkpt>
      <trkpt lat="39.7115780" lon="-0.4246850">
        <ele>568.3</ele>
        <time>2019-10-19T10:40:12Z</time>
      </trkpt>
      <trkpt lat="39.7115220" lon="-0.4247340">
        <ele>568.9</ele>
        <time>2019-10-19T10:40:12Z</time>
      </trkpt>
      <trkpt lat="39.7114620" lon="-0.4247810">
        <ele>569.4</ele>
        <time>2019-10-19T10:40:12Z</time>
      </trkpt>
      <trkpt lat="39.7114040" lon="-0.4248260">
        <ele>570.0</ele>
        <time>2019-10-19T10:40:12Z</time>
      </trkpt>
      <trkpt lat="39.7113450" lon="-0.4248750">
        <ele>570.6</ele>
        <time>2019-10-19T10:40:12Z</time>
      </trkpt>
      <trkpt lat="39.7112880" lon="-0.4249320">
        <ele>571.2</ele>
        <time>2019-10-19T10:40:12Z</time>
      </trkpt>
      <trkpt lat="39.7112410" lon="-0.4249920">
        <ele>571.8</ele>
        <time>2019-10-19T10:40:12Z</time>
      </trkpt>
      <trkpt lat="39.7111700" lon="-0.4251140">
        <ele>572.8</ele>
        <time>2019-10-19T10:40:12Z</time>
      </trkpt>
      <trkpt lat="39.7111320" lon="-0.4251700">
        <ele>573.3</ele>
        <time>2019-10-19T10:40:12Z</time>
      </trkpt>
      <trkpt lat="39.7110900" lon="-0.4252210">
        <ele>573.7</ele>
        <time>2019-10-19T10:40:12Z</time>
      </trkpt>
      <trkpt lat="39.7110390" lon="-0.4252660">
        <ele>574.1</ele>
        <time>2019-10-19T10:40:12Z</time>
      </trkpt>
      <trkpt lat="39.7109830" lon="-0.4253130">
        <ele>574.5</ele>
        <time>2019-10-19T10:40:12Z</time>
      </trkpt>
      <trkpt lat="39.7109260" lon="-0.4253670">
        <ele>574.9</ele>
        <time>2019-10-19T10:40:12Z</time>
      </trkpt>
      <trkpt lat="39.7108760" lon="-0.4254290">
        <ele>575.3</ele>
        <time>2019-10-19T10:40:12Z</time>
      </trkpt>
      <trkpt lat="39.7108250" lon="-0.4254950">
        <ele>575.7</ele>
        <time>2019-10-19T10:40:12Z</time>
      </trkpt>
      <trkpt lat="39.7107750" lon="-0.4255690">
        <ele>576.2</ele>
        <time>2019-10-19T10:40:12Z</time>
      </trkpt>
      <trkpt lat="39.7107230" lon="-0.4256360">
        <ele>576.8</ele>
        <time>2019-10-19T10:40:12Z</time>
      </trkpt>
      <trkpt lat="39.7106760" lon="-0.4257110">
        <ele>577.3</ele>
        <time>2019-10-19T10:40:12Z</time>
      </trkpt>
      <trkpt lat="39.7106340" lon="-0.4257830">
        <ele>577.8</ele>
        <time>2019-10-19T10:40:12Z</time>
      </trkpt>
      <trkpt lat="39.7105880" lon="-0.4258580">
        <ele>578.4</ele>
        <time>2019-10-19T10:40:12Z</time>
      </trkpt>
      <trkpt lat="39.7104270" lon="-0.4261020">
        <ele>579.7</ele>
        <time>2019-10-19T10:40:12Z</time>
      </trkpt>
      <trkpt lat="39.7102910" lon="-0.4262510">
        <ele>580.3</ele>
        <time>2019-10-19T10:40:12Z</time>
      </trkpt>
      <trkpt lat="39.7102020" lon="-0.4263490">
        <ele>580.5</ele>
        <time>2019-10-19T10:40:12Z</time>
      </trkpt>
      <trkpt lat="39.7101660" lon="-0.4264050">
        <ele>580.7</ele>
        <time>2019-10-19T10:40:12Z</time>
      </trkpt>
      <trkpt lat="39.7101190" lon="-0.4264540">
        <ele>580.8</ele>
        <time>2019-10-19T10:40:12Z</time>
      </trkpt>
      <trkpt lat="39.7100630" lon="-0.4264980">
        <ele>580.9</ele>
        <time>2019-10-19T10:40:12Z</time>
      </trkpt>
      <trkpt lat="39.7100040" lon="-0.4265450">
        <ele>581.2</ele>
        <time>2019-10-19T10:40:12Z</time>
      </trkpt>
      <trkpt lat="39.7097610" lon="-0.4267410">
        <ele>582.3</ele>
        <time>2019-10-19T10:40:12Z</time>
      </trkpt>
      <trkpt lat="39.7097040" lon="-0.4267970">
        <ele>582.7</ele>
        <time>2019-10-19T10:40:12Z</time>
      </trkpt>
      <trkpt lat="39.7096460" lon="-0.4268580">
        <ele>583.1</ele>
        <time>2019-10-19T10:40:12Z</time>
      </trkpt>
      <trkpt lat="39.7095920" lon="-0.4269230">
        <ele>583.6</ele>
        <time>2019-10-19T10:40:12Z</time>
      </trkpt>
      <trkpt lat="39.7095530" lon="-0.4269980">
        <ele>584.0</ele>
        <time>2019-10-19T10:40:12Z</time>
      </trkpt>
      <trkpt lat="39.7095180" lon="-0.4270790">
        <ele>584.5</ele>
        <time>2019-10-19T10:40:12Z</time>
      </trkpt>
      <trkpt lat="39.7094820" lon="-0.4271540">
        <ele>585.0</ele>
        <time>2019-10-19T10:40:12Z</time>
      </trkpt>
      <trkpt lat="39.7094450" lon="-0.4272240">
        <ele>585.5</ele>
        <time>2019-10-19T10:40:12Z</time>
      </trkpt>
      <trkpt lat="39.7094080" lon="-0.4272920">
        <ele>586.2</ele>
        <time>2019-10-19T10:40:12Z</time>
      </trkpt>
      <trkpt lat="39.7093770" lon="-0.4273630">
        <ele>586.9</ele>
        <time>2019-10-19T10:40:12Z</time>
      </trkpt>
      <trkpt lat="39.7093460" lon="-0.4274280">
        <ele>587.6</ele>
        <time>2019-10-19T10:40:12Z</time>
      </trkpt>
      <trkpt lat="39.7093150" lon="-0.4274910">
        <ele>588.3</ele>
        <time>2019-10-19T10:40:12Z</time>
      </trkpt>
      <trkpt lat="39.7092760" lon="-0.4275330">
        <ele>589.0</ele>
        <time>2019-10-19T10:40:12Z</time>
      </trkpt>
      <trkpt lat="39.7092350" lon="-0.4275680">
        <ele>589.7</ele>
        <time>2019-10-19T10:40:12Z</time>
      </trkpt>
      <trkpt lat="39.7091890" lon="-0.4275810">
        <ele>590.3</ele>
        <time>2019-10-19T10:40:12Z</time>
      </trkpt>
      <trkpt lat="39.7091320" lon="-0.4275860">
        <ele>591.0</ele>
        <time>2019-10-19T10:40:12Z</time>
      </trkpt>
      <trkpt lat="39.7090730" lon="-0.4275790">
        <ele>591.8</ele>
        <time>2019-10-19T10:40:12Z</time>
      </trkpt>
      <trkpt lat="39.7090120" lon="-0.4275760">
        <ele>592.7</ele>
        <time>2019-10-19T10:40:12Z</time>
      </trkpt>
      <trkpt lat="39.7089560" lon="-0.4275660">
        <ele>593.6</ele>
        <time>2019-10-19T10:40:12Z</time>
      </trkpt>
      <trkpt lat="39.7089100" lon="-0.4275530">
        <ele>594.3</ele>
        <time>2019-10-19T10:40:12Z</time>
      </trkpt>
      <trkpt lat="39.7088670" lon="-0.4275380">
        <ele>595.1</ele>
        <time>2019-10-19T10:40:12Z</time>
      </trkpt>
      <trkpt lat="39.7088340" lon="-0.4275360">
        <ele>595.7</ele>
        <time>2019-10-19T10:40:12Z</time>
      </trkpt>
      <trkpt lat="39.7088050" lon="-0.4275460">
        <ele>596.2</ele>
        <time>2019-10-19T10:40:12Z</time>
      </trkpt>
      <trkpt lat="39.7087770" lon="-0.4275710">
        <ele>596.7</ele>
        <time>2019-10-19T10:40:12Z</time>
      </trkpt>
      <trkpt lat="39.7087620" lon="-0.4276140">
        <ele>597.2</ele>
        <time>2019-10-19T10:40:12Z</time>
      </trkpt>
      <trkpt lat="39.7087530" lon="-0.4276660">
        <ele>597.7</ele>
        <time>2019-10-19T10:40:12Z</time>
      </trkpt>
      <trkpt lat="39.7087480" lon="-0.4277310">
        <ele>598.5</ele>
        <time>2019-10-19T10:40:12Z</time>
      </trkpt>
      <trkpt lat="39.7087410" lon="-0.4277960">
        <ele>599.1</ele>
        <time>2019-10-19T10:40:12Z</time>
      </trkpt>
      <trkpt lat="39.7087460" lon="-0.4278550">
        <ele>599.7</ele>
        <time>2019-10-19T10:40:12Z</time>
      </trkpt>
      <trkpt lat="39.7087500" lon="-0.4279130">
        <ele>600.2</ele>
        <time>2019-10-19T10:40:12Z</time>
      </trkpt>
      <trkpt lat="39.7087490" lon="-0.4279750">
        <ele>600.8</ele>
        <time>2019-10-19T10:40:12Z</time>
      </trkpt>
      <trkpt lat="39.7087420" lon="-0.4280360">
        <ele>601.3</ele>
        <time>2019-10-19T10:40:12Z</time>
      </trkpt>
      <trkpt lat="39.7087300" lon="-0.4280950">
        <ele>601.8</ele>
        <time>2019-10-19T10:40:12Z</time>
      </trkpt>
      <trkpt lat="39.7087140" lon="-0.4281390">
        <ele>602.2</ele>
        <time>2019-10-19T10:40:12Z</time>
      </trkpt>
      <trkpt lat="39.7086700" lon="-0.4282350">
        <ele>602.9</ele>
        <time>2019-10-19T10:40:12Z</time>
      </trkpt>
      <trkpt lat="39.7085980" lon="-0.4284250">
        <ele>603.8</ele>
        <time>2019-10-19T10:40:12Z</time>
      </trkpt>
      <trkpt lat="39.7085210" lon="-0.4285400">
        <ele>604.2</ele>
        <time>2019-10-19T10:40:12Z</time>
      </trkpt>
      <trkpt lat="39.7084930" lon="-0.4285620">
        <ele>604.3</ele>
        <time>2019-10-19T10:40:12Z</time>
      </trkpt>
      <trkpt lat="39.7084610" lon="-0.4285840">
        <ele>604.4</ele>
        <time>2019-10-19T10:40:12Z</time>
      </trkpt>
      <trkpt lat="39.7084300" lon="-0.4286190">
        <ele>604.5</ele>
        <time>2019-10-19T10:40:12Z</time>
      </trkpt>
      <trkpt lat="39.7084080" lon="-0.4286480">
        <ele>604.5</ele>
        <time>2019-10-19T10:40:12Z</time>
      </trkpt>
      <trkpt lat="39.7084040" lon="-0.4286520">
        <ele>604.5</ele>
        <time>2019-10-19T10:40:12Z</time>
      </trkpt>
      <trkpt lat="39.7084040" lon="-0.4286520">
        <ele>604.5</ele>
        <time>2019-10-19T10:40:12Z</time>
      </trkpt>
      <trkpt lat="39.7084040" lon="-0.4286520">
        <ele>604.5</ele>
        <time>2019-10-19T10:40:12Z</time>
      </trkpt>
      <trkpt lat="39.7084040" lon="-0.4286510">
        <ele>604.5</ele>
        <time>2019-10-19T10:40:12Z</time>
      </trkpt>
      <trkpt lat="39.7084040" lon="-0.4286510">
        <ele>604.5</ele>
        <time>2019-10-19T10:40:12Z</time>
      </trkpt>
      <trkpt lat="39.7084080" lon="-0.4286500">
        <ele>604.5</ele>
        <time>2019-10-19T10:40:12Z</time>
      </trkpt>
      <trkpt lat="39.7084040" lon="-0.4286510">
        <ele>604.5</ele>
        <time>2019-10-19T10:40:12Z</time>
      </trkpt>
      <trkpt lat="39.7084040" lon="-0.4286510">
        <ele>604.5</ele>
        <time>2019-10-19T10:40:12Z</time>
      </trkpt>
      <trkpt lat="39.7084040" lon="-0.4286520">
        <ele>604.5</ele>
        <time>2019-10-19T10:40:12Z</time>
      </trkpt>
      <trkpt lat="39.7084040" lon="-0.4286520">
        <ele>604.5</ele>
        <time>2019-10-19T10:40:12Z</time>
      </trkpt>
      <trkpt lat="39.7084040" lon="-0.4286520">
        <ele>604.5</ele>
        <time>2019-10-19T10:40:12Z</time>
      </trkpt>
      <trkpt lat="39.7084040" lon="-0.4286520">
        <ele>604.5</ele>
        <time>2019-10-19T10:40:12Z</time>
      </trkpt>
      <trkpt lat="39.7084040" lon="-0.4286520">
        <ele>604.5</ele>
        <time>2019-10-19T10:40:12Z</time>
      </trkpt>
      <trkpt lat="39.7084040" lon="-0.4286520">
        <ele>604.5</ele>
        <time>2019-10-19T10:40:12Z</time>
      </trkpt>
      <trkpt lat="39.7084050" lon="-0.4286510">
        <ele>604.6</ele>
        <time>2019-10-19T10:40:12Z</time>
      </trkpt>
      <trkpt lat="39.7084050" lon="-0.4286510">
        <ele>604.6</ele>
        <time>2019-10-19T10:40:12Z</time>
      </trkpt>
      <trkpt lat="39.7084050" lon="-0.4286510">
        <ele>604.6</ele>
        <time>2019-10-19T10:40:12Z</time>
      </trkpt>
      <trkpt lat="39.7084050" lon="-0.4286510">
        <ele>604.6</ele>
        <time>2019-10-19T10:40:12Z</time>
      </trkpt>
      <trkpt lat="39.7084050" lon="-0.4286510">
        <ele>604.6</ele>
        <time>2019-10-19T10:40:12Z</time>
      </trkpt>
      <trkpt lat="39.7084050" lon="-0.4286510">
        <ele>604.6</ele>
        <time>2019-10-19T10:40:12Z</time>
      </trkpt>
      <trkpt lat="39.7084030" lon="-0.4286530">
        <ele>604.6</ele>
        <time>2019-10-19T10:40:12Z</time>
      </trkpt>
      <trkpt lat="39.7084030" lon="-0.4286530">
        <ele>604.6</ele>
        <time>2019-10-19T10:40:12Z</time>
      </trkpt>
      <trkpt lat="39.7084030" lon="-0.4286530">
        <ele>604.6</ele>
        <time>2019-10-19T10:40:12Z</time>
      </trkpt>
      <trkpt lat="39.7083980" lon="-0.4286610">
        <ele>604.6</ele>
        <time>2019-10-19T10:40:12Z</time>
      </trkpt>
      <trkpt lat="39.7083630" lon="-0.4287040">
        <ele>604.7</ele>
        <time>2019-10-19T10:40:12Z</time>
      </trkpt>
      <trkpt lat="39.7082990" lon="-0.4287840">
        <ele>604.9</ele>
        <time>2019-10-19T10:40:12Z</time>
      </trkpt>
      <trkpt lat="39.7082060" lon="-0.4288590">
        <ele>605.0</ele>
        <time>2019-10-19T10:40:12Z</time>
      </trkpt>
      <trkpt lat="39.7081740" lon="-0.4288760">
        <ele>604.8</ele>
        <time>2019-10-19T10:40:12Z</time>
      </trkpt>
      <trkpt lat="39.7080960" lon="-0.4289320">
        <ele>604.3</ele>
        <time>2019-10-19T10:40:12Z</time>
      </trkpt>
      <trkpt lat="39.7080840" lon="-0.4289430">
        <ele>604.2</ele>
        <time>2019-10-19T10:40:12Z</time>
      </trkpt>
      <trkpt lat="39.7080730" lon="-0.4289560">
        <ele>604.2</ele>
        <time>2019-10-19T10:40:12Z</time>
      </trkpt>
      <trkpt lat="39.7080600" lon="-0.4289640">
        <ele>604.1</ele>
        <time>2019-10-19T10:40:12Z</time>
      </trkpt>
      <trkpt lat="39.7080480" lon="-0.4289700">
        <ele>604.0</ele>
        <time>2019-10-19T10:40:12Z</time>
      </trkpt>
      <trkpt lat="39.7080340" lon="-0.4289750">
        <ele>603.9</ele>
        <time>2019-10-19T10:40:12Z</time>
      </trkpt>
      <trkpt lat="39.7079940" lon="-0.4289880">
        <ele>603.5</ele>
        <time>2019-10-19T10:40:12Z</time>
      </trkpt>
      <trkpt lat="39.7079290" lon="-0.4290200">
        <ele>602.8</ele>
        <time>2019-10-19T10:40:12Z</time>
      </trkpt>
      <trkpt lat="39.7078950" lon="-0.4290340">
        <ele>602.4</ele>
        <time>2019-10-19T10:40:12Z</time>
      </trkpt>
      <trkpt lat="39.7078690" lon="-0.4290450">
        <ele>602.0</ele>
        <time>2019-10-19T10:40:12Z</time>
      </trkpt>
      <trkpt lat="39.7078560" lon="-0.4290530">
        <ele>601.8</ele>
        <time>2019-10-19T10:40:12Z</time>
      </trkpt>
      <trkpt lat="39.7078400" lon="-0.4290520">
        <ele>601.6</ele>
        <time>2019-10-19T10:40:12Z</time>
      </trkpt>
      <trkpt lat="39.7078220" lon="-0.4290460">
        <ele>601.3</ele>
        <time>2019-10-19T10:40:12Z</time>
      </trkpt>
      <trkpt lat="39.7078040" lon="-0.4290410">
        <ele>601.1</ele>
        <time>2019-10-19T10:40:12Z</time>
      </trkpt>
      <trkpt lat="39.7077880" lon="-0.4290380">
        <ele>600.8</ele>
        <time>2019-10-19T10:40:12Z</time>
      </trkpt>
      <trkpt lat="39.7077730" lon="-0.4290420">
        <ele>600.6</ele>
        <time>2019-10-19T10:40:12Z</time>
      </trkpt>
      <trkpt lat="39.7077570" lon="-0.4290580">
        <ele>600.3</ele>
        <time>2019-10-19T10:40:12Z</time>
      </trkpt>
      <trkpt lat="39.7077460" lon="-0.4290780">
        <ele>600.0</ele>
        <time>2019-10-19T10:40:12Z</time>
      </trkpt>
      <trkpt lat="39.7077390" lon="-0.4291020">
        <ele>599.7</ele>
        <time>2019-10-19T10:40:12Z</time>
      </trkpt>
      <trkpt lat="39.7077350" lon="-0.4291290">
        <ele>599.4</ele>
        <time>2019-10-19T10:40:12Z</time>
      </trkpt>
      <trkpt lat="39.7077310" lon="-0.4292080">
        <ele>598.6</ele>
        <time>2019-10-19T10:40:12Z</time>
      </trkpt>
      <trkpt lat="39.7077310" lon="-0.4292320">
        <ele>598.3</ele>
        <time>2019-10-19T10:40:12Z</time>
      </trkpt>
      <trkpt lat="39.7077280" lon="-0.4292580">
        <ele>598.1</ele>
        <time>2019-10-19T10:40:12Z</time>
      </trkpt>
      <trkpt lat="39.7077260" lon="-0.4292780">
        <ele>597.9</ele>
        <time>2019-10-19T10:40:12Z</time>
      </trkpt>
      <trkpt lat="39.7077250" lon="-0.4292980">
        <ele>597.7</ele>
        <time>2019-10-19T10:40:12Z</time>
      </trkpt>
      <trkpt lat="39.7077320" lon="-0.4293740">
        <ele>596.9</ele>
        <time>2019-10-19T10:40:12Z</time>
      </trkpt>
      <trkpt lat="39.7077310" lon="-0.4293950">
        <ele>596.7</ele>
        <time>2019-10-19T10:40:12Z</time>
      </trkpt>
      <trkpt lat="39.7077260" lon="-0.4294140">
        <ele>596.5</ele>
        <time>2019-10-19T10:40:12Z</time>
      </trkpt>
      <trkpt lat="39.7077250" lon="-0.4294370">
        <ele>596.2</ele>
        <time>2019-10-19T10:40:12Z</time>
      </trkpt>
      <trkpt lat="39.7077220" lon="-0.4294570">
        <ele>596.0</ele>
        <time>2019-10-19T10:40:12Z</time>
      </trkpt>
      <trkpt lat="39.7077200" lon="-0.4295070">
        <ele>595.5</ele>
        <time>2019-10-19T10:40:12Z</time>
      </trkpt>
      <trkpt lat="39.7077360" lon="-0.4295800">
        <ele>594.7</ele>
        <time>2019-10-19T10:40:12Z</time>
      </trkpt>
      <trkpt lat="39.7077390" lon="-0.4295970">
        <ele>594.5</ele>
        <time>2019-10-19T10:40:12Z</time>
      </trkpt>
      <trkpt lat="39.7077410" lon="-0.4296120">
        <ele>594.3</ele>
        <time>2019-10-19T10:40:12Z</time>
      </trkpt>
      <trkpt lat="39.7077460" lon="-0.4296300">
        <ele>594.1</ele>
        <time>2019-10-19T10:40:12Z</time>
      </trkpt>
      <trkpt lat="39.7077530" lon="-0.4296460">
        <ele>593.9</ele>
        <time>2019-10-19T10:40:12Z</time>
      </trkpt>
      <trkpt lat="39.7077970" lon="-0.4297500">
        <ele>592.7</ele>
        <time>2019-10-19T10:40:12Z</time>
      </trkpt>
      <trkpt lat="39.7078060" lon="-0.4297670">
        <ele>592.4</ele>
        <time>2019-10-19T10:40:12Z</time>
      </trkpt>
      <trkpt lat="39.7078150" lon="-0.4297840">
        <ele>592.2</ele>
        <time>2019-10-19T10:40:12Z</time>
      </trkpt>
      <trkpt lat="39.7078250" lon="-0.4298030">
        <ele>592.0</ele>
        <time>2019-10-19T10:40:12Z</time>
      </trkpt>
      <trkpt lat="39.7078370" lon="-0.4298190">
        <ele>591.8</ele>
        <time>2019-10-19T10:40:12Z</time>
      </trkpt>
      <trkpt lat="39.7078620" lon="-0.4298440">
        <ele>591.4</ele>
        <time>2019-10-19T10:40:12Z</time>
      </trkpt>
      <trkpt lat="39.7079190" lon="-0.4298890">
        <ele>590.6</ele>
        <time>2019-10-19T10:40:12Z</time>
      </trkpt>
      <trkpt lat="39.7079360" lon="-0.4298980">
        <ele>590.4</ele>
        <time>2019-10-19T10:40:12Z</time>
      </trkpt>
      <trkpt lat="39.7079510" lon="-0.4299060">
        <ele>590.2</ele>
        <time>2019-10-19T10:40:12Z</time>
      </trkpt>
      <trkpt lat="39.7079660" lon="-0.4299130">
        <ele>590.1</ele>
        <time>2019-10-19T10:40:12Z</time>
      </trkpt>
      <trkpt lat="39.7080750" lon="-0.4299520">
        <ele>588.8</ele>
        <time>2019-10-19T10:40:12Z</time>
      </trkpt>
      <trkpt lat="39.7081190" lon="-0.4299750">
        <ele>588.3</ele>
        <time>2019-10-19T10:40:12Z</time>
      </trkpt>
      <trkpt lat="39.7081310" lon="-0.4299750">
        <ele>588.1</ele>
        <time>2019-10-19T10:40:12Z</time>
      </trkpt>
      <trkpt lat="39.7081490" lon="-0.4299770">
        <ele>587.9</ele>
        <time>2019-10-19T10:40:12Z</time>
      </trkpt>
      <trkpt lat="39.7081660" lon="-0.4299810">
        <ele>587.7</ele>
        <time>2019-10-19T10:40:12Z</time>
      </trkpt>
      <trkpt lat="39.7081810" lon="-0.4299850">
        <ele>587.6</ele>
        <time>2019-10-19T10:40:12Z</time>
      </trkpt>
      <trkpt lat="39.7082610" lon="-0.4300050">
        <ele>586.7</ele>
        <time>2019-10-19T10:40:12Z</time>
      </trkpt>
      <trkpt lat="39.7082780" lon="-0.4300140">
        <ele>586.5</ele>
        <time>2019-10-19T10:40:12Z</time>
      </trkpt>
      <trkpt lat="39.7082930" lon="-0.4300190">
        <ele>586.4</ele>
        <time>2019-10-19T10:40:12Z</time>
      </trkpt>
      <trkpt lat="39.7083080" lon="-0.4300280">
        <ele>586.3</ele>
        <time>2019-10-19T10:40:12Z</time>
      </trkpt>
      <trkpt lat="39.7083250" lon="-0.4300410">
        <ele>586.1</ele>
        <time>2019-10-19T10:40:12Z</time>
      </trkpt>
      <trkpt lat="39.7084060" lon="-0.4301400">
        <ele>585.3</ele>
        <time>2019-10-19T10:40:12Z</time>
      </trkpt>
      <trkpt lat="39.7084310" lon="-0.4302370">
        <ele>584.8</ele>
        <time>2019-10-19T10:40:12Z</time>
      </trkpt>
      <trkpt lat="39.7084350" lon="-0.4302600">
        <ele>584.7</ele>
        <time>2019-10-19T10:40:12Z</time>
      </trkpt>
      <trkpt lat="39.7084380" lon="-0.4302820">
        <ele>584.6</ele>
        <time>2019-10-19T10:40:12Z</time>
      </trkpt>
      <trkpt lat="39.7084420" lon="-0.4303040">
        <ele>584.5</ele>
        <time>2019-10-19T10:40:12Z</time>
      </trkpt>
      <trkpt lat="39.7084470" lon="-0.4303260">
        <ele>584.4</ele>
        <time>2019-10-19T10:40:12Z</time>
      </trkpt>
      <trkpt lat="39.7084520" lon="-0.4303470">
        <ele>584.3</ele>
        <time>2019-10-19T10:40:12Z</time>
      </trkpt>
      <trkpt lat="39.7084620" lon="-0.4304960">
        <ele>583.6</ele>
        <time>2019-10-19T10:40:12Z</time>
      </trkpt>
      <trkpt lat="39.7084820" lon="-0.4306420">
        <ele>582.8</ele>
        <time>2019-10-19T10:40:12Z</time>
      </trkpt>
      <trkpt lat="39.7084850" lon="-0.4306610">
        <ele>582.7</ele>
        <time>2019-10-19T10:40:12Z</time>
      </trkpt>
      <trkpt lat="39.7084910" lon="-0.4306810">
        <ele>582.5</ele>
        <time>2019-10-19T10:40:12Z</time>
      </trkpt>
      <trkpt lat="39.7084990" lon="-0.4307010">
        <ele>582.4</ele>
        <time>2019-10-19T10:40:12Z</time>
      </trkpt>
      <trkpt lat="39.7085040" lon="-0.4307210">
        <ele>582.3</ele>
        <time>2019-10-19T10:40:12Z</time>
      </trkpt>
      <trkpt lat="39.7085100" lon="-0.4307410">
        <ele>582.1</ele>
        <time>2019-10-19T10:40:12Z</time>
      </trkpt>
      <trkpt lat="39.7085180" lon="-0.4307610">
        <ele>582.0</ele>
        <time>2019-10-19T10:40:12Z</time>
      </trkpt>
      <trkpt lat="39.7085360" lon="-0.4307950">
        <ele>581.7</ele>
        <time>2019-10-19T10:40:12Z</time>
      </trkpt>
      <trkpt lat="39.7085880" lon="-0.4308700">
        <ele>581.1</ele>
        <time>2019-10-19T10:40:12Z</time>
      </trkpt>
      <trkpt lat="39.7086690" lon="-0.4309310">
        <ele>580.4</ele>
        <time>2019-10-19T10:40:12Z</time>
      </trkpt>
      <trkpt lat="39.7086820" lon="-0.4309370">
        <ele>580.2</ele>
        <time>2019-10-19T10:40:12Z</time>
      </trkpt>
      <trkpt lat="39.7087560" lon="-0.4309800">
        <ele>579.6</ele>
        <time>2019-10-19T10:40:12Z</time>
      </trkpt>
      <trkpt lat="39.7087720" lon="-0.4309860">
        <ele>579.5</ele>
        <time>2019-10-19T10:40:12Z</time>
      </trkpt>
      <trkpt lat="39.7087860" lon="-0.4309960">
        <ele>579.3</ele>
        <time>2019-10-19T10:40:12Z</time>
      </trkpt>
      <trkpt lat="39.7088050" lon="-0.4310050">
        <ele>579.2</ele>
        <time>2019-10-19T10:40:12Z</time>
      </trkpt>
      <trkpt lat="39.7088210" lon="-0.4310120">
        <ele>579.0</ele>
        <time>2019-10-19T10:40:12Z</time>
      </trkpt>
      <trkpt lat="39.7088450" lon="-0.4310260">
        <ele>578.7</ele>
        <time>2019-10-19T10:40:12Z</time>
      </trkpt>
      <trkpt lat="39.7088580" lon="-0.4310310">
        <ele>578.6</ele>
        <time>2019-10-19T10:40:12Z</time>
      </trkpt>
      <trkpt lat="39.7089330" lon="-0.4310610">
        <ele>577.8</ele>
        <time>2019-10-19T10:40:12Z</time>
      </trkpt>
      <trkpt lat="39.7089490" lon="-0.4310680">
        <ele>577.6</ele>
        <time>2019-10-19T10:40:12Z</time>
      </trkpt>
      <trkpt lat="39.7089680" lon="-0.4310750">
        <ele>577.4</ele>
        <time>2019-10-19T10:40:12Z</time>
      </trkpt>
      <trkpt lat="39.7089870" lon="-0.4310820">
        <ele>577.2</ele>
        <time>2019-10-19T10:40:12Z</time>
      </trkpt>
      <trkpt lat="39.7090030" lon="-0.4310890">
        <ele>577.0</ele>
        <time>2019-10-19T10:40:12Z</time>
      </trkpt>
      <trkpt lat="39.7090220" lon="-0.4310960">
        <ele>576.8</ele>
        <time>2019-10-19T10:40:12Z</time>
      </trkpt>
      <trkpt lat="39.7090950" lon="-0.4311720">
        <ele>575.8</ele>
        <time>2019-10-19T10:40:12Z</time>
      </trkpt>
      <trkpt lat="39.7090990" lon="-0.4311980">
        <ele>575.5</ele>
        <time>2019-10-19T10:40:12Z</time>
      </trkpt>
      <trkpt lat="39.7091030" lon="-0.4312200">
        <ele>575.3</ele>
        <time>2019-10-19T10:40:12Z</time>
      </trkpt>
      <trkpt lat="39.7091000" lon="-0.4312370">
        <ele>575.2</ele>
        <time>2019-10-19T10:40:12Z</time>
      </trkpt>
      <trkpt lat="39.7090950" lon="-0.4312540">
        <ele>575.0</ele>
        <time>2019-10-19T10:40:12Z</time>
      </trkpt>
      <trkpt lat="39.7090700" lon="-0.4312910">
        <ele>574.5</ele>
        <time>2019-10-19T10:40:12Z</time>
      </trkpt>
      <trkpt lat="39.7090220" lon="-0.4313650">
        <ele>573.6</ele>
        <time>2019-10-19T10:40:12Z</time>
      </trkpt>
      <trkpt lat="39.7090130" lon="-0.4313770">
        <ele>573.4</ele>
        <time>2019-10-19T10:40:12Z</time>
      </trkpt>
      <trkpt lat="39.7090010" lon="-0.4313910">
        <ele>573.2</ele>
        <time>2019-10-19T10:40:12Z</time>
      </trkpt>
      <trkpt lat="39.7089910" lon="-0.4314120">
        <ele>572.9</ele>
        <time>2019-10-19T10:40:12Z</time>
      </trkpt>
      <trkpt lat="39.7089780" lon="-0.4314350">
        <ele>572.7</ele>
        <time>2019-10-19T10:40:12Z</time>
      </trkpt>
      <trkpt lat="39.7089360" lon="-0.4314960">
        <ele>571.9</ele>
        <time>2019-10-19T10:40:12Z</time>
      </trkpt>
      <trkpt lat="39.7089210" lon="-0.4315170">
        <ele>571.6</ele>
        <time>2019-10-19T10:40:12Z</time>
      </trkpt>
      <trkpt lat="39.7089040" lon="-0.4315310">
        <ele>571.4</ele>
        <time>2019-10-19T10:40:12Z</time>
      </trkpt>
      <trkpt lat="39.7088840" lon="-0.4315430">
        <ele>571.1</ele>
        <time>2019-10-19T10:40:12Z</time>
      </trkpt>
      <trkpt lat="39.7088360" lon="-0.4315940">
        <ele>570.5</ele>
        <time>2019-10-19T10:40:12Z</time>
      </trkpt>
      <trkpt lat="39.7087980" lon="-0.4316400">
        <ele>570.1</ele>
        <time>2019-10-19T10:40:12Z</time>
      </trkpt>
      <trkpt lat="39.7087880" lon="-0.4316560">
        <ele>570.0</ele>
        <time>2019-10-19T10:40:12Z</time>
      </trkpt>
      <trkpt lat="39.7087780" lon="-0.4316760">
        <ele>569.8</ele>
        <time>2019-10-19T10:40:12Z</time>
      </trkpt>
      <trkpt lat="39.7087730" lon="-0.4316950">
        <ele>569.7</ele>
        <time>2019-10-19T10:40:12Z</time>
      </trkpt>
      <trkpt lat="39.7087630" lon="-0.4317130">
        <ele>569.6</ele>
        <time>2019-10-19T10:40:12Z</time>
      </trkpt>
      <trkpt lat="39.7087160" lon="-0.4317830">
        <ele>569.3</ele>
        <time>2019-10-19T10:40:12Z</time>
      </trkpt>
      <trkpt lat="39.7086870" lon="-0.4318420">
        <ele>569.1</ele>
        <time>2019-10-19T10:40:12Z</time>
      </trkpt>
      <trkpt lat="39.7086770" lon="-0.4318590">
        <ele>569.1</ele>
        <time>2019-10-19T10:40:12Z</time>
      </trkpt>
      <trkpt lat="39.7086150" lon="-0.4319740">
        <ele>568.8</ele>
        <time>2019-10-19T10:40:12Z</time>
      </trkpt>
      <trkpt lat="39.7085340" lon="-0.4320650">
        <ele>568.5</ele>
        <time>2019-10-19T10:40:12Z</time>
      </trkpt>
      <trkpt lat="39.7084130" lon="-0.4321120">
        <ele>567.9</ele>
        <time>2019-10-19T10:40:12Z</time>
      </trkpt>
      <trkpt lat="39.7083990" lon="-0.4321220">
        <ele>567.8</ele>
        <time>2019-10-19T10:40:12Z</time>
      </trkpt>
      <trkpt lat="39.7083840" lon="-0.4321290">
        <ele>567.7</ele>
        <time>2019-10-19T10:40:12Z</time>
      </trkpt>
      <trkpt lat="39.7083690" lon="-0.4321350">
        <ele>567.6</ele>
        <time>2019-10-19T10:40:12Z</time>
      </trkpt>
      <trkpt lat="39.7083540" lon="-0.4321410">
        <ele>567.5</ele>
        <time>2019-10-19T10:40:12Z</time>
      </trkpt>
      <trkpt lat="39.7082920" lon="-0.4321600">
        <ele>567.0</ele>
        <time>2019-10-19T10:40:12Z</time>
      </trkpt>
      <trkpt lat="39.7081800" lon="-0.4321980">
        <ele>565.8</ele>
        <time>2019-10-19T10:40:12Z</time>
      </trkpt>
      <trkpt lat="39.7081320" lon="-0.4322260">
        <ele>565.2</ele>
        <time>2019-10-19T10:40:12Z</time>
      </trkpt>
      <trkpt lat="39.7081220" lon="-0.4322300">
        <ele>565.0</ele>
        <time>2019-10-19T10:40:12Z</time>
      </trkpt>
      <trkpt lat="39.7081090" lon="-0.4322330">
        <ele>564.9</ele>
        <time>2019-10-19T10:40:12Z</time>
      </trkpt>
      <trkpt lat="39.7080990" lon="-0.4322370">
        <ele>564.7</ele>
        <time>2019-10-19T10:40:12Z</time>
      </trkpt>
      <trkpt lat="39.7080890" lon="-0.4322400">
        <ele>564.6</ele>
        <time>2019-10-19T10:40:12Z</time>
      </trkpt>
      <trkpt lat="39.7080790" lon="-0.4322460">
        <ele>564.5</ele>
        <time>2019-10-19T10:40:12Z</time>
      </trkpt>
      <trkpt lat="39.7080280" lon="-0.4322810">
        <ele>563.6</ele>
        <time>2019-10-19T10:40:12Z</time>
      </trkpt>
      <trkpt lat="39.7080180" lon="-0.4322850">
        <ele>563.4</ele>
        <time>2019-10-19T10:40:12Z</time>
      </trkpt>
      <trkpt lat="39.7080060" lon="-0.4322860">
        <ele>563.3</ele>
        <time>2019-10-19T10:40:12Z</time>
      </trkpt>
      <trkpt lat="39.7079940" lon="-0.4322950">
        <ele>563.0</ele>
        <time>2019-10-19T10:40:12Z</time>
      </trkpt>
      <trkpt lat="39.7079790" lon="-0.4323020">
        <ele>562.8</ele>
        <time>2019-10-19T10:40:12Z</time>
      </trkpt>
      <trkpt lat="39.7079630" lon="-0.4323090">
        <ele>562.5</ele>
        <time>2019-10-19T10:40:12Z</time>
      </trkpt>
      <trkpt lat="39.7079480" lon="-0.4323150">
        <ele>562.3</ele>
        <time>2019-10-19T10:40:12Z</time>
      </trkpt>
      <trkpt lat="39.7079230" lon="-0.4323430">
        <ele>561.7</ele>
        <time>2019-10-19T10:40:12Z</time>
      </trkpt>
      <trkpt lat="39.7079140" lon="-0.4323530">
        <ele>561.5</ele>
        <time>2019-10-19T10:40:12Z</time>
      </trkpt>
      <trkpt lat="39.7079020" lon="-0.4323620">
        <ele>561.3</ele>
        <time>2019-10-19T10:40:12Z</time>
      </trkpt>
      <trkpt lat="39.7078890" lon="-0.4323680">
        <ele>561.0</ele>
        <time>2019-10-19T10:40:12Z</time>
      </trkpt>
      <trkpt lat="39.7078750" lon="-0.4323730">
        <ele>560.8</ele>
        <time>2019-10-19T10:40:12Z</time>
      </trkpt>
      <trkpt lat="39.7078150" lon="-0.4323910">
        <ele>559.7</ele>
        <time>2019-10-19T10:40:12Z</time>
      </trkpt>
      <trkpt lat="39.7078040" lon="-0.4323950">
        <ele>559.5</ele>
        <time>2019-10-19T10:40:12Z</time>
      </trkpt>
      <trkpt lat="39.7077960" lon="-0.4324060">
        <ele>559.3</ele>
        <time>2019-10-19T10:40:12Z</time>
      </trkpt>
      <trkpt lat="39.7077860" lon="-0.4324190">
        <ele>559.1</ele>
        <time>2019-10-19T10:40:12Z</time>
      </trkpt>
      <trkpt lat="39.7077760" lon="-0.4324330">
        <ele>558.9</ele>
        <time>2019-10-19T10:40:12Z</time>
      </trkpt>
      <trkpt lat="39.7077650" lon="-0.4324470">
        <ele>558.6</ele>
        <time>2019-10-19T10:40:12Z</time>
      </trkpt>
      <trkpt lat="39.7077390" lon="-0.4324860">
        <ele>558.0</ele>
        <time>2019-10-19T10:40:12Z</time>
      </trkpt>
      <trkpt lat="39.7077060" lon="-0.4325270">
        <ele>557.3</ele>
        <time>2019-10-19T10:40:12Z</time>
      </trkpt>
      <trkpt lat="39.7076910" lon="-0.4325340">
        <ele>557.1</ele>
        <time>2019-10-19T10:40:12Z</time>
      </trkpt>
      <trkpt lat="39.7076790" lon="-0.4325420">
        <ele>556.9</ele>
        <time>2019-10-19T10:40:12Z</time>
      </trkpt>
      <trkpt lat="39.7076710" lon="-0.4325530">
        <ele>556.7</ele>
        <time>2019-10-19T10:40:12Z</time>
      </trkpt>
      <trkpt lat="39.7076190" lon="-0.4326240">
        <ele>555.5</ele>
        <time>2019-10-19T10:40:12Z</time>
      </trkpt>
      <trkpt lat="39.7076010" lon="-0.4326610">
        <ele>555.0</ele>
        <time>2019-10-19T10:40:12Z</time>
      </trkpt>
      <trkpt lat="39.7075950" lon="-0.4326740">
        <ele>554.9</ele>
        <time>2019-10-19T10:40:12Z</time>
      </trkpt>
      <trkpt lat="39.7075890" lon="-0.4326880">
        <ele>554.7</ele>
        <time>2019-10-19T10:40:12Z</time>
      </trkpt>
      <trkpt lat="39.7075820" lon="-0.4326990">
        <ele>554.5</ele>
        <time>2019-10-19T10:40:12Z</time>
      </trkpt>
      <trkpt lat="39.7075760" lon="-0.4327170">
        <ele>554.2</ele>
        <time>2019-10-19T10:40:12Z</time>
      </trkpt>
      <trkpt lat="39.7075690" lon="-0.4327340">
        <ele>554.0</ele>
        <time>2019-10-19T10:40:12Z</time>
      </trkpt>
      <trkpt lat="39.7075520" lon="-0.4327590">
        <ele>553.6</ele>
        <time>2019-10-19T10:40:12Z</time>
      </trkpt>
      <trkpt lat="39.7075380" lon="-0.4328090">
        <ele>552.9</ele>
        <time>2019-10-19T10:40:12Z</time>
      </trkpt>
      <trkpt lat="39.7075320" lon="-0.4328230">
        <ele>552.8</ele>
        <time>2019-10-19T10:40:12Z</time>
      </trkpt>
      <trkpt lat="39.7075270" lon="-0.4328410">
        <ele>552.5</ele>
        <time>2019-10-19T10:40:12Z</time>
      </trkpt>
      <trkpt lat="39.7075260" lon="-0.4328630">
        <ele>552.2</ele>
        <time>2019-10-19T10:40:12Z</time>
      </trkpt>
      <trkpt lat="39.7075230" lon="-0.4328860">
        <ele>552.0</ele>
        <time>2019-10-19T10:40:12Z</time>
      </trkpt>
      <trkpt lat="39.7075240" lon="-0.4329320">
        <ele>551.4</ele>
        <time>2019-10-19T10:40:12Z</time>
      </trkpt>
      <trkpt lat="39.7075230" lon="-0.4329590">
        <ele>551.1</ele>
        <time>2019-10-19T10:40:12Z</time>
      </trkpt>
      <trkpt lat="39.7075230" lon="-0.4329830">
        <ele>550.8</ele>
        <time>2019-10-19T10:40:12Z</time>
      </trkpt>
      <trkpt lat="39.7075210" lon="-0.4330080">
        <ele>550.5</ele>
        <time>2019-10-19T10:40:12Z</time>
      </trkpt>
      <trkpt lat="39.7075200" lon="-0.4330330">
        <ele>550.2</ele>
        <time>2019-10-19T10:40:12Z</time>
      </trkpt>
      <trkpt lat="39.7075150" lon="-0.4331260">
        <ele>549.3</ele>
        <time>2019-10-19T10:40:12Z</time>
      </trkpt>
      <trkpt lat="39.7075150" lon="-0.4331510">
        <ele>549.1</ele>
        <time>2019-10-19T10:40:12Z</time>
      </trkpt>
      <trkpt lat="39.7075160" lon="-0.4331750">
        <ele>548.8</ele>
        <time>2019-10-19T10:40:12Z</time>
      </trkpt>
      <trkpt lat="39.7075200" lon="-0.4331970">
        <ele>548.7</ele>
        <time>2019-10-19T10:40:12Z</time>
      </trkpt>
      <trkpt lat="39.7075250" lon="-0.4332230">
        <ele>548.4</ele>
        <time>2019-10-19T10:40:12Z</time>
      </trkpt>
      <trkpt lat="39.7075390" lon="-0.4333330">
        <ele>547.7</ele>
        <time>2019-10-19T10:40:12Z</time>
      </trkpt>
      <trkpt lat="39.7075670" lon="-0.4334910">
        <ele>546.8</ele>
        <time>2019-10-19T10:40:12Z</time>
      </trkpt>
      <trkpt lat="39.7075740" lon="-0.4335280">
        <ele>546.6</ele>
        <time>2019-10-19T10:40:12Z</time>
      </trkpt>
      <trkpt lat="39.7075820" lon="-0.4335590">
        <ele>546.4</ele>
        <time>2019-10-19T10:40:12Z</time>
      </trkpt>
      <trkpt lat="39.7075960" lon="-0.4335870">
        <ele>546.3</ele>
        <time>2019-10-19T10:40:12Z</time>
      </trkpt>
      <trkpt lat="39.7076620" lon="-0.4336570">
        <ele>545.8</ele>
        <time>2019-10-19T10:40:12Z</time>
      </trkpt>
      <trkpt lat="39.7078070" lon="-0.4338480">
        <ele>545.3</ele>
        <time>2019-10-19T10:40:12Z</time>
      </trkpt>
      <trkpt lat="39.7078780" lon="-0.4340280">
        <ele>545.2</ele>
        <time>2019-10-19T10:40:12Z</time>
      </trkpt>
      <trkpt lat="39.7079020" lon="-0.4342740">
        <ele>544.7</ele>
        <time>2019-10-19T10:40:12Z</time>
      </trkpt>
      <trkpt lat="39.7078690" lon="-0.4344340">
        <ele>544.1</ele>
        <time>2019-10-19T10:40:12Z</time>
      </trkpt>
      <trkpt lat="39.7078590" lon="-0.4344670">
        <ele>543.9</ele>
        <time>2019-10-19T10:40:12Z</time>
      </trkpt>
      <trkpt lat="39.7078500" lon="-0.4344990">
        <ele>543.7</ele>
        <time>2019-10-19T10:40:12Z</time>
      </trkpt>
      <trkpt lat="39.7078440" lon="-0.4345280">
        <ele>543.5</ele>
        <time>2019-10-19T10:40:12Z</time>
      </trkpt>
      <trkpt lat="39.7078370" lon="-0.4345550">
        <ele>543.3</ele>
        <time>2019-10-19T10:40:12Z</time>
      </trkpt>
      <trkpt lat="39.7078140" lon="-0.4346040">
        <ele>543.0</ele>
        <time>2019-10-19T10:40:12Z</time>
      </trkpt>
      <trkpt lat="39.7077810" lon="-0.4346930">
        <ele>542.4</ele>
        <time>2019-10-19T10:40:12Z</time>
      </trkpt>
      <trkpt lat="39.7077690" lon="-0.4347230">
        <ele>542.2</ele>
        <time>2019-10-19T10:40:12Z</time>
      </trkpt>
      <trkpt lat="39.7077560" lon="-0.4347510">
        <ele>542.1</ele>
        <time>2019-10-19T10:40:12Z</time>
      </trkpt>
      <trkpt lat="39.7077430" lon="-0.4347800">
        <ele>541.9</ele>
        <time>2019-10-19T10:40:12Z</time>
      </trkpt>
      <trkpt lat="39.7077260" lon="-0.4348070">
        <ele>541.8</ele>
        <time>2019-10-19T10:40:12Z</time>
      </trkpt>
      <trkpt lat="39.7076310" lon="-0.4349260">
        <ele>541.2</ele>
        <time>2019-10-19T10:40:12Z</time>
      </trkpt>
      <trkpt lat="39.7075530" lon="-0.4349760">
        <ele>540.9</ele>
        <time>2019-10-19T10:40:12Z</time>
      </trkpt>
      <trkpt lat="39.7075200" lon="-0.4349900">
        <ele>540.9</ele>
        <time>2019-10-19T10:40:12Z</time>
      </trkpt>
      <trkpt lat="39.7074840" lon="-0.4350030">
        <ele>540.8</ele>
        <time>2019-10-19T10:40:12Z</time>
      </trkpt>
      <trkpt lat="39.7074520" lon="-0.4350170">
        <ele>540.7</ele>
        <time>2019-10-19T10:40:12Z</time>
      </trkpt>
      <trkpt lat="39.7072720" lon="-0.4351520">
        <ele>540.5</ele>
        <time>2019-10-19T10:40:12Z</time>
      </trkpt>
      <trkpt lat="39.7072070" lon="-0.4353060">
        <ele>540.5</ele>
        <time>2019-10-19T10:40:12Z</time>
      </trkpt>
      <trkpt lat="39.7072410" lon="-0.4355220">
        <ele>540.3</ele>
        <time>2019-10-19T10:40:12Z</time>
      </trkpt>
      <trkpt lat="39.7073200" lon="-0.4356790">
        <ele>539.9</ele>
        <time>2019-10-19T10:40:12Z</time>
      </trkpt>
      <trkpt lat="39.7073800" lon="-0.4357610">
        <ele>539.4</ele>
        <time>2019-10-19T10:40:12Z</time>
      </trkpt>
      <trkpt lat="39.7073900" lon="-0.4357860">
        <ele>539.2</ele>
        <time>2019-10-19T10:40:12Z</time>
      </trkpt>
      <trkpt lat="39.7074030" lon="-0.4358450">
        <ele>538.9</ele>
        <time>2019-10-19T10:40:12Z</time>
      </trkpt>
      <trkpt lat="39.7074050" lon="-0.4359010">
        <ele>538.5</ele>
        <time>2019-10-19T10:40:12Z</time>
      </trkpt>
      <trkpt lat="39.7074070" lon="-0.4359280">
        <ele>538.3</ele>
        <time>2019-10-19T10:40:12Z</time>
      </trkpt>
      <trkpt lat="39.7074070" lon="-0.4359540">
        <ele>538.1</ele>
        <time>2019-10-19T10:40:12Z</time>
      </trkpt>
      <trkpt lat="39.7074090" lon="-0.4359810">
        <ele>538.0</ele>
        <time>2019-10-19T10:40:12Z</time>
      </trkpt>
      <trkpt lat="39.7074110" lon="-0.4360090">
        <ele>537.8</ele>
        <time>2019-10-19T10:40:12Z</time>
      </trkpt>
      <trkpt lat="39.7074360" lon="-0.4360860">
        <ele>537.2</ele>
        <time>2019-10-19T10:40:12Z</time>
      </trkpt>
      <trkpt lat="39.7074570" lon="-0.4362740">
        <ele>536.4</ele>
        <time>2019-10-19T10:40:12Z</time>
      </trkpt>
      <trkpt lat="39.7074590" lon="-0.4363120">
        <ele>536.3</ele>
        <time>2019-10-19T10:40:12Z</time>
      </trkpt>
      <trkpt lat="39.7074600" lon="-0.4363470">
        <ele>536.2</ele>
        <time>2019-10-19T10:40:12Z</time>
      </trkpt>
      <trkpt lat="39.7074590" lon="-0.4363820">
        <ele>536.1</ele>
        <time>2019-10-19T10:40:12Z</time>
      </trkpt>
      <trkpt lat="39.7074520" lon="-0.4364130">
        <ele>536.1</ele>
        <time>2019-10-19T10:40:12Z</time>
      </trkpt>
      <trkpt lat="39.7074400" lon="-0.4364500">
        <ele>536.0</ele>
        <time>2019-10-19T10:40:12Z</time>
      </trkpt>
      <trkpt lat="39.7074010" lon="-0.4364970">
        <ele>535.9</ele>
        <time>2019-10-19T10:40:12Z</time>
      </trkpt>
      <trkpt lat="39.7073130" lon="-0.4365510">
        <ele>535.6</ele>
        <time>2019-10-19T10:40:12Z</time>
      </trkpt>
      <trkpt lat="39.7072900" lon="-0.4365660">
        <ele>535.6</ele>
        <time>2019-10-19T10:40:12Z</time>
      </trkpt>
      <trkpt lat="39.7071580" lon="-0.4366440">
        <ele>535.2</ele>
        <time>2019-10-19T10:40:12Z</time>
      </trkpt>
      <trkpt lat="39.7070280" lon="-0.4368120">
        <ele>534.9</ele>
        <time>2019-10-19T10:40:12Z</time>
      </trkpt>
      <trkpt lat="39.7069160" lon="-0.4369990">
        <ele>534.6</ele>
        <time>2019-10-19T10:40:12Z</time>
      </trkpt>
      <trkpt lat="39.7068570" lon="-0.4372150">
        <ele>534.1</ele>
        <time>2019-10-19T10:40:12Z</time>
      </trkpt>
      <trkpt lat="39.7068590" lon="-0.4373470">
        <ele>533.6</ele>
        <time>2019-10-19T10:40:12Z</time>
      </trkpt>
      <trkpt lat="39.7068570" lon="-0.4373710">
        <ele>533.6</ele>
        <time>2019-10-19T10:40:12Z</time>
      </trkpt>
      <trkpt lat="39.7068530" lon="-0.4373930">
        <ele>533.5</ele>
        <time>2019-10-19T10:40:12Z</time>
      </trkpt>
      <trkpt lat="39.7068500" lon="-0.4374190">
        <ele>533.4</ele>
        <time>2019-10-19T10:40:12Z</time>
      </trkpt>
      <trkpt lat="39.7068440" lon="-0.4374420">
        <ele>533.3</ele>
        <time>2019-10-19T10:40:12Z</time>
      </trkpt>
      <trkpt lat="39.7068370" lon="-0.4375110">
        <ele>532.9</ele>
        <time>2019-10-19T10:40:12Z</time>
      </trkpt>
      <trkpt lat="39.7068090" lon="-0.4376510">
        <ele>532.1</ele>
        <time>2019-10-19T10:40:12Z</time>
      </trkpt>
      <trkpt lat="39.7067990" lon="-0.4376900">
        <ele>531.8</ele>
        <time>2019-10-19T10:40:12Z</time>
      </trkpt>
      <trkpt lat="39.7067930" lon="-0.4377110">
        <ele>531.7</ele>
        <time>2019-10-19T10:40:12Z</time>
      </trkpt>
      <trkpt lat="39.7067890" lon="-0.4377330">
        <ele>531.5</ele>
        <time>2019-10-19T10:40:12Z</time>
      </trkpt>
      <trkpt lat="39.7067860" lon="-0.4377550">
        <ele>531.4</ele>
        <time>2019-10-19T10:40:12Z</time>
      </trkpt>
      <trkpt lat="39.7067750" lon="-0.4378200">
        <ele>530.8</ele>
        <time>2019-10-19T10:40:12Z</time>
      </trkpt>
      <trkpt lat="39.7067700" lon="-0.4378420">
        <ele>530.7</ele>
        <time>2019-10-19T10:40:12Z</time>
      </trkpt>
      <trkpt lat="39.7067520" lon="-0.4379190">
        <ele>530.0</ele>
        <time>2019-10-19T10:40:12Z</time>
      </trkpt>
      <trkpt lat="39.7067490" lon="-0.4379410">
        <ele>529.8</ele>
        <time>2019-10-19T10:40:12Z</time>
      </trkpt>
      <trkpt lat="39.7067470" lon="-0.4379630">
        <ele>529.6</ele>
        <time>2019-10-19T10:40:12Z</time>
      </trkpt>
      <trkpt lat="39.7067460" lon="-0.4379890">
        <ele>529.4</ele>
        <time>2019-10-19T10:40:12Z</time>
      </trkpt>
      <trkpt lat="39.7067460" lon="-0.4380170">
        <ele>529.2</ele>
        <time>2019-10-19T10:40:12Z</time>
      </trkpt>
      <trkpt lat="39.7067450" lon="-0.4380550">
        <ele>528.9</ele>
        <time>2019-10-19T10:40:12Z</time>
      </trkpt>
      <trkpt lat="39.7067330" lon="-0.4380940">
        <ele>528.5</ele>
        <time>2019-10-19T10:40:12Z</time>
      </trkpt>
      <trkpt lat="39.7067230" lon="-0.4381150">
        <ele>528.3</ele>
        <time>2019-10-19T10:40:12Z</time>
      </trkpt>
      <trkpt lat="39.7067170" lon="-0.4381440">
        <ele>528.1</ele>
        <time>2019-10-19T10:40:12Z</time>
      </trkpt>
      <trkpt lat="39.7067140" lon="-0.4381750">
        <ele>527.9</ele>
        <time>2019-10-19T10:40:12Z</time>
      </trkpt>
      <trkpt lat="39.7067140" lon="-0.4382030">
        <ele>527.7</ele>
        <time>2019-10-19T10:40:12Z</time>
      </trkpt>
      <trkpt lat="39.7067140" lon="-0.4382290">
        <ele>527.6</ele>
        <time>2019-10-19T10:40:12Z</time>
      </trkpt>
      <trkpt lat="39.7067020" lon="-0.4382790">
        <ele>527.3</ele>
        <time>2019-10-19T10:40:12Z</time>
      </trkpt>
      <trkpt lat="39.7066750" lon="-0.4383770">
        <ele>526.8</ele>
        <time>2019-10-19T10:40:12Z</time>
      </trkpt>
      <trkpt lat="39.7066480" lon="-0.4384520">
        <ele>526.6</ele>
        <time>2019-10-19T10:40:12Z</time>
      </trkpt>
      <trkpt lat="39.7066050" lon="-0.4385350">
        <ele>526.4</ele>
        <time>2019-10-19T10:40:12Z</time>
      </trkpt>
      <trkpt lat="39.7065470" lon="-0.4385760">
        <ele>526.3</ele>
        <time>2019-10-19T10:40:12Z</time>
      </trkpt>
      <trkpt lat="39.7065120" lon="-0.4385700">
        <ele>526.2</ele>
        <time>2019-10-19T10:40:12Z</time>
      </trkpt>
      <trkpt lat="39.7064830" lon="-0.4385430">
        <ele>526.2</ele>
        <time>2019-10-19T10:40:12Z</time>
      </trkpt>
      <trkpt lat="39.7064560" lon="-0.4384940">
        <ele>526.2</ele>
        <time>2019-10-19T10:40:12Z</time>
      </trkpt>
      <trkpt lat="39.7064400" lon="-0.4384310">
        <ele>526.3</ele>
        <time>2019-10-19T10:40:12Z</time>
      </trkpt>
      <trkpt lat="39.7064280" lon="-0.4383550">
        <ele>526.4</ele>
        <time>2019-10-19T10:40:12Z</time>
      </trkpt>
      <trkpt lat="39.7063840" lon="-0.4382300">
        <ele>526.8</ele>
        <time>2019-10-19T10:40:12Z</time>
      </trkpt>
      <trkpt lat="39.7063530" lon="-0.4381790">
        <ele>527.0</ele>
        <time>2019-10-19T10:40:12Z</time>
      </trkpt>
      <trkpt lat="39.7063130" lon="-0.4381290">
        <ele>527.1</ele>
        <time>2019-10-19T10:40:12Z</time>
      </trkpt>
      <trkpt lat="39.7062630" lon="-0.4380810">
        <ele>527.5</ele>
        <time>2019-10-19T10:40:12Z</time>
      </trkpt>
      <trkpt lat="39.7062040" lon="-0.4380280">
        <ele>527.9</ele>
        <time>2019-10-19T10:40:12Z</time>
      </trkpt>
      <trkpt lat="39.7061450" lon="-0.4379760">
        <ele>528.3</ele>
        <time>2019-10-19T10:40:12Z</time>
      </trkpt>
      <trkpt lat="39.7060880" lon="-0.4379190">
        <ele>528.8</ele>
        <time>2019-10-19T10:40:12Z</time>
      </trkpt>
      <trkpt lat="39.7060370" lon="-0.4378660">
        <ele>529.3</ele>
        <time>2019-10-19T10:40:12Z</time>
      </trkpt>
      <trkpt lat="39.7059880" lon="-0.4378120">
        <ele>529.8</ele>
        <time>2019-10-19T10:40:12Z</time>
      </trkpt>
      <trkpt lat="39.7059400" lon="-0.4377610">
        <ele>530.2</ele>
        <time>2019-10-19T10:40:12Z</time>
      </trkpt>
      <trkpt lat="39.7058940" lon="-0.4377170">
        <ele>530.7</ele>
        <time>2019-10-19T10:40:12Z</time>
      </trkpt>
      <trkpt lat="39.7058480" lon="-0.4376750">
        <ele>531.2</ele>
        <time>2019-10-19T10:40:12Z</time>
      </trkpt>
      <trkpt lat="39.7057650" lon="-0.4375940">
        <ele>532.1</ele>
        <time>2019-10-19T10:40:12Z</time>
      </trkpt>
      <trkpt lat="39.7057320" lon="-0.4375510">
        <ele>532.6</ele>
        <time>2019-10-19T10:40:12Z</time>
      </trkpt>
      <trkpt lat="39.7057040" lon="-0.4375120">
        <ele>533.1</ele>
        <time>2019-10-19T10:40:12Z</time>
      </trkpt>
      <trkpt lat="39.7056710" lon="-0.4374820">
        <ele>533.7</ele>
        <time>2019-10-19T10:40:12Z</time>
      </trkpt>
      <trkpt lat="39.7056350" lon="-0.4374680">
        <ele>534.2</ele>
        <time>2019-10-19T10:40:12Z</time>
      </trkpt>
      <trkpt lat="39.7055980" lon="-0.4374660">
        <ele>534.7</ele>
        <time>2019-10-19T10:40:12Z</time>
      </trkpt>
      <trkpt lat="39.7055660" lon="-0.4374720">
        <ele>535.2</ele>
        <time>2019-10-19T10:40:12Z</time>
      </trkpt>
      <trkpt lat="39.7055490" lon="-0.4375020">
        <ele>535.6</ele>
        <time>2019-10-19T10:40:12Z</time>
      </trkpt>
      <trkpt lat="39.7055480" lon="-0.4375440">
        <ele>536.1</ele>
        <time>2019-10-19T10:40:12Z</time>
      </trkpt>
      <trkpt lat="39.7055620" lon="-0.4375940">
        <ele>536.7</ele>
        <time>2019-10-19T10:40:12Z</time>
      </trkpt>
      <trkpt lat="39.7055860" lon="-0.4376510">
        <ele>537.3</ele>
        <time>2019-10-19T10:40:12Z</time>
      </trkpt>
      <trkpt lat="39.7056110" lon="-0.4377050">
        <ele>537.9</ele>
        <time>2019-10-19T10:40:12Z</time>
      </trkpt>
      <trkpt lat="39.7056350" lon="-0.4377600">
        <ele>538.4</ele>
        <time>2019-10-19T10:40:12Z</time>
      </trkpt>
      <trkpt lat="39.7056600" lon="-0.4378200">
        <ele>538.9</ele>
        <time>2019-10-19T10:40:12Z</time>
      </trkpt>
      <trkpt lat="39.7056870" lon="-0.4378830">
        <ele>539.5</ele>
        <time>2019-10-19T10:40:12Z</time>
      </trkpt>
      <trkpt lat="39.7057060" lon="-0.4379450">
        <ele>540.0</ele>
        <time>2019-10-19T10:40:12Z</time>
      </trkpt>
      <trkpt lat="39.7057280" lon="-0.4380120">
        <ele>540.6</ele>
        <time>2019-10-19T10:40:12Z</time>
      </trkpt>
      <trkpt lat="39.7057530" lon="-0.4380780">
        <ele>541.2</ele>
        <time>2019-10-19T10:40:12Z</time>
      </trkpt>
      <trkpt lat="39.7057760" lon="-0.4381450">
        <ele>541.8</ele>
        <time>2019-10-19T10:40:12Z</time>
      </trkpt>
      <trkpt lat="39.7057980" lon="-0.4382130">
        <ele>542.4</ele>
        <time>2019-10-19T10:40:12Z</time>
      </trkpt>
      <trkpt lat="39.7058190" lon="-0.4382790">
        <ele>543.0</ele>
        <time>2019-10-19T10:40:12Z</time>
      </trkpt>
      <trkpt lat="39.7058360" lon="-0.4383460">
        <ele>543.6</ele>
        <time>2019-10-19T10:40:12Z</time>
      </trkpt>
      <trkpt lat="39.7058510" lon="-0.4384090">
        <ele>544.2</ele>
        <time>2019-10-19T10:40:12Z</time>
      </trkpt>
      <trkpt lat="39.7058650" lon="-0.4384700">
        <ele>544.8</ele>
        <time>2019-10-19T10:40:12Z</time>
      </trkpt>
      <trkpt lat="39.7058740" lon="-0.4386320">
        <ele>546.1</ele>
        <time>2019-10-19T10:40:12Z</time>
      </trkpt>
      <trkpt lat="39.7058610" lon="-0.4386890">
        <ele>546.5</ele>
        <time>2019-10-19T10:40:12Z</time>
      </trkpt>
      <trkpt lat="39.7058410" lon="-0.4387500">
        <ele>546.9</ele>
        <time>2019-10-19T10:40:12Z</time>
      </trkpt>
      <trkpt lat="39.7058130" lon="-0.4388110">
        <ele>547.4</ele>
        <time>2019-10-19T10:40:12Z</time>
      </trkpt>
      <trkpt lat="39.7057820" lon="-0.4388590">
        <ele>547.8</ele>
        <time>2019-10-19T10:40:12Z</time>
      </trkpt>
      <trkpt lat="39.7057570" lon="-0.4389090">
        <ele>548.1</ele>
        <time>2019-10-19T10:40:12Z</time>
      </trkpt>
      <trkpt lat="39.7057380" lon="-0.4389660">
        <ele>548.5</ele>
        <time>2019-10-19T10:40:12Z</time>
      </trkpt>
      <trkpt lat="39.7057210" lon="-0.4390280">
        <ele>548.9</ele>
        <time>2019-10-19T10:40:12Z</time>
      </trkpt>
      <trkpt lat="39.7057100" lon="-0.4390890">
        <ele>549.4</ele>
        <time>2019-10-19T10:40:12Z</time>
      </trkpt>
      <trkpt lat="39.7057040" lon="-0.4391490">
        <ele>549.9</ele>
        <time>2019-10-19T10:40:12Z</time>
      </trkpt>
      <trkpt lat="39.7056980" lon="-0.4392030">
        <ele>550.4</ele>
        <time>2019-10-19T10:40:12Z</time>
      </trkpt>
      <trkpt lat="39.7056890" lon="-0.4392480">
        <ele>550.8</ele>
        <time>2019-10-19T10:40:12Z</time>
      </trkpt>
      <trkpt lat="39.7056720" lon="-0.4392850">
        <ele>551.2</ele>
        <time>2019-10-19T10:40:12Z</time>
      </trkpt>
      <trkpt lat="39.7056480" lon="-0.4393070">
        <ele>551.5</ele>
        <time>2019-10-19T10:40:12Z</time>
      </trkpt>
      <trkpt lat="39.7056170" lon="-0.4393160">
        <ele>551.9</ele>
        <time>2019-10-19T10:40:12Z</time>
      </trkpt>
      <trkpt lat="39.7055910" lon="-0.4393040">
        <ele>552.2</ele>
        <time>2019-10-19T10:40:12Z</time>
      </trkpt>
      <trkpt lat="39.7055730" lon="-0.4392700">
        <ele>552.5</ele>
        <time>2019-10-19T10:40:12Z</time>
      </trkpt>
      <trkpt lat="39.7055630" lon="-0.4392290">
        <ele>552.8</ele>
        <time>2019-10-19T10:40:12Z</time>
      </trkpt>
      <trkpt lat="39.7055530" lon="-0.4391850">
        <ele>553.1</ele>
        <time>2019-10-19T10:40:12Z</time>
      </trkpt>
      <trkpt lat="39.7055400" lon="-0.4391410">
        <ele>553.4</ele>
        <time>2019-10-19T10:40:12Z</time>
      </trkpt>
      <trkpt lat="39.7055240" lon="-0.4390850">
        <ele>553.8</ele>
        <time>2019-10-19T10:40:12Z</time>
      </trkpt>
      <trkpt lat="39.7054870" lon="-0.4389570">
        <ele>554.7</ele>
        <time>2019-10-19T10:40:12Z</time>
      </trkpt>
      <trkpt lat="39.7054710" lon="-0.4388910">
        <ele>555.1</ele>
        <time>2019-10-19T10:40:12Z</time>
      </trkpt>
      <trkpt lat="39.7054560" lon="-0.4388240">
        <ele>555.6</ele>
        <time>2019-10-19T10:40:12Z</time>
      </trkpt>
      <trkpt lat="39.7054470" lon="-0.4387670">
        <ele>555.9</ele>
        <time>2019-10-19T10:40:12Z</time>
      </trkpt>
      <trkpt lat="39.7054330" lon="-0.4387080">
        <ele>556.3</ele>
        <time>2019-10-19T10:40:12Z</time>
      </trkpt>
      <trkpt lat="39.7054180" lon="-0.4386530">
        <ele>556.6</ele>
        <time>2019-10-19T10:40:12Z</time>
      </trkpt>
      <trkpt lat="39.7054060" lon="-0.4386030">
        <ele>556.9</ele>
        <time>2019-10-19T10:40:12Z</time>
      </trkpt>
      <trkpt lat="39.7053890" lon="-0.4385520">
        <ele>557.2</ele>
        <time>2019-10-19T10:40:12Z</time>
      </trkpt>
      <trkpt lat="39.7053640" lon="-0.4385020">
        <ele>557.6</ele>
        <time>2019-10-19T10:40:12Z</time>
      </trkpt>
      <trkpt lat="39.7053340" lon="-0.4384570">
        <ele>557.9</ele>
        <time>2019-10-19T10:40:12Z</time>
      </trkpt>
      <trkpt lat="39.7053000" lon="-0.4384150">
        <ele>558.2</ele>
        <time>2019-10-19T10:40:12Z</time>
      </trkpt>
      <trkpt lat="39.7052660" lon="-0.4383740">
        <ele>558.5</ele>
        <time>2019-10-19T10:40:12Z</time>
      </trkpt>
      <trkpt lat="39.7051930" lon="-0.4383030">
        <ele>559.1</ele>
        <time>2019-10-19T10:40:12Z</time>
      </trkpt>
      <trkpt lat="39.7051580" lon="-0.4382640">
        <ele>559.4</ele>
        <time>2019-10-19T10:40:12Z</time>
      </trkpt>
      <trkpt lat="39.7050200" lon="-0.4380620">
        <ele>560.9</ele>
        <time>2019-10-19T10:40:12Z</time>
      </trkpt>
      <trkpt lat="39.7049670" lon="-0.4380550">
        <ele>562.2</ele>
        <time>2019-10-19T10:40:12Z</time>
      </trkpt>
      <trkpt lat="39.7049950" lon="-0.4381120">
        <ele>562.4</ele>
        <time>2019-10-19T10:40:12Z</time>
      </trkpt>
      <trkpt lat="39.7050940" lon="-0.4383800">
        <ele>563.1</ele>
        <time>2019-10-19T10:40:12Z</time>
      </trkpt>
      <trkpt lat="39.7051190" lon="-0.4384480">
        <ele>563.3</ele>
        <time>2019-10-19T10:40:12Z</time>
      </trkpt>
      <trkpt lat="39.7051410" lon="-0.4385160">
        <ele>563.5</ele>
        <time>2019-10-19T10:40:12Z</time>
      </trkpt>
      <trkpt lat="39.7051620" lon="-0.4385890">
        <ele>563.7</ele>
        <time>2019-10-19T10:40:12Z</time>
      </trkpt>
      <trkpt lat="39.7051830" lon="-0.4386670">
        <ele>564.0</ele>
        <time>2019-10-19T10:40:12Z</time>
      </trkpt>
      <trkpt lat="39.7052080" lon="-0.4387520">
        <ele>564.3</ele>
        <time>2019-10-19T10:40:12Z</time>
      </trkpt>
      <trkpt lat="39.7052340" lon="-0.4388430">
        <ele>564.7</ele>
        <time>2019-10-19T10:40:12Z</time>
      </trkpt>
      <trkpt lat="39.7052560" lon="-0.4389370">
        <ele>565.2</ele>
        <time>2019-10-19T10:40:12Z</time>
      </trkpt>
      <trkpt lat="39.7052720" lon="-0.4390220">
        <ele>565.7</ele>
        <time>2019-10-19T10:40:12Z</time>
      </trkpt>
      <trkpt lat="39.7052880" lon="-0.4391070">
        <ele>566.2</ele>
        <time>2019-10-19T10:40:12Z</time>
      </trkpt>
      <trkpt lat="39.7053040" lon="-0.4391890">
        <ele>566.7</ele>
        <time>2019-10-19T10:40:12Z</time>
      </trkpt>
      <trkpt lat="39.7053180" lon="-0.4392630">
        <ele>567.1</ele>
        <time>2019-10-19T10:40:12Z</time>
      </trkpt>
      <trkpt lat="39.7053360" lon="-0.4393420">
        <ele>567.5</ele>
        <time>2019-10-19T10:40:12Z</time>
      </trkpt>
      <trkpt lat="39.7053420" lon="-0.4394030">
        <ele>567.8</ele>
        <time>2019-10-19T10:40:12Z</time>
      </trkpt>
      <trkpt lat="39.7053470" lon="-0.4394690">
        <ele>568.0</ele>
        <time>2019-10-19T10:40:12Z</time>
      </trkpt>
      <trkpt lat="39.7053550" lon="-0.4395320">
        <ele>568.3</ele>
        <time>2019-10-19T10:40:12Z</time>
      </trkpt>
      <trkpt lat="39.7053520" lon="-0.4396530">
        <ele>568.6</ele>
        <time>2019-10-19T10:40:12Z</time>
      </trkpt>
      <trkpt lat="39.7053550" lon="-0.4397750">
        <ele>568.9</ele>
        <time>2019-10-19T10:40:12Z</time>
      </trkpt>
      <trkpt lat="39.7053640" lon="-0.4400340">
        <ele>569.4</ele>
        <time>2019-10-19T10:40:12Z</time>
      </trkpt>
      <trkpt lat="39.7053490" lon="-0.4402230">
        <ele>569.9</ele>
        <time>2019-10-19T10:40:12Z</time>
      </trkpt>
      <trkpt lat="39.7053340" lon="-0.4402870">
        <ele>570.1</ele>
        <time>2019-10-19T10:40:12Z</time>
      </trkpt>
      <trkpt lat="39.7053130" lon="-0.4403460">
        <ele>570.3</ele>
        <time>2019-10-19T10:40:12Z</time>
      </trkpt>
      <trkpt lat="39.7052910" lon="-0.4404080">
        <ele>570.4</ele>
        <time>2019-10-19T10:40:12Z</time>
      </trkpt>
      <trkpt lat="39.7052730" lon="-0.4404650">
        <ele>570.6</ele>
        <time>2019-10-19T10:40:12Z</time>
      </trkpt>
      <trkpt lat="39.7052590" lon="-0.4405280">
        <ele>570.8</ele>
        <time>2019-10-19T10:40:12Z</time>
      </trkpt>
      <trkpt lat="39.7052040" lon="-0.4407120">
        <ele>571.4</ele>
        <time>2019-10-19T10:40:12Z</time>
      </trkpt>
      <trkpt lat="39.7051650" lon="-0.4408430">
        <ele>571.8</ele>
        <time>2019-10-19T10:40:12Z</time>
      </trkpt>
      <trkpt lat="39.7051500" lon="-0.4409050">
        <ele>572.1</ele>
        <time>2019-10-19T10:40:12Z</time>
      </trkpt>
      <trkpt lat="39.7051370" lon="-0.4409690">
        <ele>572.3</ele>
        <time>2019-10-19T10:40:12Z</time>
      </trkpt>
      <trkpt lat="39.7051290" lon="-0.4410380">
        <ele>572.5</ele>
        <time>2019-10-19T10:40:12Z</time>
      </trkpt>
      <trkpt lat="39.7051130" lon="-0.4411030">
        <ele>572.8</ele>
        <time>2019-10-19T10:40:12Z</time>
      </trkpt>
      <trkpt lat="39.7051040" lon="-0.4411710">
        <ele>573.1</ele>
        <time>2019-10-19T10:40:12Z</time>
      </trkpt>
      <trkpt lat="39.7050810" lon="-0.4413680">
        <ele>573.9</ele>
        <time>2019-10-19T10:40:12Z</time>
      </trkpt>
      <trkpt lat="39.7050560" lon="-0.4414750">
        <ele>574.3</ele>
        <time>2019-10-19T10:40:12Z</time>
      </trkpt>
      <trkpt lat="39.7050030" lon="-0.4416280">
        <ele>574.8</ele>
        <time>2019-10-19T10:40:12Z</time>
      </trkpt>
      <trkpt lat="39.7049720" lon="-0.4417260">
        <ele>574.9</ele>
        <time>2019-10-19T10:40:12Z</time>
      </trkpt>
      <trkpt lat="39.7048450" lon="-0.4419660">
        <ele>574.9</ele>
        <time>2019-10-19T10:40:12Z</time>
      </trkpt>
      <trkpt lat="39.7046930" lon="-0.4422440">
        <ele>574.6</ele>
        <time>2019-10-19T10:40:12Z</time>
      </trkpt>
      <trkpt lat="39.7046380" lon="-0.4423450">
        <ele>574.5</ele>
        <time>2019-10-19T10:40:12Z</time>
      </trkpt>
      <trkpt lat="39.7045680" lon="-0.4424470">
        <ele>574.5</ele>
        <time>2019-10-19T10:40:12Z</time>
      </trkpt>
      <trkpt lat="39.7045040" lon="-0.4425770">
        <ele>574.5</ele>
        <time>2019-10-19T10:40:12Z</time>
      </trkpt>
      <trkpt lat="39.7044350" lon="-0.4428610">
        <ele>574.8</ele>
        <time>2019-10-19T10:40:12Z</time>
      </trkpt>
      <trkpt lat="39.7044230" lon="-0.4429310">
        <ele>574.9</ele>
        <time>2019-10-19T10:40:12Z</time>
      </trkpt>
      <trkpt lat="39.7044070" lon="-0.4430030">
        <ele>575.0</ele>
        <time>2019-10-19T10:40:12Z</time>
      </trkpt>
      <trkpt lat="39.7044020" lon="-0.4430850">
        <ele>575.1</ele>
        <time>2019-10-19T10:40:12Z</time>
      </trkpt>
      <trkpt lat="39.7043940" lon="-0.4431690">
        <ele>575.2</ele>
        <time>2019-10-19T10:40:12Z</time>
      </trkpt>
      <trkpt lat="39.7043910" lon="-0.4432520">
        <ele>575.3</ele>
        <time>2019-10-19T10:40:12Z</time>
      </trkpt>
      <trkpt lat="39.7043900" lon="-0.4433440">
        <ele>575.5</ele>
        <time>2019-10-19T10:40:12Z</time>
      </trkpt>
      <trkpt lat="39.7043920" lon="-0.4435220">
        <ele>575.9</ele>
        <time>2019-10-19T10:40:12Z</time>
      </trkpt>
      <trkpt lat="39.7044530" lon="-0.4438550">
        <ele>576.9</ele>
        <time>2019-10-19T10:40:12Z</time>
      </trkpt>
      <trkpt lat="39.7044740" lon="-0.4439390">
        <ele>577.2</ele>
        <time>2019-10-19T10:40:12Z</time>
      </trkpt>
      <trkpt lat="39.7044960" lon="-0.4440220">
        <ele>577.4</ele>
        <time>2019-10-19T10:40:12Z</time>
      </trkpt>
      <trkpt lat="39.7045140" lon="-0.4441010">
        <ele>577.7</ele>
        <time>2019-10-19T10:40:12Z</time>
      </trkpt>
      <trkpt lat="39.7045260" lon="-0.4441760">
        <ele>578.0</ele>
        <time>2019-10-19T10:40:12Z</time>
      </trkpt>
      <trkpt lat="39.7045390" lon="-0.4442510">
        <ele>578.4</ele>
        <time>2019-10-19T10:40:12Z</time>
      </trkpt>
      <trkpt lat="39.7046160" lon="-0.4444320">
        <ele>579.1</ele>
        <time>2019-10-19T10:40:12Z</time>
      </trkpt>
      <trkpt lat="39.7046620" lon="-0.4444500">
        <ele>579.3</ele>
        <time>2019-10-19T10:40:12Z</time>
      </trkpt>
      <trkpt lat="39.7047170" lon="-0.4444390">
        <ele>579.5</ele>
        <time>2019-10-19T10:40:12Z</time>
      </trkpt>
      <trkpt lat="39.7047760" lon="-0.4444110">
        <ele>579.7</ele>
        <time>2019-10-19T10:40:12Z</time>
      </trkpt>
      <trkpt lat="39.7048240" lon="-0.4443600">
        <ele>580.0</ele>
        <time>2019-10-19T10:40:12Z</time>
      </trkpt>
      <trkpt lat="39.7048730" lon="-0.4443150">
        <ele>580.2</ele>
        <time>2019-10-19T10:40:12Z</time>
      </trkpt>
      <trkpt lat="39.7049960" lon="-0.4441640">
        <ele>580.7</ele>
        <time>2019-10-19T10:40:12Z</time>
      </trkpt>
      <trkpt lat="39.7050820" lon="-0.4440930">
        <ele>581.0</ele>
        <time>2019-10-19T10:40:12Z</time>
      </trkpt>
      <trkpt lat="39.7052180" lon="-0.4440560">
        <ele>581.2</ele>
        <time>2019-10-19T10:40:12Z</time>
      </trkpt>
      <trkpt lat="39.7052630" lon="-0.4440520">
        <ele>581.2</ele>
        <time>2019-10-19T10:40:12Z</time>
      </trkpt>
      <trkpt lat="39.7054600" lon="-0.4441040">
        <ele>581.1</ele>
        <time>2019-10-19T10:40:12Z</time>
      </trkpt>
      <trkpt lat="39.7057570" lon="-0.4442080">
        <ele>580.5</ele>
        <time>2019-10-19T10:40:12Z</time>
      </trkpt>
      <trkpt lat="39.7057930" lon="-0.4442230">
        <ele>580.4</ele>
        <time>2019-10-19T10:40:12Z</time>
      </trkpt>
      <trkpt lat="39.7059300" lon="-0.4442980">
        <ele>580.4</ele>
        <time>2019-10-19T10:40:12Z</time>
      </trkpt>
      <trkpt lat="39.7060290" lon="-0.4443900">
        <ele>580.6</ele>
        <time>2019-10-19T10:40:12Z</time>
      </trkpt>
      <trkpt lat="39.7060680" lon="-0.4444290">
        <ele>580.8</ele>
        <time>2019-10-19T10:40:12Z</time>
      </trkpt>
      <trkpt lat="39.7061020" lon="-0.4444800">
        <ele>580.9</ele>
        <time>2019-10-19T10:40:12Z</time>
      </trkpt>
      <trkpt lat="39.7061630" lon="-0.4445840">
        <ele>581.3</ele>
        <time>2019-10-19T10:40:12Z</time>
      </trkpt>
      <trkpt lat="39.7061950" lon="-0.4446440">
        <ele>581.5</ele>
        <time>2019-10-19T10:40:12Z</time>
      </trkpt>
      <trkpt lat="39.7062280" lon="-0.4446990">
        <ele>581.9</ele>
        <time>2019-10-19T10:40:12Z</time>
      </trkpt>
      <trkpt lat="39.7062630" lon="-0.4447620">
        <ele>582.3</ele>
        <time>2019-10-19T10:40:12Z</time>
      </trkpt>
      <trkpt lat="39.7062970" lon="-0.4448280">
        <ele>582.8</ele>
        <time>2019-10-19T10:40:12Z</time>
      </trkpt>
      <trkpt lat="39.7063350" lon="-0.4448990">
        <ele>583.5</ele>
        <time>2019-10-19T10:40:12Z</time>
      </trkpt>
      <trkpt lat="39.7063690" lon="-0.4449600">
        <ele>584.1</ele>
        <time>2019-10-19T10:40:12Z</time>
      </trkpt>
      <trkpt lat="39.7064080" lon="-0.4450180">
        <ele>584.8</ele>
        <time>2019-10-19T10:40:12Z</time>
      </trkpt>
      <trkpt lat="39.7064530" lon="-0.4450650">
        <ele>585.4</ele>
        <time>2019-10-19T10:40:12Z</time>
      </trkpt>
      <trkpt lat="39.7065030" lon="-0.4450920">
        <ele>586.0</ele>
        <time>2019-10-19T10:40:12Z</time>
      </trkpt>
      <trkpt lat="39.7065530" lon="-0.4450870">
        <ele>586.5</ele>
        <time>2019-10-19T10:40:12Z</time>
      </trkpt>
      <trkpt lat="39.7065980" lon="-0.4450510">
        <ele>586.9</ele>
        <time>2019-10-19T10:40:12Z</time>
      </trkpt>
      <trkpt lat="39.7066250" lon="-0.4450040">
        <ele>587.2</ele>
        <time>2019-10-19T10:40:12Z</time>
      </trkpt>
      <trkpt lat="39.7066470" lon="-0.4449260">
        <ele>587.6</ele>
        <time>2019-10-19T10:40:12Z</time>
      </trkpt>
      <trkpt lat="39.7066620" lon="-0.4448480">
        <ele>587.9</ele>
        <time>2019-10-19T10:40:12Z</time>
      </trkpt>
      <trkpt lat="39.7066690" lon="-0.4447650">
        <ele>588.3</ele>
        <time>2019-10-19T10:40:12Z</time>
      </trkpt>
      <trkpt lat="39.7066820" lon="-0.4446780">
        <ele>588.6</ele>
        <time>2019-10-19T10:40:12Z</time>
      </trkpt>
      <trkpt lat="39.7067200" lon="-0.4445030">
        <ele>589.2</ele>
        <time>2019-10-19T10:40:12Z</time>
      </trkpt>
      <trkpt lat="39.7067440" lon="-0.4444180">
        <ele>589.6</ele>
        <time>2019-10-19T10:40:12Z</time>
      </trkpt>
      <trkpt lat="39.7067690" lon="-0.4443330">
        <ele>589.9</ele>
        <time>2019-10-19T10:40:12Z</time>
      </trkpt>
      <trkpt lat="39.7068020" lon="-0.4442560">
        <ele>590.2</ele>
        <time>2019-10-19T10:40:12Z</time>
      </trkpt>
      <trkpt lat="39.7068510" lon="-0.4442030">
        <ele>590.5</ele>
        <time>2019-10-19T10:40:12Z</time>
      </trkpt>
      <trkpt lat="39.7070480" lon="-0.4439820">
        <ele>591.6</ele>
        <time>2019-10-19T10:40:12Z</time>
      </trkpt>
      <trkpt lat="39.7072820" lon="-0.4436940">
        <ele>593.2</ele>
        <time>2019-10-19T10:40:12Z</time>
      </trkpt>
      <trkpt lat="39.7073270" lon="-0.4436290">
        <ele>593.7</ele>
        <time>2019-10-19T10:40:12Z</time>
      </trkpt>
      <trkpt lat="39.7073690" lon="-0.4435620">
        <ele>594.1</ele>
        <time>2019-10-19T10:40:12Z</time>
      </trkpt>
      <trkpt lat="39.7074050" lon="-0.4434860">
        <ele>594.6</ele>
        <time>2019-10-19T10:40:12Z</time>
      </trkpt>
      <trkpt lat="39.7074410" lon="-0.4433890">
        <ele>595.3</ele>
        <time>2019-10-19T10:40:12Z</time>
      </trkpt>
      <trkpt lat="39.7074770" lon="-0.4432990">
        <ele>596.0</ele>
        <time>2019-10-19T10:40:12Z</time>
      </trkpt>
      <trkpt lat="39.7075180" lon="-0.4432140">
        <ele>596.8</ele>
        <time>2019-10-19T10:40:12Z</time>
      </trkpt>
      <trkpt lat="39.7075600" lon="-0.4431380">
        <ele>597.6</ele>
        <time>2019-10-19T10:40:12Z</time>
      </trkpt>
      <trkpt lat="39.7076050" lon="-0.4430680">
        <ele>598.3</ele>
        <time>2019-10-19T10:40:12Z</time>
      </trkpt>
      <trkpt lat="39.7076530" lon="-0.4430080">
        <ele>599.1</ele>
        <time>2019-10-19T10:40:12Z</time>
      </trkpt>
      <trkpt lat="39.7077040" lon="-0.4429520">
        <ele>599.8</ele>
        <time>2019-10-19T10:40:12Z</time>
      </trkpt>
      <trkpt lat="39.7077540" lon="-0.4429010">
        <ele>600.5</ele>
        <time>2019-10-19T10:40:12Z</time>
      </trkpt>
      <trkpt lat="39.7078630" lon="-0.4428290">
        <ele>601.6</ele>
        <time>2019-10-19T10:40:12Z</time>
      </trkpt>
      <trkpt lat="39.7079190" lon="-0.4428090">
        <ele>602.1</ele>
        <time>2019-10-19T10:40:12Z</time>
      </trkpt>
      <trkpt lat="39.7079780" lon="-0.4427990">
        <ele>602.6</ele>
        <time>2019-10-19T10:40:12Z</time>
      </trkpt>
      <trkpt lat="39.7080440" lon="-0.4427910">
        <ele>603.1</ele>
        <time>2019-10-19T10:40:12Z</time>
      </trkpt>
      <trkpt lat="39.7081110" lon="-0.4427880">
        <ele>603.5</ele>
        <time>2019-10-19T10:40:12Z</time>
      </trkpt>
      <trkpt lat="39.7081800" lon="-0.4427930">
        <ele>603.9</ele>
        <time>2019-10-19T10:40:12Z</time>
      </trkpt>
      <trkpt lat="39.7082480" lon="-0.4428010">
        <ele>604.3</ele>
        <time>2019-10-19T10:40:12Z</time>
      </trkpt>
      <trkpt lat="39.7083170" lon="-0.4428180">
        <ele>604.8</ele>
        <time>2019-10-19T10:40:12Z</time>
      </trkpt>
      <trkpt lat="39.7083860" lon="-0.4428370">
        <ele>605.2</ele>
        <time>2019-10-19T10:40:12Z</time>
      </trkpt>
      <trkpt lat="39.7084450" lon="-0.4428670">
        <ele>605.6</ele>
        <time>2019-10-19T10:40:12Z</time>
      </trkpt>
      <trkpt lat="39.7085040" lon="-0.4429080">
        <ele>606.0</ele>
        <time>2019-10-19T10:40:12Z</time>
      </trkpt>
      <trkpt lat="39.7085600" lon="-0.4429520">
        <ele>606.4</ele>
        <time>2019-10-19T10:40:12Z</time>
      </trkpt>
      <trkpt lat="39.7086070" lon="-0.4430050">
        <ele>606.8</ele>
        <time>2019-10-19T10:40:12Z</time>
      </trkpt>
      <trkpt lat="39.7087470" lon="-0.4431760">
        <ele>607.9</ele>
        <time>2019-10-19T10:40:12Z</time>
      </trkpt>
      <trkpt lat="39.7087980" lon="-0.4432330">
        <ele>608.2</ele>
        <time>2019-10-19T10:40:12Z</time>
      </trkpt>
      <trkpt lat="39.7088470" lon="-0.4432820">
        <ele>608.5</ele>
        <time>2019-10-19T10:40:12Z</time>
      </trkpt>
      <trkpt lat="39.7089000" lon="-0.4433270">
        <ele>608.8</ele>
        <time>2019-10-19T10:40:12Z</time>
      </trkpt>
      <trkpt lat="39.7090610" lon="-0.4434530">
        <ele>609.4</ele>
        <time>2019-10-19T10:40:12Z</time>
      </trkpt>
      <trkpt lat="39.7091720" lon="-0.4435290">
        <ele>609.8</ele>
        <time>2019-10-19T10:40:12Z</time>
      </trkpt>
      <trkpt lat="39.7093360" lon="-0.4436450">
        <ele>610.4</ele>
        <time>2019-10-19T10:40:12Z</time>
      </trkpt>
      <trkpt lat="39.7093920" lon="-0.4436920">
        <ele>610.6</ele>
        <time>2019-10-19T10:40:12Z</time>
      </trkpt>
      <trkpt lat="39.7094360" lon="-0.4437550">
        <ele>610.7</ele>
        <time>2019-10-19T10:40:12Z</time>
      </trkpt>
      <trkpt lat="39.7094790" lon="-0.4438330">
        <ele>610.9</ele>
        <time>2019-10-19T10:40:12Z</time>
      </trkpt>
      <trkpt lat="39.7095150" lon="-0.4439100">
        <ele>611.1</ele>
        <time>2019-10-19T10:40:12Z</time>
      </trkpt>
      <trkpt lat="39.7095850" lon="-0.4440870">
        <ele>611.6</ele>
        <time>2019-10-19T10:40:12Z</time>
      </trkpt>
      <trkpt lat="39.7096240" lon="-0.4441740">
        <ele>612.0</ele>
        <time>2019-10-19T10:40:12Z</time>
      </trkpt>
      <trkpt lat="39.7096680" lon="-0.4442580">
        <ele>612.4</ele>
        <time>2019-10-19T10:40:12Z</time>
      </trkpt>
      <trkpt lat="39.7097210" lon="-0.4443380">
        <ele>612.9</ele>
        <time>2019-10-19T10:40:12Z</time>
      </trkpt>
      <trkpt lat="39.7097790" lon="-0.4444120">
        <ele>613.5</ele>
        <time>2019-10-19T10:40:12Z</time>
      </trkpt>
      <trkpt lat="39.7098430" lon="-0.4444690">
        <ele>614.1</ele>
        <time>2019-10-19T10:40:12Z</time>
      </trkpt>
      <trkpt lat="39.7099110" lon="-0.4445210">
        <ele>614.8</ele>
        <time>2019-10-19T10:40:12Z</time>
      </trkpt>
      <trkpt lat="39.7099730" lon="-0.4445820">
        <ele>615.4</ele>
        <time>2019-10-19T10:40:12Z</time>
      </trkpt>
      <trkpt lat="39.7100290" lon="-0.4446530">
        <ele>616.1</ele>
        <time>2019-10-19T10:40:12Z</time>
      </trkpt>
      <trkpt lat="39.7100810" lon="-0.4447290">
        <ele>616.7</ele>
        <time>2019-10-19T10:40:12Z</time>
      </trkpt>
      <trkpt lat="39.7101270" lon="-0.4448150">
        <ele>617.3</ele>
        <time>2019-10-19T10:40:12Z</time>
      </trkpt>
      <trkpt lat="39.7101630" lon="-0.4449140">
        <ele>618.0</ele>
        <time>2019-10-19T10:40:12Z</time>
      </trkpt>
      <trkpt lat="39.7101930" lon="-0.4450230">
        <ele>618.6</ele>
        <time>2019-10-19T10:40:12Z</time>
      </trkpt>
      <trkpt lat="39.7102170" lon="-0.4451330">
        <ele>619.3</ele>
        <time>2019-10-19T10:40:12Z</time>
      </trkpt>
      <trkpt lat="39.7102350" lon="-0.4452410">
        <ele>620.0</ele>
        <time>2019-10-19T10:40:12Z</time>
      </trkpt>
      <trkpt lat="39.7102410" lon="-0.4453390">
        <ele>620.6</ele>
        <time>2019-10-19T10:40:12Z</time>
      </trkpt>
      <trkpt lat="39.7102450" lon="-0.4454340">
        <ele>621.2</ele>
        <time>2019-10-19T10:40:12Z</time>
      </trkpt>
      <trkpt lat="39.7102530" lon="-0.4455330">
        <ele>621.9</ele>
        <time>2019-10-19T10:40:12Z</time>
      </trkpt>
      <trkpt lat="39.7102650" lon="-0.4456300">
        <ele>622.6</ele>
        <time>2019-10-19T10:40:12Z</time>
      </trkpt>
      <trkpt lat="39.7102940" lon="-0.4457240">
        <ele>623.3</ele>
        <time>2019-10-19T10:40:12Z</time>
      </trkpt>
      <trkpt lat="39.7103290" lon="-0.4458140">
        <ele>624.0</ele>
        <time>2019-10-19T10:40:12Z</time>
      </trkpt>
      <trkpt lat="39.7103680" lon="-0.4459000">
        <ele>624.7</ele>
        <time>2019-10-19T10:40:12Z</time>
      </trkpt>
      <trkpt lat="39.7104110" lon="-0.4459810">
        <ele>625.4</ele>
        <time>2019-10-19T10:40:12Z</time>
      </trkpt>
      <trkpt lat="39.7104520" lon="-0.4460570">
        <ele>626.0</ele>
        <time>2019-10-19T10:40:12Z</time>
      </trkpt>
      <trkpt lat="39.7105000" lon="-0.4461250">
        <ele>626.7</ele>
        <time>2019-10-19T10:40:12Z</time>
      </trkpt>
      <trkpt lat="39.7105500" lon="-0.4461880">
        <ele>627.3</ele>
        <time>2019-10-19T10:40:12Z</time>
      </trkpt>
      <trkpt lat="39.7106080" lon="-0.4462440">
        <ele>627.9</ele>
        <time>2019-10-19T10:40:12Z</time>
      </trkpt>
      <trkpt lat="39.7106660" lon="-0.4463010">
        <ele>628.5</ele>
        <time>2019-10-19T10:40:12Z</time>
      </trkpt>
      <trkpt lat="39.7107200" lon="-0.4463560">
        <ele>629.0</ele>
        <time>2019-10-19T10:40:12Z</time>
      </trkpt>
      <trkpt lat="39.7107770" lon="-0.4464250">
        <ele>629.6</ele>
        <time>2019-10-19T10:40:12Z</time>
      </trkpt>
      <trkpt lat="39.7108340" lon="-0.4464970">
        <ele>630.2</ele>
        <time>2019-10-19T10:40:12Z</time>
      </trkpt>
      <trkpt lat="39.7108940" lon="-0.4465720">
        <ele>631.0</ele>
        <time>2019-10-19T10:40:12Z</time>
      </trkpt>
      <trkpt lat="39.7109510" lon="-0.4466540">
        <ele>631.7</ele>
        <time>2019-10-19T10:40:12Z</time>
      </trkpt>
      <trkpt lat="39.7110050" lon="-0.4467430">
        <ele>632.5</ele>
        <time>2019-10-19T10:40:12Z</time>
      </trkpt>
      <trkpt lat="39.7110560" lon="-0.4468320">
        <ele>633.4</ele>
        <time>2019-10-19T10:40:12Z</time>
      </trkpt>
      <trkpt lat="39.7111150" lon="-0.4469270">
        <ele>634.4</ele>
        <time>2019-10-19T10:40:12Z</time>
      </trkpt>
      <trkpt lat="39.7111740" lon="-0.4470160">
        <ele>635.4</ele>
        <time>2019-10-19T10:40:12Z</time>
      </trkpt>
      <trkpt lat="39.7112290" lon="-0.4471070">
        <ele>636.5</ele>
        <time>2019-10-19T10:40:12Z</time>
      </trkpt>
      <trkpt lat="39.7112770" lon="-0.4471870">
        <ele>637.5</ele>
        <time>2019-10-19T10:40:12Z</time>
      </trkpt>
      <trkpt lat="39.7113090" lon="-0.4472610">
        <ele>638.3</ele>
        <time>2019-10-19T10:40:12Z</time>
      </trkpt>
      <trkpt lat="39.7113320" lon="-0.4473350">
        <ele>639.0</ele>
        <time>2019-10-19T10:40:12Z</time>
      </trkpt>
      <trkpt lat="39.7113500" lon="-0.4474270">
        <ele>639.9</ele>
        <time>2019-10-19T10:40:12Z</time>
      </trkpt>
      <trkpt lat="39.7113660" lon="-0.4475140">
        <ele>640.6</ele>
        <time>2019-10-19T10:40:12Z</time>
      </trkpt>
      <trkpt lat="39.7113880" lon="-0.4475990">
        <ele>641.4</ele>
        <time>2019-10-19T10:40:12Z</time>
      </trkpt>
      <trkpt lat="39.7114150" lon="-0.4476790">
        <ele>642.1</ele>
        <time>2019-10-19T10:40:12Z</time>
      </trkpt>
      <trkpt lat="39.7114440" lon="-0.4477540">
        <ele>642.7</ele>
        <time>2019-10-19T10:40:12Z</time>
      </trkpt>
      <trkpt lat="39.7114810" lon="-0.4478240">
        <ele>643.4</ele>
        <time>2019-10-19T10:40:12Z</time>
      </trkpt>
      <trkpt lat="39.7115190" lon="-0.4478910">
        <ele>644.0</ele>
        <time>2019-10-19T10:40:12Z</time>
      </trkpt>
      <trkpt lat="39.7115620" lon="-0.4479600">
        <ele>644.5</ele>
        <time>2019-10-19T10:40:12Z</time>
      </trkpt>
      <trkpt lat="39.7116130" lon="-0.4480180">
        <ele>645.1</ele>
        <time>2019-10-19T10:40:12Z</time>
      </trkpt>
      <trkpt lat="39.7116470" lon="-0.4480870">
        <ele>645.5</ele>
        <time>2019-10-19T10:40:12Z</time>
      </trkpt>
      <trkpt lat="39.7116840" lon="-0.4481550">
        <ele>645.9</ele>
        <time>2019-10-19T10:40:12Z</time>
      </trkpt>
      <trkpt lat="39.7117220" lon="-0.4482300">
        <ele>646.3</ele>
        <time>2019-10-19T10:40:12Z</time>
      </trkpt>
      <trkpt lat="39.7117580" lon="-0.4483080">
        <ele>646.7</ele>
        <time>2019-10-19T10:40:12Z</time>
      </trkpt>
      <trkpt lat="39.7117890" lon="-0.4483880">
        <ele>647.1</ele>
        <time>2019-10-19T10:40:12Z</time>
      </trkpt>
      <trkpt lat="39.7118120" lon="-0.4484750">
        <ele>647.5</ele>
        <time>2019-10-19T10:40:12Z</time>
      </trkpt>
      <trkpt lat="39.7118260" lon="-0.4485630">
        <ele>647.9</ele>
        <time>2019-10-19T10:40:12Z</time>
      </trkpt>
      <trkpt lat="39.7118430" lon="-0.4486550">
        <ele>648.3</ele>
        <time>2019-10-19T10:40:12Z</time>
      </trkpt>
      <trkpt lat="39.7118610" lon="-0.4487390">
        <ele>648.7</ele>
        <time>2019-10-19T10:40:12Z</time>
      </trkpt>
      <trkpt lat="39.7118780" lon="-0.4488250">
        <ele>649.2</ele>
        <time>2019-10-19T10:40:12Z</time>
      </trkpt>
      <trkpt lat="39.7118900" lon="-0.4489140">
        <ele>649.6</ele>
        <time>2019-10-19T10:40:12Z</time>
      </trkpt>
      <trkpt lat="39.7119090" lon="-0.4489990">
        <ele>650.1</ele>
        <time>2019-10-19T10:40:12Z</time>
      </trkpt>
      <trkpt lat="39.7119340" lon="-0.4490850">
        <ele>650.6</ele>
        <time>2019-10-19T10:40:12Z</time>
      </trkpt>
      <trkpt lat="39.7119660" lon="-0.4491740">
        <ele>651.3</ele>
        <time>2019-10-19T10:40:12Z</time>
      </trkpt>
      <trkpt lat="39.7119930" lon="-0.4492550">
        <ele>651.8</ele>
        <time>2019-10-19T10:40:12Z</time>
      </trkpt>
      <trkpt lat="39.7120210" lon="-0.4493360">
        <ele>652.4</ele>
        <time>2019-10-19T10:40:12Z</time>
      </trkpt>
      <trkpt lat="39.7120450" lon="-0.4494110">
        <ele>653.0</ele>
        <time>2019-10-19T10:40:12Z</time>
      </trkpt>
      <trkpt lat="39.7120710" lon="-0.4494760">
        <ele>653.5</ele>
        <time>2019-10-19T10:40:12Z</time>
      </trkpt>
      <trkpt lat="39.7120980" lon="-0.4495350">
        <ele>653.9</ele>
        <time>2019-10-19T10:40:12Z</time>
      </trkpt>
      <trkpt lat="39.7121220" lon="-0.4495890">
        <ele>654.3</ele>
        <time>2019-10-19T10:40:12Z</time>
      </trkpt>
      <trkpt lat="39.7121460" lon="-0.4496510">
        <ele>654.8</ele>
        <time>2019-10-19T10:40:12Z</time>
      </trkpt>
      <trkpt lat="39.7121710" lon="-0.4497200">
        <ele>655.4</ele>
        <time>2019-10-19T10:40:12Z</time>
      </trkpt>
      <trkpt lat="39.7121990" lon="-0.4498000">
        <ele>656.0</ele>
        <time>2019-10-19T10:40:12Z</time>
      </trkpt>
      <trkpt lat="39.7122350" lon="-0.4498760">
        <ele>656.7</ele>
        <time>2019-10-19T10:40:12Z</time>
      </trkpt>
      <trkpt lat="39.7122730" lon="-0.4499580">
        <ele>657.4</ele>
        <time>2019-10-19T10:40:12Z</time>
      </trkpt>
      <trkpt lat="39.7123150" lon="-0.4500270">
        <ele>658.1</ele>
        <time>2019-10-19T10:40:12Z</time>
      </trkpt>
      <trkpt lat="39.7123670" lon="-0.4500800">
        <ele>658.8</ele>
        <time>2019-10-19T10:40:12Z</time>
      </trkpt>
      <trkpt lat="39.7124190" lon="-0.4501260">
        <ele>659.5</ele>
        <time>2019-10-19T10:40:12Z</time>
      </trkpt>
      <trkpt lat="39.7124600" lon="-0.4501960">
        <ele>660.3</ele>
        <time>2019-10-19T10:40:12Z</time>
      </trkpt>
      <trkpt lat="39.7124960" lon="-0.4502750">
        <ele>661.2</ele>
        <time>2019-10-19T10:40:12Z</time>
      </trkpt>
      <trkpt lat="39.7125230" lon="-0.4503560">
        <ele>662.1</ele>
        <time>2019-10-19T10:40:12Z</time>
      </trkpt>
      <trkpt lat="39.7125410" lon="-0.4504370">
        <ele>662.9</ele>
        <time>2019-10-19T10:40:12Z</time>
      </trkpt>
      <trkpt lat="39.7125460" lon="-0.4505100">
        <ele>663.6</ele>
        <time>2019-10-19T10:40:12Z</time>
      </trkpt>
      <trkpt lat="39.7125400" lon="-0.4505810">
        <ele>664.3</ele>
        <time>2019-10-19T10:40:12Z</time>
      </trkpt>
      <trkpt lat="39.7125350" lon="-0.4506500">
        <ele>664.9</ele>
        <time>2019-10-19T10:40:12Z</time>
      </trkpt>
      <trkpt lat="39.7125270" lon="-0.4507180">
        <ele>665.4</ele>
        <time>2019-10-19T10:40:12Z</time>
      </trkpt>
      <trkpt lat="39.7125130" lon="-0.4507770">
        <ele>665.9</ele>
        <time>2019-10-19T10:40:12Z</time>
      </trkpt>
      <trkpt lat="39.7124960" lon="-0.4508280">
        <ele>666.2</ele>
        <time>2019-10-19T10:40:12Z</time>
      </trkpt>
      <trkpt lat="39.7124780" lon="-0.4508900">
        <ele>666.6</ele>
        <time>2019-10-19T10:40:12Z</time>
      </trkpt>
      <trkpt lat="39.7124540" lon="-0.4509550">
        <ele>666.9</ele>
        <time>2019-10-19T10:40:12Z</time>
      </trkpt>
      <trkpt lat="39.7124330" lon="-0.4510190">
        <ele>667.1</ele>
        <time>2019-10-19T10:40:12Z</time>
      </trkpt>
      <trkpt lat="39.7124270" lon="-0.4511030">
        <ele>667.4</ele>
        <time>2019-10-19T10:40:12Z</time>
      </trkpt>
      <trkpt lat="39.7124660" lon="-0.4513850">
        <ele>668.2</ele>
        <time>2019-10-19T10:40:12Z</time>
      </trkpt>
      <trkpt lat="39.7124820" lon="-0.4514780">
        <ele>668.4</ele>
        <time>2019-10-19T10:40:12Z</time>
      </trkpt>
      <trkpt lat="39.7125050" lon="-0.4515740">
        <ele>668.6</ele>
        <time>2019-10-19T10:40:12Z</time>
      </trkpt>
      <trkpt lat="39.7125300" lon="-0.4516700">
        <ele>668.9</ele>
        <time>2019-10-19T10:40:12Z</time>
      </trkpt>
      <trkpt lat="39.7125600" lon="-0.4517680">
        <ele>669.2</ele>
        <time>2019-10-19T10:40:12Z</time>
      </trkpt>
      <trkpt lat="39.7125890" lon="-0.4518720">
        <ele>669.6</ele>
        <time>2019-10-19T10:40:12Z</time>
      </trkpt>
      <trkpt lat="39.7126190" lon="-0.4519660">
        <ele>670.0</ele>
        <time>2019-10-19T10:40:12Z</time>
      </trkpt>
      <trkpt lat="39.7126540" lon="-0.4520570">
        <ele>670.5</ele>
        <time>2019-10-19T10:40:12Z</time>
      </trkpt>
      <trkpt lat="39.7126880" lon="-0.4521380">
        <ele>671.0</ele>
        <time>2019-10-19T10:40:12Z</time>
      </trkpt>
      <trkpt lat="39.7127210" lon="-0.4522140">
        <ele>671.6</ele>
        <time>2019-10-19T10:40:12Z</time>
      </trkpt>
      <trkpt lat="39.7127480" lon="-0.4522900">
        <ele>672.1</ele>
        <time>2019-10-19T10:40:12Z</time>
      </trkpt>
      <trkpt lat="39.7127600" lon="-0.4523760">
        <ele>672.7</ele>
        <time>2019-10-19T10:40:12Z</time>
      </trkpt>
      <trkpt lat="39.7127770" lon="-0.4524710">
        <ele>673.5</ele>
        <time>2019-10-19T10:40:12Z</time>
      </trkpt>
      <trkpt lat="39.7127840" lon="-0.4525640">
        <ele>674.2</ele>
        <time>2019-10-19T10:40:12Z</time>
      </trkpt>
      <trkpt lat="39.7127890" lon="-0.4526580">
        <ele>675.0</ele>
        <time>2019-10-19T10:40:12Z</time>
      </trkpt>
      <trkpt lat="39.7127900" lon="-0.4527500">
        <ele>675.7</ele>
        <time>2019-10-19T10:40:12Z</time>
      </trkpt>
      <trkpt lat="39.7127840" lon="-0.4528320">
        <ele>676.4</ele>
        <time>2019-10-19T10:40:12Z</time>
      </trkpt>
      <trkpt lat="39.7127780" lon="-0.4529110">
        <ele>677.0</ele>
        <time>2019-10-19T10:40:12Z</time>
      </trkpt>
      <trkpt lat="39.7127710" lon="-0.4529910">
        <ele>677.6</ele>
        <time>2019-10-19T10:40:12Z</time>
      </trkpt>
      <trkpt lat="39.7127620" lon="-0.4530790">
        <ele>678.1</ele>
        <time>2019-10-19T10:40:12Z</time>
      </trkpt>
      <trkpt lat="39.7127550" lon="-0.4531680">
        <ele>678.7</ele>
        <time>2019-10-19T10:40:12Z</time>
      </trkpt>
      <trkpt lat="39.7127480" lon="-0.4532490">
        <ele>679.1</ele>
        <time>2019-10-19T10:40:12Z</time>
      </trkpt>
      <trkpt lat="39.7127240" lon="-0.4534200">
        <ele>680.0</ele>
        <time>2019-10-19T10:40:12Z</time>
      </trkpt>
      <trkpt lat="39.7127110" lon="-0.4535000">
        <ele>680.3</ele>
        <time>2019-10-19T10:40:12Z</time>
      </trkpt>
      <trkpt lat="39.7126990" lon="-0.4535800">
        <ele>680.7</ele>
        <time>2019-10-19T10:40:12Z</time>
      </trkpt>
      <trkpt lat="39.7126890" lon="-0.4536550">
        <ele>681.0</ele>
        <time>2019-10-19T10:40:12Z</time>
      </trkpt>
      <trkpt lat="39.7126820" lon="-0.4537290">
        <ele>681.4</ele>
        <time>2019-10-19T10:40:12Z</time>
      </trkpt>
      <trkpt lat="39.7126630" lon="-0.4539460">
        <ele>682.4</ele>
        <time>2019-10-19T10:40:12Z</time>
      </trkpt>
      <trkpt lat="39.7126570" lon="-0.4540080">
        <ele>682.7</ele>
        <time>2019-10-19T10:40:12Z</time>
      </trkpt>
      <trkpt lat="39.7126480" lon="-0.4540690">
        <ele>683.0</ele>
        <time>2019-10-19T10:40:12Z</time>
      </trkpt>
      <trkpt lat="39.7126470" lon="-0.4541320">
        <ele>683.3</ele>
        <time>2019-10-19T10:40:12Z</time>
      </trkpt>
      <trkpt lat="39.7126380" lon="-0.4542180">
        <ele>683.8</ele>
        <time>2019-10-19T10:40:12Z</time>
      </trkpt>
      <trkpt lat="39.7126300" lon="-0.4543160">
        <ele>684.3</ele>
        <time>2019-10-19T10:40:12Z</time>
      </trkpt>
      <trkpt lat="39.7126250" lon="-0.4544080">
        <ele>684.9</ele>
        <time>2019-10-19T10:40:12Z</time>
      </trkpt>
      <trkpt lat="39.7126240" lon="-0.4545020">
        <ele>685.6</ele>
        <time>2019-10-19T10:40:12Z</time>
      </trkpt>
      <trkpt lat="39.7126200" lon="-0.4545910">
        <ele>686.3</ele>
        <time>2019-10-19T10:40:12Z</time>
      </trkpt>
      <trkpt lat="39.7126110" lon="-0.4546780">
        <ele>687.0</ele>
        <time>2019-10-19T10:40:12Z</time>
      </trkpt>
      <trkpt lat="39.7125950" lon="-0.4547630">
        <ele>687.7</ele>
        <time>2019-10-19T10:40:12Z</time>
      </trkpt>
      <trkpt lat="39.7125830" lon="-0.4548410">
        <ele>688.4</ele>
        <time>2019-10-19T10:40:12Z</time>
      </trkpt>
      <trkpt lat="39.7125760" lon="-0.4549300">
        <ele>689.2</ele>
        <time>2019-10-19T10:40:12Z</time>
      </trkpt>
      <trkpt lat="39.7125720" lon="-0.4550160">
        <ele>690.1</ele>
        <time>2019-10-19T10:40:12Z</time>
      </trkpt>
      <trkpt lat="39.7125760" lon="-0.4550940">
        <ele>690.8</ele>
        <time>2019-10-19T10:40:12Z</time>
      </trkpt>
      <trkpt lat="39.7125850" lon="-0.4551640">
        <ele>691.5</ele>
        <time>2019-10-19T10:40:12Z</time>
      </trkpt>
      <trkpt lat="39.7125920" lon="-0.4552290">
        <ele>692.2</ele>
        <time>2019-10-19T10:40:12Z</time>
      </trkpt>
      <trkpt lat="39.7125890" lon="-0.4552960">
        <ele>692.9</ele>
        <time>2019-10-19T10:40:12Z</time>
      </trkpt>
      <trkpt lat="39.7125920" lon="-0.4553640">
        <ele>693.6</ele>
        <time>2019-10-19T10:40:12Z</time>
      </trkpt>
      <trkpt lat="39.7125990" lon="-0.4554350">
        <ele>694.4</ele>
        <time>2019-10-19T10:40:12Z</time>
      </trkpt>
      <trkpt lat="39.7126000" lon="-0.4554960">
        <ele>695.0</ele>
        <time>2019-10-19T10:40:12Z</time>
      </trkpt>
      <trkpt lat="39.7126080" lon="-0.4555480">
        <ele>695.6</ele>
        <time>2019-10-19T10:40:12Z</time>
      </trkpt>
      <trkpt lat="39.7126110" lon="-0.4556010">
        <ele>696.2</ele>
        <time>2019-10-19T10:40:12Z</time>
      </trkpt>
      <trkpt lat="39.7126090" lon="-0.4556550">
        <ele>696.7</ele>
        <time>2019-10-19T10:40:12Z</time>
      </trkpt>
      <trkpt lat="39.7126020" lon="-0.4557080">
        <ele>697.3</ele>
        <time>2019-10-19T10:40:12Z</time>
      </trkpt>
      <trkpt lat="39.7125900" lon="-0.4557640">
        <ele>697.8</ele>
        <time>2019-10-19T10:40:12Z</time>
      </trkpt>
      <trkpt lat="39.7125750" lon="-0.4558270">
        <ele>698.4</ele>
        <time>2019-10-19T10:40:12Z</time>
      </trkpt>
      <trkpt lat="39.7125640" lon="-0.4558970">
        <ele>699.0</ele>
        <time>2019-10-19T10:40:12Z</time>
      </trkpt>
      <trkpt lat="39.7125530" lon="-0.4559560">
        <ele>699.5</ele>
        <time>2019-10-19T10:40:12Z</time>
      </trkpt>
      <trkpt lat="39.7124890" lon="-0.4561260">
        <ele>700.9</ele>
        <time>2019-10-19T10:40:12Z</time>
      </trkpt>
      <trkpt lat="39.7124510" lon="-0.4562210">
        <ele>701.4</ele>
        <time>2019-10-19T10:40:12Z</time>
      </trkpt>
      <trkpt lat="39.7123440" lon="-0.4564300">
        <ele>702.1</ele>
        <time>2019-10-19T10:40:12Z</time>
      </trkpt>
      <trkpt lat="39.7122840" lon="-0.4565810">
        <ele>702.0</ele>
        <time>2019-10-19T10:40:12Z</time>
      </trkpt>
      <trkpt lat="39.712173" lon="-0.456722">
        <ele>713.45</ele>
      </trkpt>
      <trkpt lat="39.71226" lon="-0.456571">
        <ele>713.05</ele>
      </trkpt>
      <trkpt lat="39.71245" lon="-0.456133">
        <ele>712.85</ele>
      </trkpt>
      <trkpt lat="39.712517" lon="-0.455935">
        <ele>712.79</ele>
      </trkpt>
      <trkpt lat="39.712547" lon="-0.455811">
        <ele>712.7</ele>
      </trkpt>
      <trkpt lat="39.712563" lon="-0.455645">
        <ele>712.63</ele>
      </trkpt>
      <trkpt lat="39.71255" lon="-0.455382">
        <ele>710.37</ele>
      </trkpt>
      <trkpt lat="39.712128" lon="-0.455146">
        <ele>714.97</ele>
      </trkpt>
      <trkpt lat="39.711975" lon="-0.454993">
        <ele>715.39</ele>
      </trkpt>
      <trkpt lat="39.71181" lon="-0.454944">
        <ele>719.89</ele>
      </trkpt>
      <trkpt lat="39.711777" lon="-0.454626">
        <ele>727.44</ele>
      </trkpt>
      <trkpt lat="39.711727" lon="-0.454519">
        <ele>728.19</ele>
      </trkpt>
      <trkpt lat="39.711693" lon="-0.45453">
        <ele>728.78</ele>
      </trkpt>
      <trkpt lat="39.711506" lon="-0.454938">
        <ele>731.86</ele>
      </trkpt>
      <trkpt lat="39.711353" lon="-0.455131">
        <ele>734.96</ele>
      </trkpt>
      <trkpt lat="39.710415" lon="-0.455581">
        <ele>749.72</ele>
      </trkpt>
      <trkpt lat="39.710125" lon="-0.455667">
        <ele>752.29</ele>
      </trkpt>
      <trkpt lat="39.70991" lon="-0.455785">
        <ele>756.66</ele>
      </trkpt>
      <trkpt lat="39.7094" lon="-0.456375">
        <ele>762.5</ele>
      </trkpt>
      <trkpt lat="39.708748" lon="-0.456987">
        <ele>769.27</ele>
      </trkpt>
      <trkpt lat="39.708485" lon="-0.457491">
        <ele>772.34</ele>
      </trkpt>
      <trkpt lat="39.70818" lon="-0.458199">
        <ele>777.36</ele>
      </trkpt>
      <trkpt lat="39.70799" lon="-0.459208">
        <ele>779.13</ele>
      </trkpt>
      <trkpt lat="39.707882" lon="-0.459326">
        <ele>779.04</ele>
      </trkpt>
      <trkpt lat="39.70731" lon="-0.45939">
        <ele>779.07</ele>
      </trkpt>
      <trkpt lat="39.706905" lon="-0.459208">
        <ele>779.27</ele>
      </trkpt>
      <trkpt lat="39.706783" lon="-0.459176">
        <ele>779.65</ele>
      </trkpt>
      <trkpt lat="39.70666" lon="-0.459291">
        <ele>778.0</ele>
      </trkpt>
      <trkpt lat="39.70632" lon="-0.459808">
        <ele>774.58</ele>
      </trkpt>
      <trkpt lat="39.705578" lon="-0.461015">
        <ele>765.09</ele>
      </trkpt>
      <trkpt lat="39.70509" lon="-0.461745">
        <ele>774.62</ele>
      </trkpt>
      <trkpt lat="39.704876" lon="-0.461851">
        <ele>782.79</ele>
      </trkpt>
      <trkpt lat="39.70406" lon="-0.462169">
        <ele>783.23</ele>
      </trkpt>
      <trkpt lat="39.703854" lon="-0.462271">
        <ele>782.62</ele>
      </trkpt>
      <trkpt lat="39.70374" lon="-0.462301">
        <ele>783.4</ele>
      </trkpt>
      <trkpt lat="39.703625" lon="-0.462286">
        <ele>783.62</ele>
      </trkpt>
      <trkpt lat="39.703194" lon="-0.462138">
        <ele>768.85</ele>
      </trkpt>
      <trkpt lat="39.702896" lon="-0.46207">
        <ele>767.26</ele>
      </trkpt>
      <trkpt lat="39.70266" lon="-0.462057">
        <ele>767.04</ele>
      </trkpt>
      <trkpt lat="39.702244" lon="-0.461911">
        <ele>759.68</ele>
      </trkpt>
      <trkpt lat="39.699005" lon="-0.46104">
        <ele>755.33</ele>
      </trkpt>
      <trkpt lat="39.698784" lon="-0.460955">
        <ele>755.29</ele>
      </trkpt>
      <trkpt lat="39.698486" lon="-0.460871">
        <ele>754.93</ele>
      </trkpt>
      <trkpt lat="39.697113" lon="-0.460622">
        <ele>731.78</ele>
      </trkpt>
      <trkpt lat="39.697086" lon="-0.460566">
        <ele>725.75</ele>
      </trkpt>
      <trkpt lat="39.697075" lon="-0.460561">
        <ele>725.44</ele>
      </trkpt>
      <trkpt lat="39.697086" lon="-0.460566">
        <ele>725.75</ele>
      </trkpt>
      <trkpt lat="39.697113" lon="-0.460622">
        <ele>731.78</ele>
      </trkpt>
      <trkpt lat="39.698486" lon="-0.460871">
        <ele>754.93</ele>
      </trkpt>
      <trkpt lat="39.698784" lon="-0.460955">
        <ele>755.29</ele>
      </trkpt>
      <trkpt lat="39.699005" lon="-0.46104">
        <ele>755.33</ele>
      </trkpt>
      <trkpt lat="39.702244" lon="-0.461911">
        <ele>759.68</ele>
      </trkpt>
      <trkpt lat="39.70266" lon="-0.462057">
        <ele>767.04</ele>
      </trkpt>
      <trkpt lat="39.702896" lon="-0.46207">
        <ele>767.26</ele>
      </trkpt>
      <trkpt lat="39.703194" lon="-0.462138">
        <ele>768.85</ele>
      </trkpt>
      <trkpt lat="39.703625" lon="-0.462286">
        <ele>783.62</ele>
      </trkpt>
      <trkpt lat="39.70374" lon="-0.462301">
        <ele>783.4</ele>
      </trkpt>
      <trkpt lat="39.703854" lon="-0.462271">
        <ele>782.62</ele>
      </trkpt>
      <trkpt lat="39.70406" lon="-0.462169">
        <ele>783.23</ele>
      </trkpt>
      <trkpt lat="39.704876" lon="-0.461851">
        <ele>782.79</ele>
      </trkpt>
      <trkpt lat="39.70509" lon="-0.461745">
        <ele>774.62</ele>
      </trkpt>
      <trkpt lat="39.705578" lon="-0.461015">
        <ele>765.09</ele>
      </trkpt>
      <trkpt lat="39.70632" lon="-0.459808">
        <ele>774.58</ele>
      </trkpt>
      <trkpt lat="39.70666" lon="-0.459291">
        <ele>778.0</ele>
      </trkpt>
      <trkpt lat="39.706783" lon="-0.459176">
        <ele>779.65</ele>
      </trkpt>
      <trkpt lat="39.706905" lon="-0.459208">
        <ele>779.27</ele>
      </trkpt>
      <trkpt lat="39.70731" lon="-0.45939">
        <ele>779.07</ele>
      </trkpt>
      <trkpt lat="39.707882" lon="-0.459326">
        <ele>779.04</ele>
      </trkpt>
      <trkpt lat="39.70799" lon="-0.459208">
        <ele>779.13</ele>
      </trkpt>
      <trkpt lat="39.70818" lon="-0.458199">
        <ele>777.36</ele>
      </trkpt>
      <trkpt lat="39.708485" lon="-0.457491">
        <ele>772.34</ele>
      </trkpt>
      <trkpt lat="39.708748" lon="-0.456987">
        <ele>769.27</ele>
      </trkpt>
      <trkpt lat="39.7094" lon="-0.456375">
        <ele>762.5</ele>
      </trkpt>
      <trkpt lat="39.70991" lon="-0.455785">
        <ele>756.66</ele>
      </trkpt>
      <trkpt lat="39.710125" lon="-0.455667">
        <ele>752.29</ele>
      </trkpt>
      <trkpt lat="39.710415" lon="-0.455581">
        <ele>749.72</ele>
      </trkpt>
      <trkpt lat="39.711353" lon="-0.455131">
        <ele>734.96</ele>
      </trkpt>
      <trkpt lat="39.711506" lon="-0.454938">
        <ele>731.86</ele>
      </trkpt>
      <trkpt lat="39.711693" lon="-0.45453">
        <ele>728.78</ele>
      </trkpt>
      <trkpt lat="39.711727" lon="-0.454519">
        <ele>728.19</ele>
      </trkpt>
      <trkpt lat="39.711777" lon="-0.454626">
        <ele>727.44</ele>
      </trkpt>
      <trkpt lat="39.711876" lon="-0.455496">
        <ele>717.06</ele>
      </trkpt>
      <trkpt lat="39.711967" lon="-0.455946">
        <ele>716.66</ele>
      </trkpt>
      <trkpt lat="39.712082" lon="-0.456418">
        <ele>716.22</ele>
      </trkpt>
      <trkpt lat="39.712105" lon="-0.456772">
        <ele>713.69</ele>
      </trkpt>
      <trkpt lat="39.71199" lon="-0.456975">
        <ele>710.64</ele>
      </trkpt>
      <trkpt lat="39.71192" lon="-0.457176">
        <ele>710.36</ele>
      </trkpt>
      <trkpt lat="39.71189" lon="-0.45773">
        <ele>710.15</ele>
      </trkpt>
      <trkpt lat="39.711906" lon="-0.45795">
        <ele>709.86</ele>
      </trkpt>
      <trkpt lat="39.712036" lon="-0.458548">
        <ele>708.64</ele>
      </trkpt>
      <trkpt lat="39.712025" lon="-0.458757">
        <ele>707.22</ele>
      </trkpt>
      <trkpt lat="39.71179" lon="-0.460033">
        <ele>707.0</ele>
      </trkpt>
      <trkpt lat="39.711746" lon="-0.460391">
        <ele>708.06</ele>
      </trkpt>
      <trkpt lat="39.711697" lon="-0.460658">
        <ele>708.62</ele>
      </trkpt>
      <trkpt lat="39.711617" lon="-0.460874">
        <ele>708.24</ele>
      </trkpt>
      <trkpt lat="39.71142" lon="-0.461321">
        <ele>705.6</ele>
      </trkpt>
      <trkpt lat="39.711346" lon="-0.461616">
        <ele>703.9</ele>
      </trkpt>
      <trkpt lat="39.711254" lon="-0.462062">
        <ele>701.75</ele>
      </trkpt>
      <trkpt lat="39.71121" lon="-0.462388">
        <ele>695.25</ele>
      </trkpt>
      <trkpt lat="39.711212" lon="-0.462778">
        <ele>692.74</ele>
      </trkpt>
      <trkpt lat="39.711433" lon="-0.463907">
        <ele>678.52</ele>
      </trkpt>
      <trkpt lat="39.711514" lon="-0.464087">
        <ele>675.73</ele>
      </trkpt>
      <trkpt lat="39.711727" lon="-0.464431">
        <ele>665.77</ele>
      </trkpt>
      <trkpt lat="39.711823" lon="-0.464516">
        <ele>663.76</ele>
      </trkpt>
      <trkpt lat="39.712494" lon="-0.464958">
        <ele>659.68</ele>
      </trkpt>
      <trkpt lat="39.712646" lon="-0.46501">
        <ele>656.67</ele>
      </trkpt>
      <trkpt lat="39.712833" lon="-0.465045">
        <ele>653.27</ele>
      </trkpt>
      <trkpt lat="39.713005" lon="-0.465034">
        <ele>650.28</ele>
      </trkpt>
      <trkpt lat="39.714436" lon="-0.464574">
        <ele>652.27</ele>
      </trkpt>
      <trkpt lat="39.71461" lon="-0.464492">
        <ele>651.15</ele>
      </trkpt>
      <trkpt lat="39.71471" lon="-0.464403">
        <ele>650.84</ele>
      </trkpt>
      <trkpt lat="39.714863" lon="-0.464218">
        <ele>650.76</ele>
      </trkpt>
      <trkpt lat="39.71498" lon="-0.464148">
        <ele>651.0</ele>
      </trkpt>
      <trkpt lat="39.715088" lon="-0.464119">
        <ele>651.59</ele>
      </trkpt>
      <trkpt lat="39.71518" lon="-0.464138">
        <ele>652.3</ele>
      </trkpt>
      <trkpt lat="39.715252" lon="-0.464175">
        <ele>653.0</ele>
      </trkpt>
      <trkpt lat="39.71533" lon="-0.464275">
        <ele>659.06</ele>
      </trkpt>
      <trkpt lat="39.715122" lon="-0.464441">
        <ele>640.52</ele>
      </trkpt>
      <trkpt lat="39.71464" lon="-0.464894">
        <ele>638.78</ele>
      </trkpt>
      <trkpt lat="39.714325" lon="-0.465149">
        <ele>637.2</ele>
      </trkpt>
      <trkpt lat="39.71405" lon="-0.465288">
        <ele>633.19</ele>
      </trkpt>
      <trkpt lat="39.712997" lon="-0.465945">
        <ele>630.74</ele>
      </trkpt>
      <trkpt lat="39.712807" lon="-0.465999">
        <ele>631.6</ele>
      </trkpt>
      <trkpt lat="39.712097" lon="-0.466033">
        <ele>632.61</ele>
      </trkpt>
      <trkpt lat="39.711933" lon="-0.46601">
        <ele>635.74</ele>
      </trkpt>
      <trkpt lat="39.711372" lon="-0.465825">
        <ele>632.52</ele>
      </trkpt>
      <trkpt lat="39.711002" lon="-0.465671">
        <ele>627.04</ele>
      </trkpt>
      <trkpt lat="39.710754" lon="-0.46543">
        <ele>625.41</ele>
      </trkpt>
      <trkpt lat="39.710655" lon="-0.465173">
        <ele>624.99</ele>
      </trkpt>
      <trkpt lat="39.710094" lon="-0.464336">
        <ele>628.38</ele>
      </trkpt>
      <trkpt lat="39.709873" lon="-0.463964">
        <ele>629.98</ele>
      </trkpt>
      <trkpt lat="39.70977" lon="-0.463446">
        <ele>631.17</ele>
      </trkpt>
      <trkpt lat="39.709763" lon="-0.463272">
        <ele>631.32</ele>
      </trkpt>
      <trkpt lat="39.709793" lon="-0.46296">
        <ele>631.35</ele>
      </trkpt>
      <trkpt lat="39.709846" lon="-0.462748">
        <ele>631.02</ele>
      </trkpt>
      <trkpt lat="39.70982" lon="-0.462662">
        <ele>630.73</ele>
      </trkpt>
      <trkpt lat="39.709755" lon="-0.462585">
        <ele>630.51</ele>
      </trkpt>
      <trkpt lat="39.70966" lon="-0.462576">
        <ele>630.15</ele>
      </trkpt>
      <trkpt lat="39.709583" lon="-0.462609">
        <ele>629.83</ele>
      </trkpt>
      <trkpt lat="39.7095" lon="-0.4627">
        <ele>629.57</ele>
      </trkpt>
      <trkpt lat="39.70933" lon="-0.463084">
        <ele>629.65</ele>
      </trkpt>
      <trkpt lat="39.709236" lon="-0.463208">
        <ele>629.81</ele>
      </trkpt>
      <trkpt lat="39.70905" lon="-0.46335">
        <ele>630.1</ele>
      </trkpt>
      <trkpt lat="39.708733" lon="-0.46351">
        <ele>630.59</ele>
      </trkpt>
      <trkpt lat="39.70842" lon="-0.463882">
        <ele>636.2</ele>
      </trkpt>
      <trkpt lat="39.708485" lon="-0.463938">
        <ele>619.56</ele>
      </trkpt>
      <trkpt lat="39.70842" lon="-0.464185">
        <ele>618.43</ele>
      </trkpt>
      <trkpt lat="39.70843" lon="-0.464294">
        <ele>617.42</ele>
      </trkpt>
      <trkpt lat="39.70842" lon="-0.464185">
        <ele>618.43</ele>
      </trkpt>
      <trkpt lat="39.708485" lon="-0.463938">
        <ele>619.56</ele>
      </trkpt>
      <trkpt lat="39.70842" lon="-0.463882">
        <ele>636.2</ele>
      </trkpt>
      <trkpt lat="39.70828" lon="-0.463974">
        <ele>638.93</ele>
      </trkpt>
      <trkpt lat="39.708214" lon="-0.464079">
        <ele>638.75</ele>
      </trkpt>
      <trkpt lat="39.708168" lon="-0.464189">
        <ele>638.29</ele>
      </trkpt>
      <trkpt lat="39.708176" lon="-0.464328">
        <ele>636.73</ele>
      </trkpt>
      <trkpt lat="39.70821" lon="-0.464476">
        <ele>635.9</ele>
      </trkpt>
      <trkpt lat="39.70854" lon="-0.465052">
        <ele>628.36</ele>
      </trkpt>
      <trkpt lat="39.708626" lon="-0.465264">
        <ele>626.8</ele>
      </trkpt>
      <trkpt lat="39.708645" lon="-0.465409">
        <ele>626.56</ele>
      </trkpt>
      <trkpt lat="39.708603" lon="-0.466169">
        <ele>619.02</ele>
      </trkpt>
      <trkpt lat="39.708633" lon="-0.466473">
        <ele>618.91</ele>
      </trkpt>
      <trkpt lat="39.708614" lon="-0.466626">
        <ele>618.27</ele>
      </trkpt>
      <trkpt lat="39.70855" lon="-0.466761">
        <ele>618.9</ele>
      </trkpt>
      <trkpt lat="39.707436" lon="-0.46778">
        <ele>609.54</ele>
      </trkpt>
      <trkpt lat="39.707165" lon="-0.468123">
        <ele>611.0</ele>
      </trkpt>
      <trkpt lat="39.70631" lon="-0.468595">
        <ele>615.89</ele>
      </trkpt>
      <trkpt lat="39.706097" lon="-0.468671">
        <ele>620.01</ele>
      </trkpt>
      <trkpt lat="39.70591" lon="-0.468692">
        <ele>620.7</ele>
      </trkpt>
      <trkpt lat="39.70538" lon="-0.468799">
        <ele>624.26</ele>
      </trkpt>
      <trkpt lat="39.704796" lon="-0.469093">
        <ele>637.78</ele>
      </trkpt>
      <trkpt lat="39.704372" lon="-0.469265">
        <ele>647.44</ele>
      </trkpt>
      <trkpt lat="39.70411" lon="-0.469429">
        <ele>663.8</ele>
      </trkpt>
      <trkpt lat="39.70395" lon="-0.469398">
        <ele>654.72</ele>
      </trkpt>
      <trkpt lat="39.703423" lon="-0.469201">
        <ele>648.59</ele>
      </trkpt>
      <trkpt lat="39.702877" lon="-0.469033">
        <ele>644.73</ele>
      </trkpt>
      <trkpt lat="39.702473" lon="-0.468869">
        <ele>636.28</ele>
      </trkpt>
      <trkpt lat="39.70222" lon="-0.468806">
        <ele>631.39</ele>
      </trkpt>
      <trkpt lat="39.701603" lon="-0.468696">
        <ele>624.7</ele>
      </trkpt>
      <trkpt lat="39.70093" lon="-0.468701">
        <ele>613.55</ele>
      </trkpt>
      <trkpt lat="39.699444" lon="-0.468146">
        <ele>608.92</ele>
      </trkpt>
      <trkpt lat="39.69922" lon="-0.468198">
        <ele>611.23</ele>
      </trkpt>
      <trkpt lat="39.699215" lon="-0.468281">
        <ele>612.34</ele>
      </trkpt>
      <trkpt lat="39.699214696884155" lon="-0.4681956768035889">
        <ele>602.9737548828125</ele>
        <time>2021-02-27T09:19:05.000Z</time>
      </trkpt>
      <trkpt lat="39.69921478070319" lon="-0.4683995246887207">
        <ele>604.3753662109375</ele>
        <time>2021-02-27T09:19:05.003Z</time>
      </trkpt>
      <trkpt lat="39.69935425557196" lon="-0.4685282707214355">
        <ele>607.0479736328125</ele>
        <time>2021-02-27T09:19:05.010Z</time>
      </trkpt>
      <trkpt lat="39.69935417175293" lon="-0.4685282707214355">
        <ele>607.048583984375</ele>
        <time>2021-02-27T09:19:05.017Z</time>
      </trkpt>
      <trkpt lat="39.69976186752319" lon="-0.4698693752288818">
        <ele>595.3245849609375</ele>
        <time>2021-02-27T09:19:05.046Z</time>
      </trkpt>
      <trkpt lat="39.699729681015015" lon="-0.4712963104248047">
        <ele>572.30078125</ele>
        <time>2021-02-27T09:19:05.097Z</time>
      </trkpt>
      <trkpt lat="39.69812035560608" lon="-0.473710298538208">
        <ele>543.060791015625</ele>
        <time>2021-02-27T09:19:05.197Z</time>
      </trkpt>
      <trkpt lat="39.69787359237671" lon="-0.4737961292266846">
        <ele>534.107177734375</ele>
        <time>2021-02-27T09:19:05.302Z</time>
      </trkpt>
      <trkpt lat="39.69742298126221" lon="-0.4737532138824463">
        <ele>523.8497314453125</ele>
        <time>2021-02-27T09:19:05.416Z</time>
      </trkpt>
      <trkpt lat="39.69755172729492" lon="-0.4739785194396973">
        <ele>519.8392944335938</ele>
        <time>2021-02-27T09:19:05.535Z</time>
      </trkpt>
      <trkpt lat="39.69756245613098" lon="-0.4740643501281738">
        <ele>517.2730712890625</ele>
        <time>2021-02-27T09:19:05.655Z</time>
      </trkpt>
      <trkpt lat="39.697465896606445" lon="-0.47416090965271">
        <ele>513.3136596679688</ele>
        <time>2021-02-27T09:19:05.777Z</time>
      </trkpt>
      <trkpt lat="39.69735860824585" lon="-0.4741930961608887">
        <ele>511.4988708496094</ele>
        <time>2021-02-27T09:19:05.902Z</time>
      </trkpt>
      <trkpt lat="39.69728350639343" lon="-0.4741072654724121">
        <ele>513.0801391601562</ele>
        <time>2021-02-27T09:19:06.029Z</time>
      </trkpt>
      <trkpt lat="39.697197675704956" lon="-0.4737210273742676">
        <ele>520.1967163085938</ele>
        <time>2021-02-27T09:19:06.162Z</time>
      </trkpt>
      <trkpt lat="39.69692945480347" lon="-0.4734313488006592">
        <ele>521.8360595703125</ele>
        <time>2021-02-27T09:19:06.302Z</time>
      </trkpt>
      <trkpt lat="39.696124792099" lon="-0.4739892482757568">
        <ele>499.09930419921875</ele>
        <time>2021-02-27T09:19:06.460Z</time>
      </trkpt>
      <trkpt lat="39.69579219818115" lon="-0.4740428924560547">
        <ele>490.24072265625</ele>
        <time>2021-02-27T09:19:06.625Z</time>
      </trkpt>
      <trkpt lat="39.69534158706665" lon="-0.4740321636199951">
        <ele>483.29638671875</ele>
        <time>2021-02-27T09:19:06.799Z</time>
      </trkpt>
      <trkpt lat="39.69488024711609" lon="-0.4737532138824463">
        <ele>483.92938232421875</ele>
        <time>2021-02-27T09:19:06.983Z</time>
      </trkpt>
      <trkpt lat="39.6945583820343" lon="-0.4735279083251953">
        <ele>476.349853515625</ele>
        <time>2021-02-27T09:19:07.174Z</time>
      </trkpt>
      <trkpt lat="39.69415068626404" lon="-0.4730880260467529">
        <ele>462.7713317871094</ele>
        <time>2021-02-27T09:19:07.376Z</time>
      </trkpt>
      <trkpt lat="39.69412922859192" lon="-0.4727447032928467">
        <ele>459.2773742675781</ele>
        <time>2021-02-27T09:19:07.583Z</time>
      </trkpt>
      <trkpt lat="39.69426870346069" lon="-0.472412109375">
        <ele>463.6550598144531</ele>
        <time>2021-02-27T09:19:07.796Z</time>
      </trkpt>
      <trkpt lat="39.69435453414917" lon="-0.4718434810638428">
        <ele>471.1555480957031</ele>
        <time>2021-02-27T09:19:08.018Z</time>
      </trkpt>
      <trkpt lat="39.69429016113281" lon="-0.4717576503753662">
        <ele>469.5415344238281</ele>
        <time>2021-02-27T09:19:08.242Z</time>
      </trkpt>
      <trkpt lat="39.69364651478827" lon="-0.4715108871459961">
        <ele>455.4661865234375</ele>
        <time>2021-02-27T09:19:08.479Z</time>
      </trkpt>
      <trkpt lat="39.693249464035034" lon="-0.4715645313262939">
        <ele>449.516357421875</ele>
        <time>2021-02-27T09:19:08.724Z</time>
      </trkpt>
      <trkpt lat="39.693260192871094" lon="-0.4716825485229492">
        <ele>450.71893310546875</ele>
        <time>2021-02-27T09:19:08.971Z</time>
      </trkpt>
      <trkpt lat="39.693946838378906" lon="-0.4719936847686768">
        <ele>456.31146240234375</ele>
        <time>2021-02-27T09:19:09.232Z</time>
      </trkpt>
      <trkpt lat="39.6940541267395" lon="-0.4722082614898682">
        <ele>457.07598876953125</ele>
        <time>2021-02-27T09:19:09.497Z</time>
      </trkpt>
      <trkpt lat="39.693968296051025" lon="-0.4724979400634766">
        <ele>453.75567626953125</ele>
        <time>2021-02-27T09:19:09.767Z</time>
      </trkpt>
      <trkpt lat="39.69378590583801" lon="-0.472637414932251">
        <ele>449.0487060546875</ele>
        <time>2021-02-27T09:19:10.041Z</time>
      </trkpt>
      <trkpt lat="39.69358205795288" lon="-0.4730665683746338">
        <ele>440.9319763183594</ele>
        <time>2021-02-27T09:19:10.323Z</time>
      </trkpt>
      <trkpt lat="39.69362497329712" lon="-0.4740643501281738">
        <ele>433.9057312011719</ele>
        <time>2021-02-27T09:19:10.621Z</time>
      </trkpt>
      <trkpt lat="39.693946838378906" lon="-0.4753518104553223">
        <ele>426.7885437011719</ele>
        <time>2021-02-27T09:19:10.940Z</time>
      </trkpt>
      <trkpt lat="39.694193601608276" lon="-0.4755985736846924">
        <ele>422.93096923828125</ele>
        <time>2021-02-27T09:19:11.265Z</time>
      </trkpt>
      <trkpt lat="39.69414004124701" lon="-0.4756844043731689">
        <ele>419.3402404785156</ele>
        <time>2021-02-27T09:19:11.591Z</time>
      </trkpt>
      <trkpt lat="39.69413995742798" lon="-0.4756844043731689">
        <ele>419.3399353027344</ele>
        <time>2021-02-27T09:19:11.917Z</time>
      </trkpt>
      <trkpt lat="39.69393610954285" lon="-0.4756307601928711">
        <ele>418.5675354003906</ele>
        <time>2021-02-27T09:19:12.248Z</time>
      </trkpt>
      <trkpt lat="39.69353914260864" lon="-0.4753303527832031">
        <ele>417.21490478515625</ele>
        <time>2021-02-27T09:19:12.588Z</time>
      </trkpt>
      <trkpt lat="39.69316363334656" lon="-0.4752874374389648">
        <ele>411.4864807128906</ele>
        <time>2021-02-27T09:19:12.935Z</time>
      </trkpt>
      <trkpt lat="39.692959785461426" lon="-0.4749870300292969">
        <ele>409.3013000488281</ele>
        <time>2021-02-27T09:19:13.289Z</time>
      </trkpt>
      <trkpt lat="39.692444801330566" lon="-0.474783182144165">
        <ele>397.48004150390625</ele>
        <time>2021-02-27T09:19:13.653Z</time>
      </trkpt>
      <trkpt lat="39.69228386878967" lon="-0.4744827747344971">
        <ele>392.2969665527344</ele>
        <time>2021-02-27T09:19:14.023Z</time>
      </trkpt>
      <trkpt lat="39.69232678413391" lon="-0.4736566543579102">
        <ele>389.4123840332031</ele>
        <time>2021-02-27T09:19:14.406Z</time>
      </trkpt>
      <trkpt lat="39.692262411117554" lon="-0.4735386371612549">
        <ele>386.575439453125</ele>
        <time>2021-02-27T09:19:14.791Z</time>
      </trkpt>
      <trkpt lat="39.69139337539673" lon="-0.4730558395385742">
        <ele>374.0047912597656</ele>
        <time>2021-02-27T09:19:15.195Z</time>
      </trkpt>
      <trkpt lat="39.69103932380676" lon="-0.4724657535552979">
        <ele>367.8834533691406</ele>
        <time>2021-02-27T09:19:15.610Z</time>
      </trkpt>
      <trkpt lat="39.690717458724976" lon="-0.4721653461456299">
        <ele>366.453369140625</ele>
        <time>2021-02-27T09:19:16.033Z</time>
      </trkpt>
      <trkpt lat="39.69019174575806" lon="-0.4718434810638428">
        <ele>360.99969482421875</ele>
        <time>2021-02-27T09:19:16.468Z</time>
      </trkpt>
      <trkpt lat="39.68994498252869" lon="-0.4718756675720215">
        <ele>362.0154724121094</ele>
        <time>2021-02-27T09:19:16.908Z</time>
      </trkpt>
      <trkpt lat="39.689215421676636" lon="-0.4708993434906006">
        <ele>348.1474914550781</ele>
        <time>2021-02-27T09:19:17.369Z</time>
      </trkpt>
      <trkpt lat="39.68903303146362" lon="-0.4707705974578857">
        <ele>343.95355224609375</ele>
        <time>2021-02-27T09:19:17.834Z</time>
      </trkpt>
      <trkpt lat="39.688732624053955" lon="-0.4707276821136475">
        <ele>344.24041748046875</ele>
        <time>2021-02-27T09:19:18.305Z</time>
      </trkpt>
      <trkpt lat="39.68843221664429" lon="-0.4704916477203369">
        <ele>337.6289978027344</ele>
        <time>2021-02-27T09:19:18.783Z</time>
      </trkpt>
      <trkpt lat="39.6881639957428" lon="-0.4704380035400391">
        <ele>334.4363708496094</ele>
        <time>2021-02-27T09:19:19.267Z</time>
      </trkpt>
      <trkpt lat="39.686983823776245" lon="-0.4706954956054688">
        <ele>333.4847412109375</ele>
        <time>2021-02-27T09:19:19.774Z</time>
      </trkpt>
      <trkpt lat="39.68616843223572" lon="-0.4706525802612305">
        <ele>322.595458984375</ele>
        <time>2021-02-27T09:19:20.298Z</time>
      </trkpt>
      <trkpt lat="39.685750007629395" lon="-0.470813512802124">
        <ele>316.01513671875</ele>
        <time>2021-02-27T09:19:20.830Z</time>
      </trkpt>
      <trkpt lat="39.68482732772827" lon="-0.4715859889984131">
        <ele>309.84283447265625</ele>
        <time>2021-02-27T09:19:21.384Z</time>
      </trkpt>
      <trkpt lat="39.68435525894165" lon="-0.4724550247192383">
        <ele>307.05926513671875</ele>
        <time>2021-02-27T09:19:21.955Z</time>
      </trkpt>
      <trkpt lat="39.68435919843614" lon="-0.4728225711733103">
        <ele>310.75006103515625</ele>
        <time>2021-02-27T09:19:22.532Z</time>
      </trkpt>
      <trkpt lat="39.68435919843614" lon="-0.4728224873542786">
        <ele>310.749755859375</ele>
        <time>2021-02-27T09:19:23.109Z</time>
      </trkpt>
      <trkpt lat="39.68436598777771" lon="-0.4734420776367188">
        <ele>308.7149353027344</ele>
        <time>2021-02-27T09:19:23.695Z</time>
      </trkpt>
      <trkpt lat="39.683808172121644" lon="-0.475534200668335">
        <ele>299.05133056640625</ele>
        <time>2021-02-27T09:19:24.315Z</time>
      </trkpt>
      <trkpt lat="39.68365788459778" lon="-0.4759740829467773">
        <ele>300.0614318847656</ele>
        <time>2021-02-27T09:19:24.943Z</time>
      </trkpt>
      <trkpt lat="39.68353986740112" lon="-0.4761135578155518">
        <ele>301.06536865234375</ele>
        <time>2021-02-27T09:19:25.574Z</time>
      </trkpt>
      <trkpt lat="39.68239188194275" lon="-0.4767894744873047">
        <ele>304.2528076171875</ele>
        <time>2021-02-27T09:19:26.230Z</time>
      </trkpt>
      <trkpt lat="39.68209147453308" lon="-0.4769396781921387">
        <ele>305.6881103515625</ele>
        <time>2021-02-27T09:19:26.893Z</time>
      </trkpt>
      <trkpt lat="39.68033194541931" lon="-0.4775404930114746">
        <ele>312.1976623535156</ele>
        <time>2021-02-27T09:19:27.592Z</time>
      </trkpt>
      <trkpt lat="39.679312789812684" lon="-0.4777014255523682">
        <ele>305.04034423828125</ele>
        <time>2021-02-27T09:19:28.311Z</time>
      </trkpt>
      <trkpt lat="39.67931270599365" lon="-0.4777014255523682">
        <ele>305.0394287109375</ele>
        <time>2021-02-27T09:19:29.030Z</time>
      </trkpt>
      <trkpt lat="39.678765535354614" lon="-0.477755069732666">
        <ele>295.50885009765625</ele>
        <time>2021-02-27T09:19:29.760Z</time>
      </trkpt>
      <trkpt lat="39.67640519142151" lon="-0.4783987998962402">
        <ele>282.79376220703125</ele>
        <time>2021-02-27T09:19:30.539Z</time>
      </trkpt>
      <trkpt lat="39.675257205963135" lon="-0.4778730869293213">
        <ele>273.979736328125</ele>
        <time>2021-02-27T09:19:31.342Z</time>
      </trkpt>
      <trkpt lat="39.67482805252075" lon="-0.4775404930114746">
        <ele>271.9620056152344</ele>
        <time>2021-02-27T09:19:32.155Z</time>
      </trkpt>
      <trkpt lat="39.67491388320923" lon="-0.4774439334869385">
        <ele>271.6641845703125</ele>
        <time>2021-02-27T09:19:32.970Z</time>
      </trkpt>
      <trkpt lat="39.67489242553711" lon="-0.4769718647003174">
        <ele>271.4378967285156</ele>
        <time>2021-02-27T09:19:33.792Z</time>
      </trkpt>
      <trkpt lat="39.67494606971741" lon="-0.4766178131103516">
        <ele>271.69500732421875</ele>
        <time>2021-02-27T09:19:34.620Z</time>
      </trkpt>
      <trkpt lat="39.67532157897949" lon="-0.4765212535858154">
        <ele>269.03515625</ele>
        <time>2021-02-27T09:19:35.456Z</time>
      </trkpt>
      <trkpt lat="39.675493240356445" lon="-0.4764246940612793">
        <ele>267.7047119140625</ele>
        <time>2021-02-27T09:19:36.295Z</time>
      </trkpt>
      <trkpt lat="39.675514698028564" lon="-0.4763388633728027">
        <ele>267.0096740722656</ele>
        <time>2021-02-27T09:19:37.136Z</time>
      </trkpt>
      <trkpt lat="39.67539668083191" lon="-0.4757165908813477">
        <ele>262.4607238769531</ele>
        <time>2021-02-27T09:19:37.987Z</time>
      </trkpt>
      <trkpt lat="39.67560052871704" lon="-0.4749548435211182">
        <ele>260.97271728515625</ele>
        <time>2021-02-27T09:19:38.850Z</time>
      </trkpt>
      <trkpt lat="39.675525426864624" lon="-0.4746329784393311">
        <ele>259.55633544921875</ele>
        <time>2021-02-27T09:19:39.718Z</time>
      </trkpt>
      <trkpt lat="39.67492461204529" lon="-0.4743111133575439">
        <ele>261.33880615234375</ele>
        <time>2021-02-27T09:19:40.599Z</time>
      </trkpt>
      <trkpt lat="39.67459201812744" lon="-0.4737317562103271">
        <ele>260.74713134765625</ele>
        <time>2021-02-27T09:19:41.492Z</time>
      </trkpt>
      <trkpt lat="39.67442035675049" lon="-0.4735815525054932">
        <ele>261.5221862792969</ele>
        <time>2021-02-27T09:19:42.389Z</time>
      </trkpt>
      <trkpt lat="39.674237966537476" lon="-0.4735386371612549">
        <ele>262.5310974121094</ele>
        <time>2021-02-27T09:19:43.289Z</time>
      </trkpt>
      <trkpt lat="39.674023389816284" lon="-0.4731416702270508">
        <ele>261.31024169921875</ele>
        <time>2021-02-27T09:19:44.197Z</time>
      </trkpt>
      <trkpt lat="39.67379808425903" lon="-0.4729700088500977">
        <ele>260.4993591308594</ele>
        <time>2021-02-27T09:19:45.110Z</time>
      </trkpt>
      <trkpt lat="39.673744440078735" lon="-0.4728198051452637">
        <ele>259.7910461425781</ele>
        <time>2021-02-27T09:19:46.026Z</time>
      </trkpt>
      <trkpt lat="39.673476219177246" lon="-0.472562313079834">
        <ele>258.4964904785156</ele>
        <time>2021-02-27T09:19:46.948Z</time>
      </trkpt>
      <trkpt lat="39.673476219177246" lon="-0.4724764823913574">
        <ele>258.9428405761719</ele>
        <time>2021-02-27T09:19:47.872Z</time>
      </trkpt>
      <trkpt lat="39.673765981569886" lon="-0.4723155498504639">
        <ele>258.3636474609375</ele>
        <time>2021-02-27T09:19:48.802Z</time>
      </trkpt>
      <trkpt lat="39.67406630516052" lon="-0.4720473289489746">
        <ele>258.9293518066406</ele>
        <time>2021-02-27T09:19:49.739Z</time>
      </trkpt>
      <trkpt lat="39.67436671257019" lon="-0.471961498260498">
        <ele>260.6352844238281</ele>
        <time>2021-02-27T09:19:50.682Z</time>
      </trkpt>
      <trkpt lat="39.67459201812744" lon="-0.4716825485229492">
        <ele>260.0854797363281</ele>
        <time>2021-02-27T09:19:51.632Z</time>
      </trkpt>
      <trkpt lat="39.67493534088135" lon="-0.4715108871459961">
        <ele>260.65234375</ele>
        <time>2021-02-27T09:19:52.589Z</time>
      </trkpt>
      <trkpt lat="39.674999713897705" lon="-0.4713499546051025">
        <ele>261.11151123046875</ele>
        <time>2021-02-27T09:19:53.549Z</time>
      </trkpt>
      <trkpt lat="39.67518210411072" lon="-0.4712426662445068">
        <ele>261.97808837890625</ele>
        <time>2021-02-27T09:19:54.513Z</time>
      </trkpt>
      <trkpt lat="39.67543959617615" lon="-0.4712533950805664">
        <ele>263.40716552734375</ele>
        <time>2021-02-27T09:19:55.482Z</time>
      </trkpt>
      <trkpt lat="39.67630863189697" lon="-0.4707705974578857">
        <ele>268.1269836425781</ele>
        <time>2021-02-27T09:19:56.470Z</time>
      </trkpt>
      <trkpt lat="39.676716327667236" lon="-0.4706847667694092">
        <ele>266.0</ele>
        <time>2021-02-27T09:19:57.466Z</time>
      </trkpt>
      <trkpt lat="39.676780700683594" lon="-0.4705023765563965">
        <ele>266.1619567871094</ele>
        <time>2021-02-27T09:19:58.465Z</time>
      </trkpt>
      <trkpt lat="39.676769971847534" lon="-0.4702985286712646">
        <ele>267.5960388183594</ele>
        <time>2021-02-27T09:19:59.467Z</time>
      </trkpt>
      <trkpt lat="39.67635154724121" lon="-0.4693865776062012">
        <ele>277.420654296875</ele>
        <time>2021-02-27T09:20:00.486Z</time>
      </trkpt>
      <trkpt lat="39.67628365382552" lon="-0.4690786264836788">
        <ele>279.775390625</ele>
        <time>2021-02-27T09:20:01.510Z</time>
      </trkpt>
      <trkpt lat="39.67628373764455" lon="-0.469078877940774">
        <ele>279.7738952636719</ele>
        <time>2021-02-27T09:20:02.534Z</time>
      </trkpt>
      <trkpt lat="39.67619061470032" lon="-0.4686570167541504">
        <ele>279.9529113769531</ele>
        <time>2021-02-27T09:20:03.564Z</time>
      </trkpt>
      <trkpt lat="39.67556834220886" lon="-0.4671120643615723">
        <ele>291.3884582519531</ele>
        <time>2021-02-27T09:20:04.621Z</time>
      </trkpt>
      <trkpt lat="39.67562198638916" lon="-0.4654920101165771">
        <ele>306.264892578125</ele>
        <time>2021-02-27T09:20:05.703Z</time>
      </trkpt>
      <trkpt lat="39.67568635940552" lon="-0.4651486873626709">
        <ele>308.0882263183594</ele>
        <time>2021-02-27T09:20:06.791Z</time>
      </trkpt>
      <trkpt lat="39.67589020729065" lon="-0.4648697376251221">
        <ele>306.677490234375</ele>
        <time>2021-02-27T09:20:07.885Z</time>
      </trkpt>
      <trkpt lat="39.67660903930664" lon="-0.4646337032318115">
        <ele>303.0019836425781</ele>
        <time>2021-02-27T09:20:08.994Z</time>
      </trkpt>
      <trkpt lat="39.67716693878174" lon="-0.4644405841827393">
        <ele>302.3111877441406</ele>
        <time>2021-02-27T09:20:10.114Z</time>
      </trkpt>
      <trkpt lat="39.677284955978394" lon="-0.4642367362976074">
        <ele>303.9415588378906</ele>
        <time>2021-02-27T09:20:11.238Z</time>
      </trkpt>
      <trkpt lat="39.67733860015869" lon="-0.4637110233306885">
        <ele>308.8790283203125</ele>
        <time>2021-02-27T09:20:12.370Z</time>
      </trkpt>
      <trkpt lat="39.677757024765015" lon="-0.4630029201507568">
        <ele>313.0771789550781</ele>
        <time>2021-02-27T09:20:13.516Z</time>
      </trkpt>
      <trkpt lat="39.678218364715576" lon="-0.4626059532165527">
        <ele>314.6097717285156</ele>
        <time>2021-02-27T09:20:14.673Z</time>
      </trkpt>
      <trkpt lat="39.67855095863342" lon="-0.4619193077087402">
        <ele>317.7653503417969</ele>
        <time>2021-02-27T09:20:15.843Z</time>
      </trkpt>
      <trkpt lat="39.6785831451416" lon="-0.4613721370697021">
        <ele>316.8354797363281</ele>
        <time>2021-02-27T09:20:17.021Z</time>
      </trkpt>
      <trkpt lat="39.67886209487915" lon="-0.4604065418243408">
        <ele>326.68023681640625</ele>
        <time>2021-02-27T09:20:18.215Z</time>
      </trkpt>
      <trkpt lat="39.679001569747925" lon="-0.4600739479064941">
        <ele>331.24267578125</ele>
        <time>2021-02-27T09:20:19.415Z</time>
      </trkpt>
      <trkpt lat="39.679237604141235" lon="-0.459827184677124">
        <ele>334.0993347167969</ele>
        <time>2021-02-27T09:20:20.621Z</time>
      </trkpt>
      <trkpt lat="39.67938780784607" lon="-0.4595375061035156">
        <ele>334.1651916503906</ele>
        <time>2021-02-27T09:20:21.832Z</time>
      </trkpt>
      <trkpt lat="39.679495096206665" lon="-0.4590225219726562">
        <ele>332.4750671386719</ele>
        <time>2021-02-27T09:20:23.052Z</time>
      </trkpt>
      <trkpt lat="39.679516553878784" lon="-0.4584968090057373">
        <ele>335.2395935058594</ele>
        <time>2021-02-27T09:20:24.280Z</time>
      </trkpt>
      <trkpt lat="39.67952208593488" lon="-0.4584725014865398">
        <ele>335.5298156738281</ele>
        <time>2021-02-27T09:20:25.508Z</time>
      </trkpt>
      <trkpt lat="39.67952216975391" lon="-0.4584723338484764">
        <ele>335.53131103515625</ele>
        <time>2021-02-27T09:20:26.736Z</time>
      </trkpt>
      <trkpt lat="39.6796989440918" lon="-0.4576921463012695">
        <ele>340.85174560546875</ele>
        <time>2021-02-27T09:20:27.977Z</time>
      </trkpt>
      <trkpt lat="39.68006372451782" lon="-0.4572522640228271">
        <ele>343.6982421875</ele>
        <time>2021-02-27T09:20:29.228Z</time>
      </trkpt>
      <trkpt lat="39.680256843566895" lon="-0.4572951793670654">
        <ele>343.4888610839844</ele>
        <time>2021-02-27T09:20:30.482Z</time>
      </trkpt>
      <trkpt lat="39.68063235282898" lon="-0.4568767547607422">
        <ele>347.2005615234375</ele>
        <time>2021-02-27T09:20:31.746Z</time>
      </trkpt>
      <trkpt lat="39.68085774220526" lon="-0.4564905166625977">
        <ele>347.40936279296875</ele>
        <time>2021-02-27T09:20:33.018Z</time>
      </trkpt>
      <trkpt lat="39.68084692955017" lon="-0.4559326171875">
        <ele>349.7303771972656</ele>
        <time>2021-02-27T09:20:34.298Z</time>
      </trkpt>
      <trkpt lat="39.68055725097656" lon="-0.4553425312042236">
        <ele>354.3734436035156</ele>
        <time>2021-02-27T09:20:35.589Z</time>
      </trkpt>
      <trkpt lat="39.68069672584534" lon="-0.4550957679748535">
        <ele>356.5482482910156</ele>
        <time>2021-02-27T09:20:36.885Z</time>
      </trkpt>
      <trkpt lat="39.680525064468384" lon="-0.4546558856964111">
        <ele>361.5804443359375</ele>
        <time>2021-02-27T09:20:38.189Z</time>
      </trkpt>
      <trkpt lat="39.68053579330444" lon="-0.4545485973358154">
        <ele>362.73883056640625</ele>
        <time>2021-02-27T09:20:39.494Z</time>
      </trkpt>
      <trkpt lat="39.680804098024964" lon="-0.4542911052703857">
        <ele>365.0126647949219</ele>
        <time>2021-02-27T09:20:40.806Z</time>
      </trkpt>
      <trkpt lat="39.68061089515686" lon="-0.4540228843688965">
        <ele>367.8679504394531</ele>
        <time>2021-02-27T09:20:42.124Z</time>
      </trkpt>
      <trkpt lat="39.68056797981262" lon="-0.4537439346313477">
        <ele>372.03814697265625</ele>
        <time>2021-02-27T09:20:43.446Z</time>
      </trkpt>
      <trkpt lat="39.68033202923834" lon="-0.4531753063201904">
        <ele>385.05828857421875</ele>
        <time>2021-02-27T09:20:44.778Z</time>
      </trkpt>
      <trkpt lat="39.68039631843567" lon="-0.4530036449432373">
        <ele>387.2066650390625</ele>
        <time>2021-02-27T09:20:46.113Z</time>
      </trkpt>
      <trkpt lat="39.68033202923834" lon="-0.4527676105499268">
        <ele>392.8912353515625</ele>
        <time>2021-02-27T09:20:47.452Z</time>
      </trkpt>
      <trkpt lat="39.680213928222656" lon="-0.4526066780090332">
        <ele>402.5345458984375</ele>
        <time>2021-02-27T09:20:48.794Z</time>
      </trkpt>
      <trkpt lat="39.67987068928778" lon="-0.4525852203369141">
        <ele>408.2285461425781</ele>
        <time>2021-02-27T09:20:50.143Z</time>
      </trkpt>
      <trkpt lat="39.67958092689514" lon="-0.4527032375335693">
        <ele>404.1314697265625</ele>
        <time>2021-02-27T09:20:51.498Z</time>
      </trkpt>
      <trkpt lat="39.67945218086243" lon="-0.4526925086975098">
        <ele>403.1033935546875</ele>
        <time>2021-02-27T09:20:52.856Z</time>
      </trkpt>
      <trkpt lat="39.67945218086243" lon="-0.4526174068450928">
        <ele>404.7251281738281</ele>
        <time>2021-02-27T09:20:54.215Z</time>
      </trkpt>
      <trkpt lat="39.6796989440918" lon="-0.4525423049926758">
        <ele>408.274658203125</ele>
        <time>2021-02-27T09:20:55.579Z</time>
      </trkpt>
      <trkpt lat="39.680246114730835" lon="-0.4520165920257568">
        <ele>425.8824462890625</ele>
        <time>2021-02-27T09:20:56.957Z</time>
      </trkpt>
      <trkpt lat="39.68038558959961" lon="-0.4520058631896973">
        <ele>423.4239807128906</ele>
        <time>2021-02-27T09:20:58.337Z</time>
      </trkpt>
      <trkpt lat="39.68063235282898" lon="-0.4521560668945312">
        <ele>406.1411437988281</ele>
        <time>2021-02-27T09:20:59.723Z</time>
      </trkpt>
      <trkpt lat="39.68164086341858" lon="-0.4521667957305908">
        <ele>409.43853759765625</ele>
        <time>2021-02-27T09:21:01.129Z</time>
      </trkpt>
      <trkpt lat="39.68191981315613" lon="-0.4520809650421143">
        <ele>414.6370544433594</ele>
        <time>2021-02-27T09:21:02.541Z</time>
      </trkpt>
      <trkpt lat="39.68191989697516" lon="-0.4520809650421143">
        <ele>414.6379699707031</ele>
        <time>2021-02-27T09:21:03.953Z</time>
      </trkpt>
      <trkpt lat="39.68253135681152" lon="-0.4516732692718506">
        <ele>423.90802001953125</ele>
        <time>2021-02-27T09:21:05.378Z</time>
      </trkpt>
      <trkpt lat="39.683507680892944" lon="-0.4514479637145996">
        <ele>424.79412841796875</ele>
        <time>2021-02-27T09:21:06.823Z</time>
      </trkpt>
      <trkpt lat="39.68390464782715" lon="-0.4511368274688721">
        <ele>433.6556091308594</ele>
        <time>2021-02-27T09:21:08.278Z</time>
      </trkpt>
      <trkpt lat="39.68406558036804" lon="-0.4508256912231445">
        <ele>445.1545104980469</ele>
        <time>2021-02-27T09:21:09.738Z</time>
      </trkpt>
      <trkpt lat="39.6840763092041" lon="-0.4502677917480469">
        <ele>454.0056457519531</ele>
        <time>2021-02-27T09:21:11.207Z</time>
      </trkpt>
      <trkpt lat="39.6841835975647" lon="-0.4499995708465576">
        <ele>459.3999938964844</ele>
        <time>2021-02-27T09:21:12.681Z</time>
      </trkpt>
      <trkpt lat="39.68467712402344" lon="-0.44944167137146">
        <ele>456.921142578125</ele>
        <time>2021-02-27T09:21:14.168Z</time>
      </trkpt>
      <trkpt lat="39.68490242958069" lon="-0.4487979412078857">
        <ele>471.8507995605469</ele>
        <time>2021-02-27T09:21:15.666Z</time>
      </trkpt>
      <trkpt lat="39.685009717941284" lon="-0.44869065284729">
        <ele>476.0982360839844</ele>
        <time>2021-02-27T09:21:17.166Z</time>
      </trkpt>
      <trkpt lat="39.68542814254761" lon="-0.4485726356506348">
        <ele>480.3215637207031</ele>
        <time>2021-02-27T09:21:18.675Z</time>
      </trkpt>
      <trkpt lat="39.6856963634491" lon="-0.4486048221588135">
        <ele>480.2763671875</ele>
        <time>2021-02-27T09:21:20.189Z</time>
      </trkpt>
      <trkpt lat="39.686501026153564" lon="-0.4489588737487793">
        <ele>470.7135925292969</ele>
        <time>2021-02-27T09:21:21.720Z</time>
      </trkpt>
      <trkpt lat="39.686747789382935" lon="-0.4490983486175537">
        <ele>470.27972412109375</ele>
        <time>2021-02-27T09:21:23.257Z</time>
      </trkpt>
      <trkpt lat="39.68732714653015" lon="-0.4497635364532471">
        <ele>475.7415466308594</ele>
        <time>2021-02-27T09:21:24.809Z</time>
      </trkpt>
      <trkpt lat="39.68764901161194" lon="-0.4499244689941406">
        <ele>479.0609436035156</ele>
        <time>2021-02-27T09:21:26.368Z</time>
      </trkpt>
      <trkpt lat="39.68789577484131" lon="-0.4494309425354004">
        <ele>486.5705261230469</ele>
        <time>2021-02-27T09:21:27.936Z</time>
      </trkpt>
      <trkpt lat="39.688228368759155" lon="-0.4489803314208984">
        <ele>479.342529296875</ele>
        <time>2021-02-27T09:21:29.514Z</time>
      </trkpt>
      <trkpt lat="39.68831419944763" lon="-0.4486584663391113">
        <ele>474.5361022949219</ele>
        <time>2021-02-27T09:21:31.097Z</time>
      </trkpt>
      <trkpt lat="39.688249826431274" lon="-0.4483902454376221">
        <ele>473.2394714355469</ele>
        <time>2021-02-27T09:21:32.684Z</time>
      </trkpt>
      <trkpt lat="39.68778848648071" lon="-0.4477035999298096">
        <ele>467.26885986328125</ele>
        <time>2021-02-27T09:21:34.285Z</time>
      </trkpt>
      <trkpt lat="39.68753099441528" lon="-0.44669508934021">
        <ele>463.15185546875</ele>
        <time>2021-02-27T09:21:35.903Z</time>
      </trkpt>
      <trkpt lat="39.687466621398926" lon="-0.4463303089141846">
        <ele>459.44683837890625</ele>
        <time>2021-02-27T09:21:37.527Z</time>
      </trkpt>
      <trkpt lat="39.687466621398926" lon="-0.445868968963623">
        <ele>452.4499206542969</ele>
        <time>2021-02-27T09:21:39.158Z</time>
      </trkpt>
      <trkpt lat="39.687734842300415" lon="-0.4448175430297852">
        <ele>439.0560607910156</ele>
        <time>2021-02-27T09:21:40.806Z</time>
      </trkpt>
      <trkpt lat="39.68763828277588" lon="-0.4447102546691895">
        <ele>436.9672546386719</ele>
        <time>2021-02-27T09:21:42.456Z</time>
      </trkpt>
      <trkpt lat="39.68742370605469" lon="-0.444720983505249">
        <ele>434.7663269042969</ele>
        <time>2021-02-27T09:21:44.111Z</time>
      </trkpt>
      <trkpt lat="39.68718767166138" lon="-0.4445815086364746">
        <ele>431.6142883300781</ele>
        <time>2021-02-27T09:21:45.771Z</time>
      </trkpt>
      <trkpt lat="39.68682289123535" lon="-0.4445815086364746">
        <ele>427.7734069824219</ele>
        <time>2021-02-27T09:21:47.438Z</time>
      </trkpt>
      <trkpt lat="39.68660831451416" lon="-0.4443776607513428">
        <ele>425.6084289550781</ele>
        <time>2021-02-27T09:21:49.110Z</time>
      </trkpt>
      <trkpt lat="39.68660831451416" lon="-0.4441952705383301">
        <ele>424.7141418457031</ele>
        <time>2021-02-27T09:21:50.785Z</time>
      </trkpt>
      <trkpt lat="39.686667239293456" lon="-0.443993266671896">
        <ele>423.0480651855469</ele>
        <time>2021-02-27T09:21:52.464Z</time>
      </trkpt>
      <trkpt lat="39.68666732311249" lon="-0.4439931828528643">
        <ele>423.0471496582031</ele>
        <time>2021-02-27T09:21:54.143Z</time>
      </trkpt>
      <trkpt lat="39.68690872192383" lon="-0.4431653022766113">
        <ele>423.8746032714844</ele>
        <time>2021-02-27T09:21:55.835Z</time>
      </trkpt>
      <trkpt lat="39.686951637268066" lon="-0.4427683353424072">
        <ele>421.942626953125</ele>
        <time>2021-02-27T09:21:57.533Z</time>
      </trkpt>
      <trkpt lat="39.686747789382935" lon="-0.442124605178833">
        <ele>418.46087646484375</ele>
        <time>2021-02-27T09:21:59.242Z</time>
      </trkpt>
      <trkpt lat="39.686522483825684" lon="-0.4418134689331055">
        <ele>414.65252685546875</ele>
        <time>2021-02-27T09:22:00.958Z</time>
      </trkpt>
      <trkpt lat="39.68660831451416" lon="-0.4413735866546631">
        <ele>418.4543151855469</ele>
        <time>2021-02-27T09:22:02.681Z</time>
      </trkpt>
      <trkpt lat="39.68660831451416" lon="-0.440601110458374">
        <ele>412.13427734375</ele>
        <time>2021-02-27T09:22:04.416Z</time>
      </trkpt>
      <trkpt lat="39.68653321266174" lon="-0.4401719570159912">
        <ele>404.0194091796875</ele>
        <time>2021-02-27T09:22:06.157Z</time>
      </trkpt>
      <trkpt lat="39.686039686203" lon="-0.4393887519836426">
        <ele>387.62109375</ele>
        <time>2021-02-27T09:22:07.914Z</time>
      </trkpt>
      <trkpt lat="39.68579292297363" lon="-0.4387772083282471">
        <ele>378.9997863769531</ele>
        <time>2021-02-27T09:22:09.682Z</time>
      </trkpt>
      <trkpt lat="39.68594312667847" lon="-0.4380583763122559">
        <ele>377.172607421875</ele>
        <time>2021-02-27T09:22:11.461Z</time>
      </trkpt>
      <trkpt lat="39.685996770858765" lon="-0.4368138313293457">
        <ele>364.1934509277344</ele>
        <time>2021-02-27T09:22:13.259Z</time>
      </trkpt>
      <trkpt lat="39.685975313186646" lon="-0.4359340667724609">
        <ele>359.3778991699219</ele>
        <time>2021-02-27T09:22:15.071Z</time>
      </trkpt>
      <trkpt lat="39.685750007629395" lon="-0.4348611831665039">
        <ele>355.491943359375</ele>
        <time>2021-02-27T09:22:16.900Z</time>
      </trkpt>
      <trkpt lat="39.68555688858032" lon="-0.4337453842163086">
        <ele>351.0047302246094</ele>
        <time>2021-02-27T09:22:18.747Z</time>
      </trkpt>
      <trkpt lat="39.684988260269165" lon="-0.4323077201843262">
        <ele>342.1130676269531</ele>
        <time>2021-02-27T09:22:20.619Z</time>
      </trkpt>
      <trkpt lat="39.6849883440882" lon="-0.4317927360534668">
        <ele>343.9337463378906</ele>
        <time>2021-02-27T09:22:22.499Z</time>
      </trkpt>
      <trkpt lat="39.685020530596375" lon="-0.4313099384307861">
        <ele>342.01361083984375</ele>
        <time>2021-02-27T09:22:24.386Z</time>
      </trkpt>
      <trkpt lat="39.685020446777344" lon="-0.4313099384307861">
        <ele>342.0120849609375</ele>
        <time>2021-02-27T09:22:26.273Z</time>
      </trkpt>
      <trkpt lat="39.684999072924256" lon="-0.4310739040374756">
        <ele>339.4218444824219</ele>
        <time>2021-02-27T09:22:28.164Z</time>
      </trkpt>
      <trkpt lat="39.685202836990356" lon="-0.430837869644165">
        <ele>339.52215576171875</ele>
        <time>2021-02-27T09:22:30.060Z</time>
      </trkpt>
      <trkpt lat="39.68517073430121" lon="-0.4308271408081055">
        <ele>338.9055480957031</ele>
        <time>2021-02-27T09:22:31.957Z</time>
      </trkpt>
      <trkpt lat="39.68517065048218" lon="-0.4307091236114502">
        <ele>337.96112060546875</ele>
        <time>2021-02-27T09:22:33.856Z</time>
      </trkpt>
      <trkpt lat="39.6850311756134" lon="-0.4306340217590332">
        <ele>334.6917419433594</ele>
        <time>2021-02-27T09:22:35.758Z</time>
      </trkpt>
      <trkpt lat="39.68454837799072" lon="-0.4306340217590332">
        <ele>329.0274963378906</ele>
        <time>2021-02-27T09:22:37.670Z</time>
      </trkpt>
      <trkpt lat="39.68416222371161" lon="-0.4304194450378418">
        <ele>324.82012939453125</ele>
        <time>2021-02-27T09:22:39.590Z</time>
      </trkpt>
      <trkpt lat="39.68416213989258" lon="-0.4304194450378418">
        <ele>324.8192138671875</ele>
        <time>2021-02-27T09:22:41.510Z</time>
      </trkpt>
      <trkpt lat="39.68391546048224" lon="-0.43021559715271">
        <ele>324.30816650390625</ele>
        <time>2021-02-27T09:22:43.436Z</time>
      </trkpt>
      <trkpt lat="39.68382954597473" lon="-0.4302692413330078">
        <ele>324.0389709472656</ele>
        <time>2021-02-27T09:22:45.364Z</time>
      </trkpt>
      <trkpt lat="39.68378663063049" lon="-0.4301726818084717">
        <ele>324.6170654296875</ele>
        <time>2021-02-27T09:22:47.293Z</time>
      </trkpt>
      <trkpt lat="39.68386173248291" lon="-0.4301083087921143">
        <ele>325.0804443359375</ele>
        <time>2021-02-27T09:22:49.224Z</time>
      </trkpt>
      <trkpt lat="39.68394764699042" lon="-0.4295182228088379">
        <ele>328.8020935058594</ele>
        <time>2021-02-27T09:22:51.164Z</time>
      </trkpt>
      <trkpt lat="39.68364715576172" lon="-0.4290246963500977">
        <ele>320.7308349609375</ele>
        <time>2021-02-27T09:22:53.114Z</time>
      </trkpt>
      <trkpt lat="39.683711528778076" lon="-0.4282200336456299">
        <ele>319.3948059082031</ele>
        <time>2021-02-27T09:22:55.077Z</time>
      </trkpt>
      <trkpt lat="39.68382954597473" lon="-0.4279196262359619">
        <ele>318.5290832519531</ele>
        <time>2021-02-27T09:22:57.045Z</time>
      </trkpt>
      <trkpt lat="39.684280240908265" lon="-0.4277265071868896">
        <ele>323.6739196777344</ele>
        <time>2021-02-27T09:22:59.022Z</time>
      </trkpt>
      <trkpt lat="39.68406558036804" lon="-0.4270613193511963">
        <ele>314.3562316894531</ele>
        <time>2021-02-27T09:23:01.010Z</time>
      </trkpt>
      <trkpt lat="39.68352913856506" lon="-0.4266536235809326">
        <ele>311.52142333984375</ele>
        <time>2021-02-27T09:23:03.011Z</time>
      </trkpt>
      <trkpt lat="39.68291759490967" lon="-0.4265892505645752">
        <ele>304.2818908691406</ele>
        <time>2021-02-27T09:23:05.024Z</time>
      </trkpt>
      <trkpt lat="39.68290686607361" lon="-0.4262781143188477">
        <ele>301.7591247558594</ele>
        <time>2021-02-27T09:23:07.042Z</time>
      </trkpt>
      <trkpt lat="39.68276680447161" lon="-0.4257645551115274">
        <ele>298.5555725097656</ele>
        <time>2021-02-27T09:23:09.068Z</time>
      </trkpt>
    </trkseg>
  </trk>
</gpx>
